<?xml version="1.0" encoding="UTF-8" standalone="no" ?><gpx xmlns="http://www.topografix.com/GPX/1/1" xmlns:gpxx="http://www.garmin.com/xmlschemas/GpxExtensions/v3" xmlns:gpxtrkx="http://www.garmin.com/xmlschemas/TrackStatsExtension/v1" xmlns:wptx1="http://www.garmin.com/xmlschemas/WaypointExtension/v1" xmlns:gpxtpx="http://www.garmin.com/xmlschemas/TrackPointExtension/v1" creator="GPSMAP 64st" version="1.1" xmlns:xsi="http://www.w3.org/2001/XMLSchema-instance" xsi:schemaLocation="http://www.topografix.com/GPX/1/1 http://www.topografix.com/GPX/1/1/gpx.xsd http://www.garmin.com/xmlschemas/GpxExtensions/v3 http://www8.garmin.com/xmlschemas/GpxExtensionsv3.xsd http://www.garmin.com/xmlschemas/TrackStatsExtension/v1 http://www8.garmin.com/xmlschemas/TrackStatsExtension.xsd http://www.garmin.com/xmlschemas/WaypointExtension/v1 http://www8.garmin.com/xmlschemas/WaypointExtensionv1.xsd http://www.garmin.com/xmlschemas/TrackPointExtension/v1 http://www.garmin.com/xmlschemas/TrackPointExtensionv1.xsd"><metadata><link href="http://www.garmin.com"><text>Garmin International</text></link><time>2026-08-16T18:22:03Z</time></metadata>
<trk><name>2026-08-16 Монахов Резник</name><extensions><gpxx:TrackExtension><gpxx:DisplayColor>Cyan</gpxx:DisplayColor></gpxx:TrackExtension><gpxtrkx:TrackStatsExtension><gpxtrkx:Distance>23942.000</gpxtrkx:Distance><gpxtrkx:TotalElapsedTime>36228</gpxtrkx:TotalElapsedTime><gpxtrkx:MovingTime>27006</gpxtrkx:MovingTime><gpxtrkx:StoppedTime>3870</gpxtrkx:StoppedTime><gpxtrkx:MovingSpeed>0.887</gpxtrkx:MovingSpeed><gpxtrkx:MaxSpeed>2.652</gpxtrkx:MaxSpeed><gpxtrkx:MaxElevation>190.275</gpxtrkx:MaxElevation><gpxtrkx:MinElevation>124.839</gpxtrkx:MinElevation><gpxtrkx:Ascent>1327.000</gpxtrkx:Ascent><gpxtrkx:Descent>1318.715</gpxtrkx:Descent><gpxtrkx:AvgAscentRate>0.071</gpxtrkx:AvgAscentRate><gpxtrkx:MaxAscentRate>1.234</gpxtrkx:MaxAscentRate><gpxtrkx:AvgDescentRate>0.072</gpxtrkx:AvgDescentRate><gpxtrkx:MaxDescentRate>-0.900</gpxtrkx:MaxDescentRate></gpxtrkx:TrackStatsExtension></extensions><trkseg><trkpt lat="59.3041526154" lon="34.7128293011"><ele>166.14</ele><time>2026-08-16T08:18:15Z</time></trkpt><trkpt lat="59.3041757494" lon="34.7127416264"><ele>163.57</ele><time>2026-08-16T08:18:26Z</time></trkpt><trkpt lat="59.3041803595" lon="34.7127182409"><ele>163.38</ele><time>2026-08-16T08:18:27Z</time></trkpt><trkpt lat="59.3042406254" lon="34.7124371957"><ele>161.67</ele><time>2026-08-16T08:18:39Z</time></trkpt><trkpt lat="59.3042590655" lon="34.7123658657"><ele>161.54</ele><time>2026-08-16T08:18:42Z</time></trkpt><trkpt lat="59.3042691238" lon="34.7123476770"><ele>161.52</ele><time>2026-08-16T08:18:43Z</time></trkpt><trkpt lat="59.3043141346" lon="34.7122853994"><ele>160.61</ele><time>2026-08-16T08:18:54Z</time></trkpt><trkpt lat="59.3042785116" lon="34.7122705635"><ele>159.94</ele><time>2026-08-16T08:19:07Z</time></trkpt><trkpt lat="59.3042371050" lon="34.7122871596"><ele>159.74</ele><time>2026-08-16T08:19:30Z</time></trkpt><trkpt lat="59.3041428085" lon="34.7123190109"><ele>160.75</ele><time>2026-08-16T08:19:44Z</time></trkpt><trkpt lat="59.3041024916" lon="34.7123717330"><ele>160.06</ele><time>2026-08-16T08:20:03Z</time></trkpt><trkpt lat="59.3041009828" lon="34.7124030814"><ele>159.59</ele><time>2026-08-16T08:20:26Z</time></trkpt><trkpt lat="59.3042038288" lon="34.7123921849"><ele>158.84</ele><time>2026-08-16T08:20:35Z</time></trkpt><trkpt lat="59.3042386137" lon="34.7123822104"><ele>158.81</ele><time>2026-08-16T08:20:38Z</time></trkpt><trkpt lat="59.3042626698" lon="34.7123758402"><ele>158.80</ele><time>2026-08-16T08:20:40Z</time></trkpt><trkpt lat="59.3042732310" lon="34.7123730741"><ele>158.75</ele><time>2026-08-16T08:20:41Z</time></trkpt><trkpt lat="59.3043033220" lon="34.7123246267"><ele>158.87</ele><time>2026-08-16T08:20:47Z</time></trkpt><trkpt lat="59.3042814452" lon="34.7123495210"><ele>158.66</ele><time>2026-08-16T08:21:07Z</time></trkpt><trkpt lat="59.3042875640" lon="34.7123507783"><ele>158.08</ele><time>2026-08-16T08:21:26Z</time></trkpt><trkpt lat="59.3042709678" lon="34.7123428993"><ele>158.24</ele><time>2026-08-16T08:21:29Z</time></trkpt><trkpt lat="59.3042258732" lon="34.7122855671"><ele>159.04</ele><time>2026-08-16T08:21:42Z</time></trkpt><trkpt lat="59.3042775057" lon="34.7122774366"><ele>159.40</ele><time>2026-08-16T08:22:01Z</time></trkpt><trkpt lat="59.3042815290" lon="34.7123221960"><ele>159.82</ele><time>2026-08-16T08:22:06Z</time></trkpt><trkpt lat="59.3043343350" lon="34.7123630159"><ele>160.70</ele><time>2026-08-16T08:22:29Z</time></trkpt><trkpt lat="59.3042884860" lon="34.7123428155"><ele>161.38</ele><time>2026-08-16T08:22:45Z</time></trkpt><trkpt lat="59.3043326586" lon="34.7122381255"><ele>161.92</ele><time>2026-08-16T08:22:54Z</time></trkpt><trkpt lat="59.3043681141" lon="34.7119732574"><ele>162.93</ele><time>2026-08-16T08:23:07Z</time></trkpt><trkpt lat="59.3043985404" lon="34.7117890231"><ele>163.01</ele><time>2026-08-16T08:23:14Z</time></trkpt><trkpt lat="59.3044044077" lon="34.7117485385"><ele>162.78</ele><time>2026-08-16T08:23:15Z</time></trkpt><trkpt lat="59.3044083472" lon="34.7116923798"><ele>162.56</ele><time>2026-08-16T08:23:16Z</time></trkpt><trkpt lat="59.3044504244" lon="34.7112996038"><ele>162.18</ele><time>2026-08-16T08:23:29Z</time></trkpt><trkpt lat="59.3044737261" lon="34.7110166308"><ele>161.74</ele><time>2026-08-16T08:23:40Z</time></trkpt><trkpt lat="59.3044995423" lon="34.7107174806"><ele>160.77</ele><time>2026-08-16T08:23:52Z</time></trkpt><trkpt lat="59.3044930883" lon="34.7105510160"><ele>160.50</ele><time>2026-08-16T08:23:58Z</time></trkpt><trkpt lat="59.3044922501" lon="34.7105304804"><ele>160.45</ele><time>2026-08-16T08:23:59Z</time></trkpt><trkpt lat="59.3044896517" lon="34.7105108667"><ele>160.41</ele><time>2026-08-16T08:24:00Z</time></trkpt><trkpt lat="59.3044987042" lon="34.7104550432"><ele>160.32</ele><time>2026-08-16T08:24:01Z</time></trkpt><trkpt lat="59.3045258615" lon="34.7104179952"><ele>160.10</ele><time>2026-08-16T08:24:02Z</time></trkpt><trkpt lat="59.3045310583" lon="34.7103397083"><ele>159.77</ele><time>2026-08-16T08:24:10Z</time></trkpt><trkpt lat="59.3045439664" lon="34.7102752514"><ele>159.89</ele><time>2026-08-16T08:24:14Z</time></trkpt><trkpt lat="59.3045479059" lon="34.7102526203"><ele>159.91</ele><time>2026-08-16T08:24:15Z</time></trkpt><trkpt lat="59.3045576289" lon="34.7101967968"><ele>160.14</ele><time>2026-08-16T08:24:18Z</time></trkpt><trkpt lat="59.3045953475" lon="34.7099650372"><ele>160.00</ele><time>2026-08-16T08:24:29Z</time></trkpt><trkpt lat="59.3046504166" lon="34.7098490316"><ele>160.67</ele><time>2026-08-16T08:24:36Z</time></trkpt><trkpt lat="59.3046650849" lon="34.7098364588"><ele>160.82</ele><time>2026-08-16T08:24:37Z</time></trkpt><trkpt lat="59.3046782445" lon="34.7098220419"><ele>160.96</ele><time>2026-08-16T08:24:38Z</time></trkpt><trkpt lat="59.3046891410" lon="34.7097984888"><ele>161.02</ele><time>2026-08-16T08:24:39Z</time></trkpt><trkpt lat="59.3047004566" lon="34.7097763605"><ele>161.01</ele><time>2026-08-16T08:24:40Z</time></trkpt><trkpt lat="59.3047085870" lon="34.7097476106"><ele>161.07</ele><time>2026-08-16T08:24:41Z</time></trkpt><trkpt lat="59.3047162984" lon="34.7097235546"><ele>161.11</ele><time>2026-08-16T08:24:42Z</time></trkpt><trkpt lat="59.3047264405" lon="34.7097029351"><ele>161.15</ele><time>2026-08-16T08:24:43Z</time></trkpt><trkpt lat="59.3047940824" lon="34.7095573414"><ele>160.84</ele><time>2026-08-16T08:24:51Z</time></trkpt><trkpt lat="59.3047984410" lon="34.7094067186"><ele>160.48</ele><time>2026-08-16T08:25:05Z</time></trkpt><trkpt lat="59.3047572020" lon="34.7092188802"><ele>160.84</ele><time>2026-08-16T08:25:31Z</time></trkpt><trkpt lat="59.3046669289" lon="34.7091547586"><ele>161.54</ele><time>2026-08-16T08:25:42Z</time></trkpt><trkpt lat="59.3046526797" lon="34.7091301996"><ele>161.06</ele><time>2026-08-16T08:25:55Z</time></trkpt><trkpt lat="59.3047525920" lon="34.7091771383"><ele>157.80</ele><time>2026-08-16T08:26:05Z</time></trkpt><trkpt lat="59.3047680147" lon="34.7091684211"><ele>157.52</ele><time>2026-08-16T08:26:06Z</time></trkpt><trkpt lat="59.3047836889" lon="34.7091555130"><ele>157.31</ele><time>2026-08-16T08:26:07Z</time></trkpt><trkpt lat="59.3047959264" lon="34.7091417667"><ele>157.07</ele><time>2026-08-16T08:26:08Z</time></trkpt><trkpt lat="59.3048871215" lon="34.7089185566"><ele>154.96</ele><time>2026-08-16T08:26:19Z</time></trkpt><trkpt lat="59.3049726170" lon="34.7087982763"><ele>153.70</ele><time>2026-08-16T08:26:28Z</time></trkpt><trkpt lat="59.3050658237" lon="34.7086737212"><ele>151.04</ele><time>2026-08-16T08:26:39Z</time></trkpt><trkpt lat="59.3051625509" lon="34.7085753176"><ele>150.52</ele><time>2026-08-16T08:26:48Z</time></trkpt><trkpt lat="59.3051719386" lon="34.7085469868"><ele>150.35</ele><time>2026-08-16T08:26:49Z</time></trkpt><trkpt lat="59.3052782211" lon="34.7082511894"><ele>146.60</ele><time>2026-08-16T08:27:02Z</time></trkpt><trkpt lat="59.3053925503" lon="34.7078620177"><ele>143.43</ele><time>2026-08-16T08:27:18Z</time></trkpt><trkpt lat="59.3054178637" lon="34.7076998278"><ele>141.32</ele><time>2026-08-16T08:27:26Z</time></trkpt><trkpt lat="59.3054337054" lon="34.7076517995"><ele>141.75</ele><time>2026-08-16T08:27:36Z</time></trkpt><trkpt lat="59.3054770399" lon="34.7076779511"><ele>152.52</ele><time>2026-08-16T08:28:00Z</time></trkpt><trkpt lat="59.3055169377" lon="34.7076669708"><ele>152.87</ele><time>2026-08-16T08:28:15Z</time></trkpt><trkpt lat="59.3054772913" lon="34.7076739278"><ele>154.00</ele><time>2026-08-16T08:28:31Z</time></trkpt><trkpt lat="59.3054350466" lon="34.7076042742"><ele>154.24</ele><time>2026-08-16T08:28:43Z</time></trkpt><trkpt lat="59.3054301012" lon="34.7075894382"><ele>154.72</ele><time>2026-08-16T08:29:06Z</time></trkpt><trkpt lat="59.3054598570" lon="34.7075156774"><ele>154.97</ele><time>2026-08-16T08:29:17Z</time></trkpt><trkpt lat="59.3054720107" lon="34.7075026855"><ele>155.00</ele><time>2026-08-16T08:29:18Z</time></trkpt><trkpt lat="59.3055660557" lon="34.7073363885"><ele>155.24</ele><time>2026-08-16T08:29:29Z</time></trkpt><trkpt lat="59.3056049477" lon="34.7072547488"><ele>155.07</ele><time>2026-08-16T08:29:35Z</time></trkpt><trkpt lat="59.3056522217" lon="34.7071488015"><ele>154.96</ele><time>2026-08-16T08:29:43Z</time></trkpt><trkpt lat="59.3057435006" lon="34.7068153694"><ele>153.39</ele><time>2026-08-16T08:29:58Z</time></trkpt><trkpt lat="59.3057890981" lon="34.7064033989"><ele>151.68</ele><time>2026-08-16T08:30:12Z</time></trkpt><trkpt lat="59.3058316782" lon="34.7060612496"><ele>150.89</ele><time>2026-08-16T08:30:26Z</time></trkpt><trkpt lat="59.3059297465" lon="34.7058786917"><ele>148.41</ele><time>2026-08-16T08:30:36Z</time></trkpt><trkpt lat="59.3059621844" lon="34.7057731636"><ele>146.68</ele><time>2026-08-16T08:30:41Z</time></trkpt><trkpt lat="59.3060383759" lon="34.7054762766"><ele>146.50</ele><time>2026-08-16T08:30:52Z</time></trkpt><trkpt lat="59.3060635217" lon="34.7053937986"><ele>147.35</ele><time>2026-08-16T08:30:59Z</time></trkpt><trkpt lat="59.3060515355" lon="34.7053277493"><ele>149.35</ele><time>2026-08-16T08:31:08Z</time></trkpt><trkpt lat="59.3060299940" lon="34.7052648850"><ele>152.64</ele><time>2026-08-16T08:31:29Z</time></trkpt><trkpt lat="59.3060453329" lon="34.7052419186"><ele>153.75</ele><time>2026-08-16T08:31:42Z</time></trkpt><trkpt lat="59.3060729932" lon="34.7052446008"><ele>154.97</ele><time>2026-08-16T08:32:10Z</time></trkpt><trkpt lat="59.3060833029" lon="34.7052407451"><ele>155.09</ele><time>2026-08-16T08:32:11Z</time></trkpt><trkpt lat="59.3060951214" lon="34.7052360512"><ele>155.14</ele><time>2026-08-16T08:32:12Z</time></trkpt><trkpt lat="59.3061511125" lon="34.7051908728"><ele>154.84</ele><time>2026-08-16T08:32:17Z</time></trkpt><trkpt lat="59.3061599974" lon="34.7051755339"><ele>154.86</ele><time>2026-08-16T08:32:18Z</time></trkpt><trkpt lat="59.3061636854" lon="34.7051368095"><ele>155.14</ele><time>2026-08-16T08:32:29Z</time></trkpt><trkpt lat="59.3061635178" lon="34.7050781362"><ele>156.05</ele><time>2026-08-16T08:32:41Z</time></trkpt><trkpt lat="59.3061972130" lon="34.7050346341"><ele>157.35</ele><time>2026-08-16T08:32:54Z</time></trkpt><trkpt lat="59.3061385397" lon="34.7050778847"><ele>157.99</ele><time>2026-08-16T08:33:07Z</time></trkpt><trkpt lat="59.3061349355" lon="34.7049814090"><ele>157.39</ele><time>2026-08-16T08:33:28Z</time></trkpt><trkpt lat="59.3061698042" lon="34.7049525753"><ele>157.95</ele><time>2026-08-16T08:33:47Z</time></trkpt><trkpt lat="59.3062768411" lon="34.7048469633"><ele>156.36</ele><time>2026-08-16T08:34:04Z</time></trkpt><trkpt lat="59.3063834589" lon="34.7046618070"><ele>154.80</ele><time>2026-08-16T08:34:21Z</time></trkpt><trkpt lat="59.3064970337" lon="34.7044089250"><ele>150.41</ele><time>2026-08-16T08:34:38Z</time></trkpt><trkpt lat="59.3065461516" lon="34.7043468989"><ele>149.75</ele><time>2026-08-16T08:34:42Z</time></trkpt><trkpt lat="59.3065795954" lon="34.7042950150"><ele>149.58</ele><time>2026-08-16T08:34:45Z</time></trkpt><trkpt lat="59.3065865524" lon="34.7042617388"><ele>149.38</ele><time>2026-08-16T08:34:46Z</time></trkpt><trkpt lat="59.3065994605" lon="34.7042438854"><ele>149.34</ele><time>2026-08-16T08:34:47Z</time></trkpt><trkpt lat="59.3066086806" lon="34.7042272054"><ele>149.29</ele><time>2026-08-16T08:34:48Z</time></trkpt><trkpt lat="59.3066151347" lon="34.7042086814"><ele>149.10</ele><time>2026-08-16T08:34:49Z</time></trkpt><trkpt lat="59.3066261150" lon="34.7041935101"><ele>149.08</ele><time>2026-08-16T08:34:50Z</time></trkpt><trkpt lat="59.3067040667" lon="34.7040391155"><ele>149.33</ele><time>2026-08-16T08:35:00Z</time></trkpt><trkpt lat="59.3067786656" lon="34.7037164960"><ele>150.52</ele><time>2026-08-16T08:35:15Z</time></trkpt><trkpt lat="59.3068315554" lon="34.7034229618"><ele>152.68</ele><time>2026-08-16T08:35:29Z</time></trkpt><trkpt lat="59.3069382571" lon="34.7031310201"><ele>154.15</ele><time>2026-08-16T08:35:43Z</time></trkpt><trkpt lat="59.3070442881" lon="34.7027957439"><ele>155.09</ele><time>2026-08-16T08:35:58Z</time></trkpt><trkpt lat="59.3071037158" lon="34.7025780659"><ele>154.30</ele><time>2026-08-16T08:36:08Z</time></trkpt><trkpt lat="59.3071139418" lon="34.7021779977"><ele>153.01</ele><time>2026-08-16T08:36:23Z</time></trkpt><trkpt lat="59.3071232457" lon="34.7019474115"><ele>152.85</ele><time>2026-08-16T08:36:32Z</time></trkpt><trkpt lat="59.3071251735" lon="34.7019227687"><ele>152.86</ele><time>2026-08-16T08:36:33Z</time></trkpt><trkpt lat="59.3071391713" lon="34.7017060127"><ele>152.60</ele><time>2026-08-16T08:36:43Z</time></trkpt><trkpt lat="59.3071172945" lon="34.7015641071"><ele>155.04</ele><time>2026-08-16T08:36:55Z</time></trkpt><trkpt lat="59.3071090803" lon="34.7015820444"><ele>158.02</ele><time>2026-08-16T08:37:15Z</time></trkpt><trkpt lat="59.3070996087" lon="34.7015785240"><ele>163.19</ele><time>2026-08-16T08:37:46Z</time></trkpt><trkpt lat="59.3071228266" lon="34.7015568987"><ele>162.45</ele><time>2026-08-16T08:38:06Z</time></trkpt><trkpt lat="59.3071360700" lon="34.7013393044"><ele>160.89</ele><time>2026-08-16T08:38:19Z</time></trkpt><trkpt lat="59.3071436137" lon="34.7010676470"><ele>158.22</ele><time>2026-08-16T08:38:30Z</time></trkpt><trkpt lat="59.3071431108" lon="34.7008026112"><ele>158.16</ele><time>2026-08-16T08:38:41Z</time></trkpt><trkpt lat="59.3071410153" lon="34.7005369049"><ele>157.84</ele><time>2026-08-16T08:38:52Z</time></trkpt><trkpt lat="59.3071635626" lon="34.7004942410"><ele>156.83</ele><time>2026-08-16T08:39:02Z</time></trkpt><trkpt lat="59.3071636464" lon="34.7003208194"><ele>156.73</ele><time>2026-08-16T08:39:13Z</time></trkpt><trkpt lat="59.3071644008" lon="34.7002965957"><ele>156.65</ele><time>2026-08-16T08:39:14Z</time></trkpt><trkpt lat="59.3071638141" lon="34.7002723720"><ele>156.67</ele><time>2026-08-16T08:39:15Z</time></trkpt><trkpt lat="59.3071632273" lon="34.7002471425"><ele>156.68</ele><time>2026-08-16T08:39:16Z</time></trkpt><trkpt lat="59.3071469665" lon="34.6999761555"><ele>153.74</ele><time>2026-08-16T08:39:27Z</time></trkpt><trkpt lat="59.3071530014" lon="34.6996593196"><ele>152.35</ele><time>2026-08-16T08:39:40Z</time></trkpt><trkpt lat="59.3071908038" lon="34.6993223671"><ele>150.90</ele><time>2026-08-16T08:39:55Z</time></trkpt><trkpt lat="59.3072456215" lon="34.6990333591"><ele>149.17</ele><time>2026-08-16T08:40:09Z</time></trkpt><trkpt lat="59.3072615471" lon="34.6986746974"><ele>146.57</ele><time>2026-08-16T08:40:23Z</time></trkpt><trkpt lat="59.3072685879" lon="34.6983664110"><ele>143.69</ele><time>2026-08-16T08:40:36Z</time></trkpt><trkpt lat="59.3072940689" lon="34.6981606353"><ele>142.00</ele><time>2026-08-16T08:40:46Z</time></trkpt><trkpt lat="59.3072759639" lon="34.6980893053"><ele>144.09</ele><time>2026-08-16T08:41:04Z</time></trkpt><trkpt lat="59.3072544225" lon="34.6980765648"><ele>149.16</ele><time>2026-08-16T08:41:17Z</time></trkpt><trkpt lat="59.3072579429" lon="34.6980790794"><ele>151.94</ele><time>2026-08-16T08:41:34Z</time></trkpt><trkpt lat="59.3072819989" lon="34.6979325637"><ele>152.20</ele><time>2026-08-16T08:41:42Z</time></trkpt><trkpt lat="59.3072825018" lon="34.6979119442"><ele>152.64</ele><time>2026-08-16T08:41:43Z</time></trkpt><trkpt lat="59.3073235732" lon="34.6976528596"><ele>152.45</ele><time>2026-08-16T08:41:55Z</time></trkpt><trkpt lat="59.3073432706" lon="34.6975073498"><ele>150.87</ele><time>2026-08-16T08:42:01Z</time></trkpt><trkpt lat="59.3073408399" lon="34.6972325072"><ele>148.30</ele><time>2026-08-16T08:42:12Z</time></trkpt><trkpt lat="59.3073347211" lon="34.6971740015"><ele>148.40</ele><time>2026-08-16T08:42:13Z</time></trkpt><trkpt lat="59.3073446117" lon="34.6971043479"><ele>148.34</ele><time>2026-08-16T08:42:15Z</time></trkpt><trkpt lat="59.3073445279" lon="34.6970621869"><ele>148.34</ele><time>2026-08-16T08:42:16Z</time></trkpt><trkpt lat="59.3073726073" lon="34.6969055291"><ele>147.70</ele><time>2026-08-16T08:42:23Z</time></trkpt><trkpt lat="59.3073778041" lon="34.6968793776"><ele>147.63</ele><time>2026-08-16T08:42:24Z</time></trkpt><trkpt lat="59.3073818274" lon="34.6968534775"><ele>147.42</ele><time>2026-08-16T08:42:25Z</time></trkpt><trkpt lat="59.3073984236" lon="34.6967467759"><ele>146.69</ele><time>2026-08-16T08:42:29Z</time></trkpt><trkpt lat="59.3074115831" lon="34.6966730990"><ele>146.49</ele><time>2026-08-16T08:42:32Z</time></trkpt><trkpt lat="59.3074416742" lon="34.6963604540"><ele>148.58</ele><time>2026-08-16T08:42:44Z</time></trkpt><trkpt lat="59.3074597791" lon="34.6962959133"><ele>149.22</ele><time>2026-08-16T08:42:48Z</time></trkpt><trkpt lat="59.3074667361" lon="34.6962761320"><ele>149.47</ele><time>2026-08-16T08:42:49Z</time></trkpt><trkpt lat="59.3074930552" lon="34.6962104179"><ele>149.68</ele><time>2026-08-16T08:42:53Z</time></trkpt><trkpt lat="59.3075665645" lon="34.6960431151"><ele>148.34</ele><time>2026-08-16T08:43:01Z</time></trkpt><trkpt lat="59.3075758684" lon="34.6960196458"><ele>148.05</ele><time>2026-08-16T08:43:02Z</time></trkpt><trkpt lat="59.3076746073" lon="34.6957577951"><ele>144.08</ele><time>2026-08-16T08:43:14Z</time></trkpt><trkpt lat="59.3077720888" lon="34.6954976209"><ele>140.51</ele><time>2026-08-16T08:43:26Z</time></trkpt><trkpt lat="59.3077761959" lon="34.6954783425"><ele>140.47</ele><time>2026-08-16T08:43:27Z</time></trkpt><trkpt lat="59.3077811413" lon="34.6952840500"><ele>141.89</ele><time>2026-08-16T08:43:38Z</time></trkpt><trkpt lat="59.3077632878" lon="34.6952480078"><ele>147.40</ele><time>2026-08-16T08:44:00Z</time></trkpt><trkpt lat="59.3077379744" lon="34.6952351835"><ele>153.37</ele><time>2026-08-16T08:44:11Z</time></trkpt><trkpt lat="59.3077680655" lon="34.6951671224"><ele>157.36</ele><time>2026-08-16T08:44:29Z</time></trkpt><trkpt lat="59.3077835720" lon="34.6951502748"><ele>157.18</ele><time>2026-08-16T08:44:30Z</time></trkpt><trkpt lat="59.3077982403" lon="34.6951281466"><ele>157.04</ele><time>2026-08-16T08:44:31Z</time></trkpt><trkpt lat="59.3078320194" lon="34.6950649470"><ele>156.96</ele><time>2026-08-16T08:44:34Z</time></trkpt><trkpt lat="59.3078449275" lon="34.6950527932"><ele>156.75</ele><time>2026-08-16T08:44:35Z</time></trkpt><trkpt lat="59.3078916986" lon="34.6949569881"><ele>155.32</ele><time>2026-08-16T08:44:41Z</time></trkpt><trkpt lat="59.3078991584" lon="34.6949268971"><ele>155.06</ele><time>2026-08-16T08:44:42Z</time></trkpt><trkpt lat="59.3079061154" lon="34.6949015837"><ele>154.80</ele><time>2026-08-16T08:44:43Z</time></trkpt><trkpt lat="59.3079713266" lon="34.6947361249"><ele>151.85</ele><time>2026-08-16T08:44:51Z</time></trkpt><trkpt lat="59.3079787865" lon="34.6947055310"><ele>151.76</ele><time>2026-08-16T08:44:52Z</time></trkpt><trkpt lat="59.3079838995" lon="34.6946819779"><ele>151.58</ele><time>2026-08-16T08:44:53Z</time></trkpt><trkpt lat="59.3079908565" lon="34.6946656331"><ele>151.33</ele><time>2026-08-16T08:44:54Z</time></trkpt><trkpt lat="59.3080682214" lon="34.6944889426"><ele>147.30</ele><time>2026-08-16T08:45:05Z</time></trkpt><trkpt lat="59.3081078678" lon="34.6943079773"><ele>145.15</ele><time>2026-08-16T08:45:18Z</time></trkpt><trkpt lat="59.3081264757" lon="34.6942934766"><ele>145.14</ele><time>2026-08-16T08:45:20Z</time></trkpt><trkpt lat="59.3081538845" lon="34.6941080689"><ele>145.99</ele><time>2026-08-16T08:45:31Z</time></trkpt><trkpt lat="59.3082561437" lon="34.6939489804"><ele>148.82</ele><time>2026-08-16T08:45:46Z</time></trkpt><trkpt lat="59.3082385417" lon="34.6939298697"><ele>149.63</ele><time>2026-08-16T08:45:52Z</time></trkpt><trkpt lat="59.3083143979" lon="34.6937532630"><ele>150.44</ele><time>2026-08-16T08:46:05Z</time></trkpt><trkpt lat="59.3083803635" lon="34.6934343316"><ele>149.13</ele><time>2026-08-16T08:46:16Z</time></trkpt><trkpt lat="59.3083855603" lon="34.6933852136"><ele>148.89</ele><time>2026-08-16T08:46:17Z</time></trkpt><trkpt lat="59.3083941936" lon="34.6933604032"><ele>148.63</ele><time>2026-08-16T08:46:18Z</time></trkpt><trkpt lat="59.3084018212" lon="34.6933364309"><ele>148.29</ele><time>2026-08-16T08:46:19Z</time></trkpt><trkpt lat="59.3084080238" lon="34.6933129616"><ele>147.97</ele><time>2026-08-16T08:46:20Z</time></trkpt><trkpt lat="59.3084429763" lon="34.6931541245"><ele>147.41</ele><time>2026-08-16T08:46:25Z</time></trkpt><trkpt lat="59.3084663618" lon="34.6930530388"><ele>150.52</ele><time>2026-08-16T08:46:36Z</time></trkpt><trkpt lat="59.3084343430" lon="34.6930513624"><ele>153.07</ele><time>2026-08-16T08:47:00Z</time></trkpt><trkpt lat="59.3084612489" lon="34.6929760091"><ele>154.21</ele><time>2026-08-16T08:47:23Z</time></trkpt><trkpt lat="59.3085905816" lon="34.6929110494"><ele>154.49</ele><time>2026-08-16T08:47:37Z</time></trkpt><trkpt lat="59.3086758256" lon="34.6927594207"><ele>152.57</ele><time>2026-08-16T08:47:49Z</time></trkpt><trkpt lat="59.3088453077" lon="34.6923518088"><ele>146.50</ele><time>2026-08-16T08:48:10Z</time></trkpt><trkpt lat="59.3090809230" lon="34.6920426004"><ele>143.94</ele><time>2026-08-16T08:48:29Z</time></trkpt><trkpt lat="59.3091459665" lon="34.6919673309"><ele>143.36</ele><time>2026-08-16T08:48:34Z</time></trkpt><trkpt lat="59.3093224056" lon="34.6916414425"><ele>139.44</ele><time>2026-08-16T08:48:52Z</time></trkpt><trkpt lat="59.3094553426" lon="34.6913170628"><ele>136.59</ele><time>2026-08-16T08:49:11Z</time></trkpt><trkpt lat="59.3096864317" lon="34.6911269613"><ele>136.90</ele><time>2026-08-16T08:49:30Z</time></trkpt><trkpt lat="59.3098289240" lon="34.6907672938"><ele>137.74</ele><time>2026-08-16T08:49:39Z</time></trkpt><trkpt lat="59.3098642118" lon="34.6906874143"><ele>138.26</ele><time>2026-08-16T08:49:42Z</time></trkpt><trkpt lat="59.3099373858" lon="34.6903443430"><ele>141.98</ele><time>2026-08-16T08:49:53Z</time></trkpt><trkpt lat="59.3099530600" lon="34.6903301775"><ele>142.90</ele><time>2026-08-16T08:49:54Z</time></trkpt><trkpt lat="59.3100722507" lon="34.6902495436"><ele>145.14</ele><time>2026-08-16T08:50:04Z</time></trkpt><trkpt lat="59.3100855779" lon="34.6901991684"><ele>145.35</ele><time>2026-08-16T08:50:06Z</time></trkpt><trkpt lat="59.3100788724" lon="34.6901568398"><ele>147.18</ele><time>2026-08-16T08:50:10Z</time></trkpt><trkpt lat="59.3100686464" lon="34.6901572589"><ele>148.01</ele><time>2026-08-16T08:50:11Z</time></trkpt><trkpt lat="59.3100195285" lon="34.6901495475"><ele>153.51</ele><time>2026-08-16T08:50:28Z</time></trkpt><trkpt lat="59.3099907786" lon="34.6901923791"><ele>159.79</ele><time>2026-08-16T08:50:47Z</time></trkpt><trkpt lat="59.3100123201" lon="34.6901581809"><ele>160.58</ele><time>2026-08-16T08:50:53Z</time></trkpt><trkpt lat="59.3101841491" lon="34.6900838334"><ele>167.55</ele><time>2026-08-16T08:51:15Z</time></trkpt><trkpt lat="59.3102140725" lon="34.6899643913"><ele>168.17</ele><time>2026-08-16T08:51:22Z</time></trkpt><trkpt lat="59.3102687225" lon="34.6897902153"><ele>165.33</ele><time>2026-08-16T08:51:31Z</time></trkpt><trkpt lat="59.3102868274" lon="34.6897591185"><ele>164.41</ele><time>2026-08-16T08:51:33Z</time></trkpt><trkpt lat="59.3102941196" lon="34.6897425223"><ele>164.08</ele><time>2026-08-16T08:51:34Z</time></trkpt><trkpt lat="59.3103038426" lon="34.6897307876"><ele>163.83</ele><time>2026-08-16T08:51:35Z</time></trkpt><trkpt lat="59.3103145715" lon="34.6897174604"><ele>163.47</ele><time>2026-08-16T08:51:36Z</time></trkpt><trkpt lat="59.3103255518" lon="34.6897022892"><ele>163.03</ele><time>2026-08-16T08:51:37Z</time></trkpt><trkpt lat="59.3103351071" lon="34.6896843519"><ele>162.78</ele><time>2026-08-16T08:51:38Z</time></trkpt><trkpt lat="59.3103432376" lon="34.6896645706"><ele>162.44</ele><time>2026-08-16T08:51:39Z</time></trkpt><trkpt lat="59.3103668746" lon="34.6896167099"><ele>161.28</ele><time>2026-08-16T08:51:42Z</time></trkpt><trkpt lat="59.3103766814" lon="34.6895993594"><ele>161.00</ele><time>2026-08-16T08:51:43Z</time></trkpt><trkpt lat="59.3104659487" lon="34.6893659234"><ele>155.68</ele><time>2026-08-16T08:51:57Z</time></trkpt><trkpt lat="59.3105713092" lon="34.6892585512"><ele>152.77</ele><time>2026-08-16T08:52:09Z</time></trkpt><trkpt lat="59.3106175773" lon="34.6891833656"><ele>151.18</ele><time>2026-08-16T08:52:15Z</time></trkpt><trkpt lat="59.3107486703" lon="34.6890952718"><ele>148.01</ele><time>2026-08-16T08:52:26Z</time></trkpt><trkpt lat="59.3108790088" lon="34.6889237780"><ele>143.90</ele><time>2026-08-16T08:52:40Z</time></trkpt><trkpt lat="59.3109888118" lon="34.6887093689"><ele>139.76</ele><time>2026-08-16T08:52:54Z</time></trkpt><trkpt lat="59.3110472336" lon="34.6884465124"><ele>138.53</ele><time>2026-08-16T08:53:09Z</time></trkpt><trkpt lat="59.3110876344" lon="34.6881867573"><ele>139.62</ele><time>2026-08-16T08:53:25Z</time></trkpt><trkpt lat="59.3111405242" lon="34.6880225558"><ele>139.50</ele><time>2026-08-16T08:53:42Z</time></trkpt><trkpt lat="59.3111836910" lon="34.6878925525"><ele>140.33</ele><time>2026-08-16T08:53:47Z</time></trkpt><trkpt lat="59.3111662567" lon="34.6875548456"><ele>141.81</ele><time>2026-08-16T08:54:02Z</time></trkpt><trkpt lat="59.3111736327" lon="34.6873470582"><ele>141.91</ele><time>2026-08-16T08:54:13Z</time></trkpt><trkpt lat="59.3111484870" lon="34.6872842778"><ele>141.97</ele><time>2026-08-16T08:54:18Z</time></trkpt><trkpt lat="59.3111476488" lon="34.6871040668"><ele>143.56</ele><time>2026-08-16T08:54:30Z</time></trkpt><trkpt lat="59.3111576233" lon="34.6870793402"><ele>144.28</ele><time>2026-08-16T08:54:32Z</time></trkpt><trkpt lat="59.3111440446" lon="34.6868684515"><ele>149.62</ele><time>2026-08-16T08:54:45Z</time></trkpt><trkpt lat="59.3111458048" lon="34.6867653541"><ele>151.63</ele><time>2026-08-16T08:54:53Z</time></trkpt><trkpt lat="59.3111649994" lon="34.6866615023"><ele>152.62</ele><time>2026-08-16T08:55:04Z</time></trkpt><trkpt lat="59.3111662567" lon="34.6865682956"><ele>152.94</ele><time>2026-08-16T08:55:08Z</time></trkpt><trkpt lat="59.3111668434" lon="34.6865437366"><ele>153.07</ele><time>2026-08-16T08:55:09Z</time></trkpt><trkpt lat="59.3111644965" lon="34.6865210216"><ele>153.24</ele><time>2026-08-16T08:55:10Z</time></trkpt><trkpt lat="59.3111631554" lon="34.6864982229"><ele>153.46</ele><time>2026-08-16T08:55:11Z</time></trkpt><trkpt lat="59.3111626524" lon="34.6864756756"><ele>153.58</ele><time>2026-08-16T08:55:12Z</time></trkpt><trkpt lat="59.3111528456" lon="34.6864127275"><ele>153.79</ele><time>2026-08-16T08:55:15Z</time></trkpt><trkpt lat="59.3111487385" lon="34.6863869112"><ele>153.81</ele><time>2026-08-16T08:55:16Z</time></trkpt><trkpt lat="59.3111429550" lon="34.6863604244"><ele>153.91</ele><time>2026-08-16T08:55:17Z</time></trkpt><trkpt lat="59.3111375906" lon="34.6863181796"><ele>153.71</ele><time>2026-08-16T08:55:19Z</time></trkpt><trkpt lat="59.3110683560" lon="34.6860096417"><ele>153.61</ele><time>2026-08-16T08:55:32Z</time></trkpt><trkpt lat="59.3109987862" lon="34.6857164428"><ele>152.79</ele><time>2026-08-16T08:55:45Z</time></trkpt><trkpt lat="59.3109787535" lon="34.6856303606"><ele>153.81</ele><time>2026-08-16T08:55:58Z</time></trkpt><trkpt lat="59.3109529372" lon="34.6856215596"><ele>157.58</ele><time>2026-08-16T08:56:17Z</time></trkpt><trkpt lat="59.3109535240" lon="34.6856130101"><ele>158.23</ele><time>2026-08-16T08:56:30Z</time></trkpt><trkpt lat="59.3109483272" lon="34.6855293587"><ele>159.55</ele><time>2026-08-16T08:56:48Z</time></trkpt><trkpt lat="59.3109548651" lon="34.6854298655"><ele>159.57</ele><time>2026-08-16T08:56:53Z</time></trkpt><trkpt lat="59.3109550327" lon="34.6854053903"><ele>159.52</ele><time>2026-08-16T08:56:54Z</time></trkpt><trkpt lat="59.3109495845" lon="34.6852028836"><ele>158.56</ele><time>2026-08-16T08:57:05Z</time></trkpt><trkpt lat="59.3109146319" lon="34.6849639155"><ele>157.70</ele><time>2026-08-16T08:57:17Z</time></trkpt><trkpt lat="59.3109193258" lon="34.6848695353"><ele>157.12</ele><time>2026-08-16T08:57:27Z</time></trkpt><trkpt lat="59.3109289650" lon="34.6846692916"><ele>156.70</ele><time>2026-08-16T08:57:38Z</time></trkpt><trkpt lat="59.3109156378" lon="34.6844490152"><ele>155.93</ele><time>2026-08-16T08:57:51Z</time></trkpt><trkpt lat="59.3109508418" lon="34.6840604302"><ele>153.22</ele><time>2026-08-16T08:58:09Z</time></trkpt><trkpt lat="59.3109741434" lon="34.6837300994"><ele>152.30</ele><time>2026-08-16T08:58:24Z</time></trkpt><trkpt lat="59.3109987862" lon="34.6835144330"><ele>151.83</ele><time>2026-08-16T08:58:33Z</time></trkpt><trkpt lat="59.3110050727" lon="34.6834882814"><ele>151.93</ele><time>2026-08-16T08:58:34Z</time></trkpt><trkpt lat="59.3110113591" lon="34.6834624652"><ele>151.98</ele><time>2026-08-16T08:58:35Z</time></trkpt><trkpt lat="59.3110292125" lon="34.6832985990"><ele>152.87</ele><time>2026-08-16T08:58:45Z</time></trkpt><trkpt lat="59.3110888079" lon="34.6830928233"><ele>152.60</ele><time>2026-08-16T08:58:59Z</time></trkpt><trkpt lat="59.3111352436" lon="34.6828430425"><ele>151.70</ele><time>2026-08-16T08:59:12Z</time></trkpt><trkpt lat="59.3111501634" lon="34.6827734727"><ele>151.58</ele><time>2026-08-16T08:59:15Z</time></trkpt><trkpt lat="59.3111911509" lon="34.6826345846"><ele>150.98</ele><time>2026-08-16T08:59:24Z</time></trkpt><trkpt lat="59.3112068251" lon="34.6825785935"><ele>151.04</ele><time>2026-08-16T08:59:28Z</time></trkpt><trkpt lat="59.3112302944" lon="34.6824052557"><ele>153.06</ele><time>2026-08-16T08:59:40Z</time></trkpt><trkpt lat="59.3112834357" lon="34.6822050121"><ele>155.14</ele><time>2026-08-16T08:59:53Z</time></trkpt><trkpt lat="59.3113925681" lon="34.6820885036"><ele>155.00</ele><time>2026-08-16T09:00:08Z</time></trkpt><trkpt lat="59.3114669994" lon="34.6818673052"><ele>153.51</ele><time>2026-08-16T09:00:18Z</time></trkpt><trkpt lat="59.3115691748" lon="34.6814581845"><ele>150.36</ele><time>2026-08-16T09:00:34Z</time></trkpt><trkpt lat="59.3116575200" lon="34.6812700108"><ele>149.14</ele><time>2026-08-16T09:00:47Z</time></trkpt><trkpt lat="59.3116682488" lon="34.6810896322"><ele>150.12</ele><time>2026-08-16T09:00:56Z</time></trkpt><trkpt lat="59.3116294406" lon="34.6809981856"><ele>154.02</ele><time>2026-08-16T09:01:16Z</time></trkpt><trkpt lat="59.3116463721" lon="34.6809733752"><ele>157.61</ele><time>2026-08-16T09:01:30Z</time></trkpt><trkpt lat="59.3116961606" lon="34.6809066553"><ele>160.19</ele><time>2026-08-16T09:01:51Z</time></trkpt><trkpt lat="59.3117473740" lon="34.6806566231"><ele>159.81</ele><time>2026-08-16T09:02:07Z</time></trkpt><trkpt lat="59.3117989227" lon="34.6803665254"><ele>158.35</ele><time>2026-08-16T09:02:20Z</time></trkpt><trkpt lat="59.3118341267" lon="34.6801046748"><ele>157.49</ele><time>2026-08-16T09:02:36Z</time></trkpt><trkpt lat="59.3118399102" lon="34.6799187642"><ele>157.77</ele><time>2026-08-16T09:02:51Z</time></trkpt><trkpt lat="59.3118337914" lon="34.6797497850"><ele>157.42</ele><time>2026-08-16T09:03:05Z</time></trkpt><trkpt lat="59.3118627090" lon="34.6795693226"><ele>157.14</ele><time>2026-08-16T09:03:17Z</time></trkpt><trkpt lat="59.3118467834" lon="34.6792811528"><ele>157.34</ele><time>2026-08-16T09:03:27Z</time></trkpt><trkpt lat="59.3118095677" lon="34.6791104972"><ele>156.98</ele><time>2026-08-16T09:03:39Z</time></trkpt><trkpt lat="59.3118101545" lon="34.6792579349"><ele>158.43</ele><time>2026-08-16T09:03:53Z</time></trkpt><trkpt lat="59.3118055444" lon="34.6793902852"><ele>158.56</ele><time>2026-08-16T09:03:59Z</time></trkpt><trkpt lat="59.3118205480" lon="34.6796894353"><ele>158.66</ele><time>2026-08-16T09:04:12Z</time></trkpt><trkpt lat="59.3118275050" lon="34.6798267309"><ele>158.65</ele><time>2026-08-16T09:04:25Z</time></trkpt><trkpt lat="59.3118332885" lon="34.6798625216"><ele>161.80</ele><time>2026-08-16T09:04:45Z</time></trkpt><trkpt lat="59.3118564226" lon="34.6798341069"><ele>164.20</ele><time>2026-08-16T09:05:09Z</time></trkpt><trkpt lat="59.3118255772" lon="34.6798404772"><ele>165.01</ele><time>2026-08-16T09:05:30Z</time></trkpt><trkpt lat="59.3118653912" lon="34.6797719970"><ele>166.31</ele><time>2026-08-16T09:05:53Z</time></trkpt><trkpt lat="59.3118702527" lon="34.6798315924"><ele>167.30</ele><time>2026-08-16T09:06:14Z</time></trkpt><trkpt lat="59.3118528184" lon="34.6797908563"><ele>167.56</ele><time>2026-08-16T09:06:34Z</time></trkpt><trkpt lat="59.3118394911" lon="34.6798479371"><ele>169.30</ele><time>2026-08-16T09:06:55Z</time></trkpt><trkpt lat="59.3117988389" lon="34.6798313409"><ele>168.66</ele><time>2026-08-16T09:07:13Z</time></trkpt><trkpt lat="59.3117923010" lon="34.6797627769"><ele>167.96</ele><time>2026-08-16T09:07:30Z</time></trkpt><trkpt lat="59.3117926363" lon="34.6797642857"><ele>168.49</ele><time>2026-08-16T09:07:37Z</time></trkpt><trkpt lat="59.3118156865" lon="34.6797439177"><ele>167.48</ele><time>2026-08-16T09:08:03Z</time></trkpt><trkpt lat="59.3118635472" lon="34.6797837317"><ele>167.60</ele><time>2026-08-16T09:08:24Z</time></trkpt><trkpt lat="59.3118499685" lon="34.6798513737"><ele>167.14</ele><time>2026-08-16T09:08:40Z</time></trkpt><trkpt lat="59.3118530698" lon="34.6798876673"><ele>167.61</ele><time>2026-08-16T09:09:01Z</time></trkpt><trkpt lat="59.3118435144" lon="34.6798360348"><ele>167.56</ele><time>2026-08-16T09:09:10Z</time></trkpt><trkpt lat="59.3117990065" lon="34.6797401458"><ele>169.16</ele><time>2026-08-16T09:09:36Z</time></trkpt><trkpt lat="59.3118303549" lon="34.6797342785"><ele>169.09</ele><time>2026-08-16T09:09:57Z</time></trkpt><trkpt lat="59.3118157703" lon="34.6797054447"><ele>169.01</ele><time>2026-08-16T09:10:15Z</time></trkpt><trkpt lat="59.3118017726" lon="34.6797579993"><ele>168.34</ele><time>2026-08-16T09:10:45Z</time></trkpt><trkpt lat="59.3117853440" lon="34.6797501203"><ele>168.23</ele><time>2026-08-16T09:11:01Z</time></trkpt><trkpt lat="59.3117876071" lon="34.6797389723"><ele>167.91</ele><time>2026-08-16T09:11:18Z</time></trkpt><trkpt lat="59.3117762916" lon="34.6797929518"><ele>167.27</ele><time>2026-08-16T09:11:36Z</time></trkpt><trkpt lat="59.3117713463" lon="34.6796834841"><ele>167.28</ele><time>2026-08-16T09:11:49Z</time></trkpt><trkpt lat="59.3118037004" lon="34.6794724278"><ele>166.90</ele><time>2026-08-16T09:12:01Z</time></trkpt><trkpt lat="59.3117983360" lon="34.6791019477"><ele>166.32</ele><time>2026-08-16T09:12:17Z</time></trkpt><trkpt lat="59.3117991742" lon="34.6789633948"><ele>165.34</ele><time>2026-08-16T09:12:27Z</time></trkpt><trkpt lat="59.3118126690" lon="34.6786819305"><ele>162.62</ele><time>2026-08-16T09:12:42Z</time></trkpt><trkpt lat="59.3118468672" lon="34.6785215009"><ele>162.33</ele><time>2026-08-16T09:12:50Z</time></trkpt><trkpt lat="59.3118713424" lon="34.6783106960"><ele>160.61</ele><time>2026-08-16T09:12:58Z</time></trkpt><trkpt lat="59.3118978292" lon="34.6781715564"><ele>160.17</ele><time>2026-08-16T09:13:03Z</time></trkpt><trkpt lat="59.3119326141" lon="34.6780620888"><ele>159.22</ele><time>2026-08-16T09:13:12Z</time></trkpt><trkpt lat="59.3119212147" lon="34.6781209297"><ele>159.17</ele><time>2026-08-16T09:13:16Z</time></trkpt><trkpt lat="59.3118987512" lon="34.6782093588"><ele>159.53</ele><time>2026-08-16T09:13:28Z</time></trkpt><trkpt lat="59.3119031098" lon="34.6781383641"><ele>161.58</ele><time>2026-08-16T09:13:51Z</time></trkpt><trkpt lat="59.3119150121" lon="34.6781316586"><ele>162.59</ele><time>2026-08-16T09:14:07Z</time></trkpt><trkpt lat="59.3119099829" lon="34.6780517790"><ele>163.12</ele><time>2026-08-16T09:14:26Z</time></trkpt><trkpt lat="59.3119178619" lon="34.6780144796"><ele>162.49</ele><time>2026-08-16T09:14:28Z</time></trkpt><trkpt lat="59.3119652197" lon="34.6777953766"><ele>155.93</ele><time>2026-08-16T09:14:40Z</time></trkpt><trkpt lat="59.3119686563" lon="34.6777276509"><ele>155.22</ele><time>2026-08-16T09:14:44Z</time></trkpt><trkpt lat="59.3120007589" lon="34.6776090469"><ele>153.56</ele><time>2026-08-16T09:14:57Z</time></trkpt><trkpt lat="59.3119969033" lon="34.6775372140"><ele>153.98</ele><time>2026-08-16T09:15:12Z</time></trkpt><trkpt lat="59.3120523915" lon="34.6775119007"><ele>153.76</ele><time>2026-08-16T09:15:34Z</time></trkpt><trkpt lat="59.3120979052" lon="34.6774607711"><ele>154.00</ele><time>2026-08-16T09:15:53Z</time></trkpt><trkpt lat="59.3121008389" lon="34.6774282493"><ele>153.96</ele><time>2026-08-16T09:15:54Z</time></trkpt><trkpt lat="59.3121176027" lon="34.6772613656"><ele>152.44</ele><time>2026-08-16T09:16:04Z</time></trkpt><trkpt lat="59.3121141661" lon="34.6772394888"><ele>151.97</ele><time>2026-08-16T09:16:05Z</time></trkpt><trkpt lat="59.3121054489" lon="34.6770414244"><ele>151.38</ele><time>2026-08-16T09:16:13Z</time></trkpt><trkpt lat="59.3121080473" lon="34.6769926418"><ele>151.16</ele><time>2026-08-16T09:16:15Z</time></trkpt><trkpt lat="59.3121090531" lon="34.6769444458"><ele>151.06</ele><time>2026-08-16T09:16:17Z</time></trkpt><trkpt lat="59.3121086340" lon="34.6769160312"><ele>150.96</ele><time>2026-08-16T09:16:18Z</time></trkpt><trkpt lat="59.3121072091" lon="34.6768936515"><ele>150.86</ele><time>2026-08-16T09:16:19Z</time></trkpt><trkpt lat="59.3121118192" lon="34.6768614650"><ele>150.79</ele><time>2026-08-16T09:16:20Z</time></trkpt><trkpt lat="59.3121206202" lon="34.6768006124"><ele>150.56</ele><time>2026-08-16T09:16:22Z</time></trkpt><trkpt lat="59.3121265713" lon="34.6767619718"><ele>150.49</ele><time>2026-08-16T09:16:23Z</time></trkpt><trkpt lat="59.3121305108" lon="34.6767258458"><ele>150.26</ele><time>2026-08-16T09:16:24Z</time></trkpt><trkpt lat="59.3121657986" lon="34.6765716188"><ele>148.52</ele><time>2026-08-16T09:16:31Z</time></trkpt><trkpt lat="59.3122124858" lon="34.6763665136"><ele>146.17</ele><time>2026-08-16T09:16:39Z</time></trkpt><trkpt lat="59.3122201972" lon="34.6763212513"><ele>145.62</ele><time>2026-08-16T09:16:40Z</time></trkpt><trkpt lat="59.3122406490" lon="34.6762769949"><ele>144.71</ele><time>2026-08-16T09:16:42Z</time></trkpt><trkpt lat="59.3122537248" lon="34.6762652602"><ele>144.51</ele><time>2026-08-16T09:16:43Z</time></trkpt><trkpt lat="59.3122612685" lon="34.6762515139"><ele>144.18</ele><time>2026-08-16T09:16:44Z</time></trkpt><trkpt lat="59.3122973945" lon="34.6761143859"><ele>143.37</ele><time>2026-08-16T09:16:55Z</time></trkpt><trkpt lat="59.3122893479" lon="34.6760617476"><ele>143.93</ele><time>2026-08-16T09:16:56Z</time></trkpt><trkpt lat="59.3122460973" lon="34.6759734023"><ele>148.61</ele><time>2026-08-16T09:17:11Z</time></trkpt><trkpt lat="59.3122548144" lon="34.6759648528"><ele>153.28</ele><time>2026-08-16T09:17:29Z</time></trkpt><trkpt lat="59.3123568222" lon="34.6759705525"><ele>150.87</ele><time>2026-08-16T09:17:41Z</time></trkpt><trkpt lat="59.3124754261" lon="34.6759429760"><ele>146.99</ele><time>2026-08-16T09:17:51Z</time></trkpt><trkpt lat="59.3124900945" lon="34.6759293135"><ele>146.75</ele><time>2026-08-16T09:17:52Z</time></trkpt><trkpt lat="59.3126029149" lon="34.6758485958"><ele>143.09</ele><time>2026-08-16T09:18:02Z</time></trkpt><trkpt lat="59.3126615882" lon="34.6758397110"><ele>142.05</ele><time>2026-08-16T09:18:07Z</time></trkpt><trkpt lat="59.3127564713" lon="34.6758237015"><ele>142.28</ele><time>2026-08-16T09:18:18Z</time></trkpt><trkpt lat="59.3128018174" lon="34.6757651120"><ele>146.61</ele><time>2026-08-16T09:18:36Z</time></trkpt><trkpt lat="59.3127826229" lon="34.6757977176"><ele>147.39</ele><time>2026-08-16T09:18:41Z</time></trkpt><trkpt lat="59.3127225246" lon="34.6758144815"><ele>147.35</ele><time>2026-08-16T09:18:46Z</time></trkpt><trkpt lat="59.3126582354" lon="34.6758347657"><ele>146.46</ele><time>2026-08-16T09:18:52Z</time></trkpt><trkpt lat="59.3125617597" lon="34.6759271342"><ele>142.80</ele><time>2026-08-16T09:19:02Z</time></trkpt><trkpt lat="59.3124923576" lon="34.6759412996"><ele>142.77</ele><time>2026-08-16T09:19:07Z</time></trkpt><trkpt lat="59.3124440778" lon="34.6759382822"><ele>142.67</ele><time>2026-08-16T09:19:11Z</time></trkpt><trkpt lat="59.3123017531" lon="34.6759465802"><ele>142.24</ele><time>2026-08-16T09:19:22Z</time></trkpt><trkpt lat="59.3122168444" lon="34.6758357715"><ele>140.63</ele><time>2026-08-16T09:19:34Z</time></trkpt><trkpt lat="59.3122098036" lon="34.6758539602"><ele>142.61</ele><time>2026-08-16T09:19:49Z</time></trkpt><trkpt lat="59.3122514617" lon="34.6759578958"><ele>143.26</ele><time>2026-08-16T09:19:59Z</time></trkpt><trkpt lat="59.3122771103" lon="34.6760261245"><ele>145.46</ele><time>2026-08-16T09:20:10Z</time></trkpt><trkpt lat="59.3122714106" lon="34.6760130487"><ele>149.51</ele><time>2026-08-16T09:20:27Z</time></trkpt><trkpt lat="59.3122571614" lon="34.6759969555"><ele>151.45</ele><time>2026-08-16T09:20:43Z</time></trkpt><trkpt lat="59.3122581672" lon="34.6759800240"><ele>150.77</ele><time>2026-08-16T09:21:02Z</time></trkpt><trkpt lat="59.3122851569" lon="34.6758894995"><ele>150.52</ele><time>2026-08-16T09:21:07Z</time></trkpt><trkpt lat="59.3123296648" lon="34.6758092009"><ele>149.55</ele><time>2026-08-16T09:21:12Z</time></trkpt><trkpt lat="59.3124037609" lon="34.6756343544"><ele>145.15</ele><time>2026-08-16T09:21:25Z</time></trkpt><trkpt lat="59.3125532940" lon="34.6752972342"><ele>139.49</ele><time>2026-08-16T09:21:44Z</time></trkpt><trkpt lat="59.3126613367" lon="34.6750425920"><ele>133.13</ele><time>2026-08-16T09:21:58Z</time></trkpt><trkpt lat="59.3127599917" lon="34.6747834235"><ele>133.82</ele><time>2026-08-16T09:22:12Z</time></trkpt><trkpt lat="59.3128246162" lon="34.6744411904"><ele>130.09</ele><time>2026-08-16T09:22:28Z</time></trkpt><trkpt lat="59.3128308188" lon="34.6744222473"><ele>130.32</ele><time>2026-08-16T09:22:29Z</time></trkpt><trkpt lat="59.3128632568" lon="34.6741267852"><ele>128.35</ele><time>2026-08-16T09:22:41Z</time></trkpt><trkpt lat="59.3128733151" lon="34.6740515996"><ele>129.47</ele><time>2026-08-16T09:22:44Z</time></trkpt><trkpt lat="59.3128977902" lon="34.6738397051"><ele>125.88</ele><time>2026-08-16T09:22:54Z</time></trkpt><trkpt lat="59.3129127100" lon="34.6735566482"><ele>128.57</ele><time>2026-08-16T09:23:07Z</time></trkpt><trkpt lat="59.3129517697" lon="34.6731568314"><ele>133.44</ele><time>2026-08-16T09:23:21Z</time></trkpt><trkpt lat="59.3129531946" lon="34.6727980860"><ele>136.73</ele><time>2026-08-16T09:23:37Z</time></trkpt><trkpt lat="59.3129547033" lon="34.6724480577"><ele>134.94</ele><time>2026-08-16T09:23:51Z</time></trkpt><trkpt lat="59.3129576370" lon="34.6720716264"><ele>135.74</ele><time>2026-08-16T09:24:06Z</time></trkpt><trkpt lat="59.3129723892" lon="34.6718033217"><ele>137.12</ele><time>2026-08-16T09:24:29Z</time></trkpt><trkpt lat="59.3129500095" lon="34.6718602348"><ele>138.35</ele><time>2026-08-16T09:24:37Z</time></trkpt><trkpt lat="59.3129414599" lon="34.6719025634"><ele>143.60</ele><time>2026-08-16T09:24:58Z</time></trkpt><trkpt lat="59.3129758257" lon="34.6718901582"><ele>146.99</ele><time>2026-08-16T09:25:17Z</time></trkpt><trkpt lat="59.3129795138" lon="34.6718086023"><ele>147.75</ele><time>2026-08-16T09:25:22Z</time></trkpt><trkpt lat="59.3130299728" lon="34.6715753339"><ele>146.76</ele><time>2026-08-16T09:25:33Z</time></trkpt><trkpt lat="59.3130775820" lon="34.6712981444"><ele>146.82</ele><time>2026-08-16T09:25:43Z</time></trkpt><trkpt lat="59.3130925018" lon="34.6711961366"><ele>147.07</ele><time>2026-08-16T09:25:47Z</time></trkpt><trkpt lat="59.3131169770" lon="34.6711102221"><ele>146.43</ele><time>2026-08-16T09:25:51Z</time></trkpt><trkpt lat="59.3131610658" lon="34.6710082144"><ele>145.84</ele><time>2026-08-16T09:25:56Z</time></trkpt><trkpt lat="59.3131744768" lon="34.6709435899"><ele>145.30</ele><time>2026-08-16T09:25:59Z</time></trkpt><trkpt lat="59.3132539373" lon="34.6706693340"><ele>139.88</ele><time>2026-08-16T09:26:13Z</time></trkpt><trkpt lat="59.3133263569" lon="34.6704731975"><ele>136.30</ele><time>2026-08-16T09:26:23Z</time></trkpt><trkpt lat="59.3133393489" lon="34.6703685913"><ele>135.03</ele><time>2026-08-16T09:26:27Z</time></trkpt><trkpt lat="59.3134238385" lon="34.6701741312"><ele>132.22</ele><time>2026-08-16T09:26:39Z</time></trkpt><trkpt lat="59.3135041371" lon="34.6699924953"><ele>128.89</ele><time>2026-08-16T09:26:49Z</time></trkpt><trkpt lat="59.3135673366" lon="34.6697687823"><ele>127.39</ele><time>2026-08-16T09:26:59Z</time></trkpt><trkpt lat="59.3135768082" lon="34.6697265375"><ele>126.87</ele><time>2026-08-16T09:27:01Z</time></trkpt><trkpt lat="59.3136048876" lon="34.6694864798"><ele>130.82</ele><time>2026-08-16T09:27:14Z</time></trkpt><trkpt lat="59.3136724457" lon="34.6693012398"><ele>131.85</ele><time>2026-08-16T09:27:24Z</time></trkpt><trkpt lat="59.3136922270" lon="34.6692725737"><ele>131.62</ele><time>2026-08-16T09:27:26Z</time></trkpt><trkpt lat="59.3137480505" lon="34.6691103838"><ele>129.49</ele><time>2026-08-16T09:27:38Z</time></trkpt><trkpt lat="59.3137584440" lon="34.6689916961"><ele>129.40</ele><time>2026-08-16T09:27:42Z</time></trkpt><trkpt lat="59.3137614615" lon="34.6689442545"><ele>129.38</ele><time>2026-08-16T09:27:44Z</time></trkpt><trkpt lat="59.3137969170" lon="34.6688338649"><ele>128.91</ele><time>2026-08-16T09:27:48Z</time></trkpt><trkpt lat="59.3139198795" lon="34.6687289234"><ele>131.52</ele><time>2026-08-16T09:28:00Z</time></trkpt><trkpt lat="59.3139467854" lon="34.6687271632"><ele>132.41</ele><time>2026-08-16T09:28:03Z</time></trkpt><trkpt lat="59.3139547482" lon="34.6686860081"><ele>133.79</ele><time>2026-08-16T09:28:06Z</time></trkpt><trkpt lat="59.3139753677" lon="34.6684539132"><ele>134.67</ele><time>2026-08-16T09:28:17Z</time></trkpt><trkpt lat="59.3140398245" lon="34.6683393326"><ele>137.34</ele><time>2026-08-16T09:28:28Z</time></trkpt><trkpt lat="59.3140422553" lon="34.6683158632"><ele>142.15</ele><time>2026-08-16T09:28:47Z</time></trkpt><trkpt lat="59.3140270002" lon="34.6682537533"><ele>146.58</ele><time>2026-08-16T09:29:04Z</time></trkpt><trkpt lat="59.3140340410" lon="34.6682251710"><ele>149.67</ele><time>2026-08-16T09:29:22Z</time></trkpt><trkpt lat="59.3140355498" lon="34.6682281885"><ele>151.44</ele><time>2026-08-16T09:29:36Z</time></trkpt><trkpt lat="59.3140499666" lon="34.6682357322"><ele>153.23</ele><time>2026-08-16T09:29:54Z</time></trkpt><trkpt lat="59.3140812311" lon="34.6682544239"><ele>153.45</ele><time>2026-08-16T09:29:59Z</time></trkpt><trkpt lat="59.3141619489" lon="34.6682525799"><ele>154.63</ele><time>2026-08-16T09:30:13Z</time></trkpt><trkpt lat="59.3142444268" lon="34.6680992749"><ele>153.53</ele><time>2026-08-16T09:30:25Z</time></trkpt><trkpt lat="59.3142959755" lon="34.6680041403"><ele>150.99</ele><time>2026-08-16T09:30:36Z</time></trkpt><trkpt lat="59.3143395614" lon="34.6678614803"><ele>148.30</ele><time>2026-08-16T09:30:50Z</time></trkpt><trkpt lat="59.3143580016" lon="34.6678863745"><ele>149.87</ele><time>2026-08-16T09:31:03Z</time></trkpt><trkpt lat="59.3144111428" lon="34.6677415352"><ele>150.62</ele><time>2026-08-16T09:31:17Z</time></trkpt><trkpt lat="59.3144330196" lon="34.6676993743"><ele>150.29</ele><time>2026-08-16T09:31:20Z</time></trkpt><trkpt lat="59.3145074509" lon="34.6675225999"><ele>148.04</ele><time>2026-08-16T09:31:32Z</time></trkpt><trkpt lat="59.3145357817" lon="34.6674459893"><ele>147.80</ele><time>2026-08-16T09:31:41Z</time></trkpt><trkpt lat="59.3146410584" lon="34.6672963724"><ele>146.52</ele><time>2026-08-16T09:31:52Z</time></trkpt><trkpt lat="59.3146601692" lon="34.6672352683"><ele>145.59</ele><time>2026-08-16T09:31:55Z</time></trkpt><trkpt lat="59.3146745022" lon="34.6671849769"><ele>144.87</ele><time>2026-08-16T09:31:58Z</time></trkpt><trkpt lat="59.3146948703" lon="34.6671382897"><ele>143.80</ele><time>2026-08-16T09:32:01Z</time></trkpt><trkpt lat="59.3147012405" lon="34.6670004074"><ele>142.71</ele><time>2026-08-16T09:32:10Z</time></trkpt><trkpt lat="59.3147771806" lon="34.6668314282"><ele>139.54</ele><time>2026-08-16T09:32:23Z</time></trkpt><trkpt lat="59.3148929346" lon="34.6666450147"><ele>138.75</ele><time>2026-08-16T09:32:39Z</time></trkpt><trkpt lat="59.3149225228" lon="34.6666423324"><ele>138.06</ele><time>2026-08-16T09:32:42Z</time></trkpt><trkpt lat="59.3150836229" lon="34.6665984951"><ele>139.49</ele><time>2026-08-16T09:32:56Z</time></trkpt><trkpt lat="59.3152428791" lon="34.6665940527"><ele>142.23</ele><time>2026-08-16T09:33:09Z</time></trkpt><trkpt lat="59.3153807614" lon="34.6665588487"><ele>144.08</ele><time>2026-08-16T09:33:21Z</time></trkpt><trkpt lat="59.3154210784" lon="34.6665111557"><ele>147.54</ele><time>2026-08-16T09:33:32Z</time></trkpt><trkpt lat="59.3154121097" lon="34.6664802264"><ele>151.12</ele><time>2026-08-16T09:34:03Z</time></trkpt><trkpt lat="59.3154199887" lon="34.6664902009"><ele>152.78</ele><time>2026-08-16T09:34:19Z</time></trkpt><trkpt lat="59.3154386804" lon="34.6664912067"><ele>152.85</ele><time>2026-08-16T09:34:21Z</time></trkpt><trkpt lat="59.3156404328" lon="34.6664066333"><ele>152.85</ele><time>2026-08-16T09:34:37Z</time></trkpt><trkpt lat="59.3158135191" lon="34.6663063020"><ele>153.88</ele><time>2026-08-16T09:34:51Z</time></trkpt><trkpt lat="59.3159514014" lon="34.6662551723"><ele>154.42</ele><time>2026-08-16T09:35:03Z</time></trkpt><trkpt lat="59.3160451110" lon="34.6661964152"><ele>153.38</ele><time>2026-08-16T09:35:12Z</time></trkpt><trkpt lat="59.3161332048" lon="34.6660967544"><ele>154.41</ele><time>2026-08-16T09:35:23Z</time></trkpt><trkpt lat="59.3161785509" lon="34.6659323853"><ele>154.35</ele><time>2026-08-16T09:35:39Z</time></trkpt><trkpt lat="59.3162087258" lon="34.6658723708"><ele>154.37</ele><time>2026-08-16T09:35:43Z</time></trkpt><trkpt lat="59.3163118232" lon="34.6656183153"><ele>152.46</ele><time>2026-08-16T09:35:57Z</time></trkpt><trkpt lat="59.3163602706" lon="34.6653329115"><ele>151.04</ele><time>2026-08-16T09:36:10Z</time></trkpt><trkpt lat="59.3163870927" lon="34.6650611702"><ele>148.64</ele><time>2026-08-16T09:36:23Z</time></trkpt><trkpt lat="59.3163946364" lon="34.6649833862"><ele>147.78</ele><time>2026-08-16T09:36:27Z</time></trkpt><trkpt lat="59.3163954746" lon="34.6647702344"><ele>145.51</ele><time>2026-08-16T09:36:37Z</time></trkpt><trkpt lat="59.3164145853" lon="34.6644941345"><ele>146.17</ele><time>2026-08-16T09:36:48Z</time></trkpt><trkpt lat="59.3164237216" lon="34.6642851736"><ele>146.94</ele><time>2026-08-16T09:36:59Z</time></trkpt><trkpt lat="59.3164129090" lon="34.6639436111"><ele>146.42</ele><time>2026-08-16T09:37:12Z</time></trkpt><trkpt lat="59.3164034374" lon="34.6638496500"><ele>145.97</ele><time>2026-08-16T09:37:17Z</time></trkpt><trkpt lat="59.3163812254" lon="34.6634992864"><ele>145.54</ele><time>2026-08-16T09:37:31Z</time></trkpt><trkpt lat="59.3163559120" lon="34.6632337477"><ele>148.01</ele><time>2026-08-16T09:37:41Z</time></trkpt><trkpt lat="59.3163384777" lon="34.6631906647"><ele>149.23</ele><time>2026-08-16T09:37:50Z</time></trkpt><trkpt lat="59.3163467757" lon="34.6631376073"><ele>149.52</ele><time>2026-08-16T09:38:10Z</time></trkpt><trkpt lat="59.3163367175" lon="34.6630506869"><ele>149.59</ele><time>2026-08-16T09:38:14Z</time></trkpt><trkpt lat="59.3162917905" lon="34.6626906842"><ele>151.14</ele><time>2026-08-16T09:38:31Z</time></trkpt><trkpt lat="59.3162575923" lon="34.6624772809"><ele>151.71</ele><time>2026-08-16T09:38:41Z</time></trkpt><trkpt lat="59.3162273336" lon="34.6623082180"><ele>154.25</ele><time>2026-08-16T09:38:52Z</time></trkpt><trkpt lat="59.3161796406" lon="34.6620913781"><ele>153.69</ele><time>2026-08-16T09:39:05Z</time></trkpt><trkpt lat="59.3161757011" lon="34.6620099060"><ele>154.73</ele><time>2026-08-16T09:39:17Z</time></trkpt><trkpt lat="59.3161666486" lon="34.6619479638"><ele>154.90</ele><time>2026-08-16T09:39:21Z</time></trkpt><trkpt lat="59.3162116595" lon="34.6618048847"><ele>155.80</ele><time>2026-08-16T09:39:31Z</time></trkpt><trkpt lat="59.3162821513" lon="34.6617164556"><ele>157.19</ele><time>2026-08-16T09:39:42Z</time></trkpt><trkpt lat="59.3163466081" lon="34.6616794076"><ele>156.98</ele><time>2026-08-16T09:39:54Z</time></trkpt><trkpt lat="59.3163820636" lon="34.6617425233"><ele>158.36</ele><time>2026-08-16T09:40:07Z</time></trkpt><trkpt lat="59.3164098915" lon="34.6617294475"><ele>159.19</ele><time>2026-08-16T09:40:17Z</time></trkpt><trkpt lat="59.3164112326" lon="34.6617195569"><ele>159.87</ele><time>2026-08-16T09:40:30Z</time></trkpt><trkpt lat="59.3164082151" lon="34.6617176291"><ele>160.32</ele><time>2026-08-16T09:40:42Z</time></trkpt><trkpt lat="59.3164094724" lon="34.6617118455"><ele>159.94</ele><time>2026-08-16T09:41:04Z</time></trkpt><trkpt lat="59.3164183572" lon="34.6617322974"><ele>159.89</ele><time>2026-08-16T09:41:19Z</time></trkpt><trkpt lat="59.3164091371" lon="34.6617296152"><ele>159.28</ele><time>2026-08-16T09:41:33Z</time></trkpt><trkpt lat="59.3164155912" lon="34.6617299505"><ele>160.16</ele><time>2026-08-16T09:41:52Z</time></trkpt><trkpt lat="59.3163959775" lon="34.6617413498"><ele>159.85</ele><time>2026-08-16T09:42:09Z</time></trkpt><trkpt lat="59.3163564149" lon="34.6617222391"><ele>159.49</ele><time>2026-08-16T09:42:17Z</time></trkpt><trkpt lat="59.3162905332" lon="34.6617193054"><ele>159.78</ele><time>2026-08-16T09:42:27Z</time></trkpt><trkpt lat="59.3161965720" lon="34.6617006976"><ele>160.00</ele><time>2026-08-16T09:42:40Z</time></trkpt><trkpt lat="59.3161440175" lon="34.6616316307"><ele>160.32</ele><time>2026-08-16T09:42:50Z</time></trkpt><trkpt lat="59.3161173631" lon="34.6615636535"><ele>160.25</ele><time>2026-08-16T09:42:55Z</time></trkpt><trkpt lat="59.3160746992" lon="34.6612065844"><ele>159.21</ele><time>2026-08-16T09:43:09Z</time></trkpt><trkpt lat="59.3160124216" lon="34.6609243657"><ele>158.35</ele><time>2026-08-16T09:43:22Z</time></trkpt><trkpt lat="59.3159133475" lon="34.6606671251"><ele>157.77</ele><time>2026-08-16T09:43:35Z</time></trkpt><trkpt lat="59.3158998527" lon="34.6605926938"><ele>158.04</ele><time>2026-08-16T09:43:43Z</time></trkpt><trkpt lat="59.3159093242" lon="34.6605426539"><ele>158.02</ele><time>2026-08-16T09:43:46Z</time></trkpt><trkpt lat="59.3158644810" lon="34.6602771152"><ele>157.70</ele><time>2026-08-16T09:43:58Z</time></trkpt><trkpt lat="59.3158503994" lon="34.6600903664"><ele>157.94</ele><time>2026-08-16T09:44:06Z</time></trkpt><trkpt lat="59.3158530816" lon="34.6600367222"><ele>158.06</ele><time>2026-08-16T09:44:10Z</time></trkpt><trkpt lat="59.3158510700" lon="34.6599026956"><ele>158.23</ele><time>2026-08-16T09:44:16Z</time></trkpt><trkpt lat="59.3158303667" lon="34.6595817525"><ele>158.68</ele><time>2026-08-16T09:44:30Z</time></trkpt><trkpt lat="59.3158548418" lon="34.6592934988"><ele>157.89</ele><time>2026-08-16T09:44:43Z</time></trkpt><trkpt lat="59.3158918899" lon="34.6590017248"><ele>157.64</ele><time>2026-08-16T09:44:56Z</time></trkpt><trkpt lat="59.3158817478" lon="34.6587254573"><ele>158.26</ele><time>2026-08-16T09:45:08Z</time></trkpt><trkpt lat="59.3158281874" lon="34.6586376987"><ele>158.52</ele><time>2026-08-16T09:45:14Z</time></trkpt><trkpt lat="59.3157256767" lon="34.6585484315"><ele>158.92</ele><time>2026-08-16T09:45:28Z</time></trkpt><trkpt lat="59.3156256806" lon="34.6584343538"><ele>159.15</ele><time>2026-08-16T09:45:40Z</time></trkpt><trkpt lat="59.3154692743" lon="34.6583299153"><ele>158.67</ele><time>2026-08-16T09:45:55Z</time></trkpt><trkpt lat="59.3153090961" lon="34.6582379658"><ele>159.16</ele><time>2026-08-16T09:46:10Z</time></trkpt><trkpt lat="59.3151651789" lon="34.6581844892"><ele>161.13</ele><time>2026-08-16T09:46:24Z</time></trkpt><trkpt lat="59.3151309807" lon="34.6581699047"><ele>161.18</ele><time>2026-08-16T09:46:35Z</time></trkpt><trkpt lat="59.3151348364" lon="34.6581664681"><ele>161.30</ele><time>2026-08-16T09:46:49Z</time></trkpt><trkpt lat="59.3151321542" lon="34.6581341140"><ele>162.06</ele><time>2026-08-16T09:47:05Z</time></trkpt><trkpt lat="59.3151261192" lon="34.6580988262"><ele>163.95</ele><time>2026-08-16T09:47:16Z</time></trkpt><trkpt lat="59.3151194137" lon="34.6580805536"><ele>164.89</ele><time>2026-08-16T09:47:29Z</time></trkpt><trkpt lat="59.3151292205" lon="34.6580917016"><ele>165.38</ele><time>2026-08-16T09:47:43Z</time></trkpt><trkpt lat="59.3151209224" lon="34.6580876783"><ele>166.15</ele><time>2026-08-16T09:47:57Z</time></trkpt><trkpt lat="59.3151322380" lon="34.6580890194"><ele>166.78</ele><time>2026-08-16T09:48:13Z</time></trkpt><trkpt lat="59.3151164800" lon="34.6581254806"><ele>167.43</ele><time>2026-08-16T09:48:27Z</time></trkpt><trkpt lat="59.3151182402" lon="34.6581122372"><ele>168.03</ele><time>2026-08-16T09:48:41Z</time></trkpt><trkpt lat="59.3151246943" lon="34.6580982395"><ele>168.33</ele><time>2026-08-16T09:49:00Z</time></trkpt><trkpt lat="59.3151378538" lon="34.6581020951"><ele>168.21</ele><time>2026-08-16T09:49:21Z</time></trkpt><trkpt lat="59.3151370157" lon="34.6581010893"><ele>168.82</ele><time>2026-08-16T09:49:41Z</time></trkpt><trkpt lat="59.3151246104" lon="34.6580960602"><ele>168.59</ele><time>2026-08-16T09:50:01Z</time></trkpt><trkpt lat="59.3151184916" lon="34.6580823138"><ele>167.39</ele><time>2026-08-16T09:50:17Z</time></trkpt><trkpt lat="59.3151174858" lon="34.6580726746"><ele>167.22</ele><time>2026-08-16T09:50:42Z</time></trkpt><trkpt lat="59.3151137140" lon="34.6580594312"><ele>166.88</ele><time>2026-08-16T09:51:06Z</time></trkpt><trkpt lat="59.3151011411" lon="34.6580535639"><ele>167.30</ele><time>2026-08-16T09:51:18Z</time></trkpt><trkpt lat="59.3151414581" lon="34.6580842417"><ele>167.09</ele><time>2026-08-16T09:51:47Z</time></trkpt><trkpt lat="59.3151490018" lon="34.6580757760"><ele>166.40</ele><time>2026-08-16T09:52:07Z</time></trkpt><trkpt lat="59.3151196651" lon="34.6580946352"><ele>166.40</ele><time>2026-08-16T09:52:26Z</time></trkpt><trkpt lat="59.3151319865" lon="34.6580791287"><ele>166.95</ele><time>2026-08-16T09:52:45Z</time></trkpt><trkpt lat="59.3151293043" lon="34.6580793802"><ele>167.83</ele><time>2026-08-16T09:53:06Z</time></trkpt><trkpt lat="59.3151336629" lon="34.6580932941"><ele>168.74</ele><time>2026-08-16T09:53:26Z</time></trkpt><trkpt lat="59.3151325732" lon="34.6580902766"><ele>168.79</ele><time>2026-08-16T09:53:48Z</time></trkpt><trkpt lat="59.3151319027" lon="34.6581222955"><ele>168.82</ele><time>2026-08-16T09:54:04Z</time></trkpt><trkpt lat="59.3151245266" lon="34.6581116505"><ele>167.50</ele><time>2026-08-16T09:54:20Z</time></trkpt><trkpt lat="59.3151288852" lon="34.6581274085"><ele>167.09</ele><time>2026-08-16T09:54:36Z</time></trkpt><trkpt lat="59.3151346687" lon="34.6581538115"><ele>165.72</ele><time>2026-08-16T09:54:50Z</time></trkpt><trkpt lat="59.3151339982" lon="34.6581692342"><ele>165.22</ele><time>2026-08-16T09:55:05Z</time></trkpt><trkpt lat="59.3151358422" lon="34.6581681445"><ele>164.55</ele><time>2026-08-16T09:55:22Z</time></trkpt><trkpt lat="59.3151891511" lon="34.6581982356"><ele>164.28</ele><time>2026-08-16T09:55:35Z</time></trkpt><trkpt lat="59.3152453937" lon="34.6581127401"><ele>163.38</ele><time>2026-08-16T09:55:45Z</time></trkpt><trkpt lat="59.3152696174" lon="34.6581108961"><ele>162.99</ele><time>2026-08-16T09:55:48Z</time></trkpt><trkpt lat="59.3153013010" lon="34.6579756960"><ele>161.69</ele><time>2026-08-16T09:56:00Z</time></trkpt><trkpt lat="59.3153647520" lon="34.6578997560"><ele>160.35</ele><time>2026-08-16T09:56:11Z</time></trkpt><trkpt lat="59.3153631594" lon="34.6577632986"><ele>159.63</ele><time>2026-08-16T09:56:22Z</time></trkpt><trkpt lat="59.3153597228" lon="34.6576146036"><ele>159.31</ele><time>2026-08-16T09:56:32Z</time></trkpt><trkpt lat="59.3153886404" lon="34.6575131826"><ele>158.75</ele><time>2026-08-16T09:56:39Z</time></trkpt><trkpt lat="59.3154323101" lon="34.6573588718"><ele>158.90</ele><time>2026-08-16T09:56:50Z</time></trkpt><trkpt lat="59.3154355790" lon="34.6572923195"><ele>158.85</ele><time>2026-08-16T09:56:54Z</time></trkpt><trkpt lat="59.3154177256" lon="34.6571953408"><ele>159.17</ele><time>2026-08-16T09:56:59Z</time></trkpt><trkpt lat="59.3154038116" lon="34.6570484899"><ele>159.06</ele><time>2026-08-16T09:57:11Z</time></trkpt><trkpt lat="59.3153982796" lon="34.6569976117"><ele>159.64</ele><time>2026-08-16T09:57:22Z</time></trkpt><trkpt lat="59.3154221680" lon="34.6570292953"><ele>160.27</ele><time>2026-08-16T09:57:35Z</time></trkpt><trkpt lat="59.3154539354" lon="34.6571793314"><ele>160.66</ele><time>2026-08-16T09:57:44Z</time></trkpt><trkpt lat="59.3154619820" lon="34.6574242506"><ele>161.09</ele><time>2026-08-16T09:57:56Z</time></trkpt><trkpt lat="59.3154698610" lon="34.6576793958"><ele>161.79</ele><time>2026-08-16T09:58:07Z</time></trkpt><trkpt lat="59.3154906482" lon="34.6578545775"><ele>162.12</ele><time>2026-08-16T09:58:17Z</time></trkpt><trkpt lat="59.3154991977" lon="34.6578847524"><ele>162.18</ele><time>2026-08-16T09:58:19Z</time></trkpt><trkpt lat="59.3154922407" lon="34.6580715850"><ele>162.84</ele><time>2026-08-16T09:58:29Z</time></trkpt><trkpt lat="59.3154918216" lon="34.6581120696"><ele>163.13</ele><time>2026-08-16T09:58:31Z</time></trkpt><trkpt lat="59.3154853676" lon="34.6583572403"><ele>164.48</ele><time>2026-08-16T09:58:45Z</time></trkpt><trkpt lat="59.3154809251" lon="34.6584270615"><ele>164.80</ele><time>2026-08-16T09:58:49Z</time></trkpt><trkpt lat="59.3156373315" lon="34.6585154906"><ele>164.12</ele><time>2026-08-16T09:59:03Z</time></trkpt><trkpt lat="59.3157409318" lon="34.6585973818"><ele>163.24</ele><time>2026-08-16T09:59:15Z</time></trkpt><trkpt lat="59.3157723639" lon="34.6586329211"><ele>163.24</ele><time>2026-08-16T09:59:20Z</time></trkpt><trkpt lat="59.3158211466" lon="34.6586470865"><ele>163.39</ele><time>2026-08-16T09:59:24Z</time></trkpt><trkpt lat="59.3159041274" lon="34.6587452386"><ele>163.78</ele><time>2026-08-16T09:59:33Z</time></trkpt><trkpt lat="59.3158873636" lon="34.6590821072"><ele>162.34</ele><time>2026-08-16T09:59:48Z</time></trkpt><trkpt lat="59.3158247508" lon="34.6595086623"><ele>161.15</ele><time>2026-08-16T10:00:06Z</time></trkpt><trkpt lat="59.3158453703" lon="34.6598125901"><ele>160.64</ele><time>2026-08-16T10:00:19Z</time></trkpt><trkpt lat="59.3158612121" lon="34.6599979140"><ele>160.34</ele><time>2026-08-16T10:00:27Z</time></trkpt><trkpt lat="59.3158583622" lon="34.6602337807"><ele>159.64</ele><time>2026-08-16T10:00:37Z</time></trkpt><trkpt lat="59.3158731144" lon="34.6603226289"><ele>158.86</ele><time>2026-08-16T10:00:41Z</time></trkpt><trkpt lat="59.3159145210" lon="34.6606750041"><ele>158.64</ele><time>2026-08-16T10:00:57Z</time></trkpt><trkpt lat="59.3159721885" lon="34.6608711407"><ele>158.76</ele><time>2026-08-16T10:01:08Z</time></trkpt><trkpt lat="59.3160366453" lon="34.6610393655"><ele>159.51</ele><time>2026-08-16T10:01:19Z</time></trkpt><trkpt lat="59.3160511460" lon="34.6611083485"><ele>159.44</ele><time>2026-08-16T10:01:23Z</time></trkpt><trkpt lat="59.3160922173" lon="34.6613271162"><ele>159.21</ele><time>2026-08-16T10:01:34Z</time></trkpt><trkpt lat="59.3161447719" lon="34.6616567764"><ele>159.21</ele><time>2026-08-16T10:01:50Z</time></trkpt><trkpt lat="59.3161938898" lon="34.6619889513"><ele>158.99</ele><time>2026-08-16T10:02:05Z</time></trkpt><trkpt lat="59.3161891121" lon="34.6620876063"><ele>158.65</ele><time>2026-08-16T10:02:16Z</time></trkpt><trkpt lat="59.3161100708" lon="34.6620957367"><ele>156.65</ele><time>2026-08-16T10:02:26Z</time></trkpt><trkpt lat="59.3161297683" lon="34.6620834153"><ele>156.73</ele><time>2026-08-16T10:02:36Z</time></trkpt><trkpt lat="59.3161378987" lon="34.6620786376"><ele>156.73</ele><time>2026-08-16T10:02:37Z</time></trkpt><trkpt lat="59.3162071332" lon="34.6621264983"><ele>156.57</ele><time>2026-08-16T10:02:44Z</time></trkpt><trkpt lat="59.3162762001" lon="34.6625043545"><ele>157.67</ele><time>2026-08-16T10:03:01Z</time></trkpt><trkpt lat="59.3163093086" lon="34.6627784427"><ele>157.64</ele><time>2026-08-16T10:03:13Z</time></trkpt><trkpt lat="59.3163311854" lon="34.6629222762"><ele>157.09</ele><time>2026-08-16T10:03:21Z</time></trkpt><trkpt lat="59.3163497094" lon="34.6631679498"><ele>156.34</ele><time>2026-08-16T10:03:35Z</time></trkpt><trkpt lat="59.3163895234" lon="34.6634091809"><ele>155.58</ele><time>2026-08-16T10:03:46Z</time></trkpt><trkpt lat="59.3164331093" lon="34.6636500768"><ele>154.76</ele><time>2026-08-16T10:03:57Z</time></trkpt><trkpt lat="59.3164394796" lon="34.6637302916"><ele>154.54</ele><time>2026-08-16T10:04:01Z</time></trkpt><trkpt lat="59.3164540641" lon="34.6638963372"><ele>153.87</ele><time>2026-08-16T10:04:09Z</time></trkpt><trkpt lat="59.3164461851" lon="34.6640691720"><ele>153.40</ele><time>2026-08-16T10:04:16Z</time></trkpt><trkpt lat="59.3164617755" lon="34.6644613612"><ele>153.12</ele><time>2026-08-16T10:04:31Z</time></trkpt><trkpt lat="59.3164722528" lon="34.6646135766"><ele>155.39</ele><time>2026-08-16T10:04:40Z</time></trkpt><trkpt lat="59.3164780363" lon="34.6646581683"><ele>155.85</ele><time>2026-08-16T10:04:42Z</time></trkpt><trkpt lat="59.3165352009" lon="34.6649748366"><ele>158.51</ele><time>2026-08-16T10:04:56Z</time></trkpt><trkpt lat="59.3166060280" lon="34.6653331630"><ele>159.56</ele><time>2026-08-16T10:05:12Z</time></trkpt><trkpt lat="59.3166200258" lon="34.6654026490"><ele>159.35</ele><time>2026-08-16T10:05:15Z</time></trkpt><trkpt lat="59.3166591693" lon="34.6657246817"><ele>157.19</ele><time>2026-08-16T10:05:30Z</time></trkpt><trkpt lat="59.3166841473" lon="34.6658872906"><ele>156.67</ele><time>2026-08-16T10:05:41Z</time></trkpt><trkpt lat="59.3167228717" lon="34.6658908948"><ele>157.81</ele><time>2026-08-16T10:05:53Z</time></trkpt><trkpt lat="59.3167426530" lon="34.6658499073"><ele>161.83</ele><time>2026-08-16T10:06:18Z</time></trkpt><trkpt lat="59.3167143222" lon="34.6658255160"><ele>161.99</ele><time>2026-08-16T10:06:33Z</time></trkpt><trkpt lat="59.3166686408" lon="34.6659570280"><ele>160.25</ele><time>2026-08-16T10:06:58Z</time></trkpt><trkpt lat="59.3166862428" lon="34.6662249137"><ele>158.82</ele><time>2026-08-16T10:07:14Z</time></trkpt><trkpt lat="59.3166849017" lon="34.6662389114"><ele>158.90</ele><time>2026-08-16T10:07:15Z</time></trkpt><trkpt lat="59.3167246319" lon="34.6664570086"><ele>158.77</ele><time>2026-08-16T10:07:26Z</time></trkpt><trkpt lat="59.3167348579" lon="34.6666409075"><ele>159.49</ele><time>2026-08-16T10:07:33Z</time></trkpt><trkpt lat="59.3167833891" lon="34.6669382136"><ele>160.89</ele><time>2026-08-16T10:07:45Z</time></trkpt><trkpt lat="59.3168063555" lon="34.6672300715"><ele>163.18</ele><time>2026-08-16T10:07:59Z</time></trkpt><trkpt lat="59.3168157432" lon="34.6674416307"><ele>164.83</ele><time>2026-08-16T10:08:10Z</time></trkpt><trkpt lat="59.3168185093" lon="34.6674604900"><ele>164.86</ele><time>2026-08-16T10:08:11Z</time></trkpt><trkpt lat="59.3168196827" lon="34.6675573010"><ele>166.02</ele><time>2026-08-16T10:08:16Z</time></trkpt><trkpt lat="59.3168261368" lon="34.6676844545"><ele>166.24</ele><time>2026-08-16T10:08:22Z</time></trkpt><trkpt lat="59.3168436550" lon="34.6679138672"><ele>166.76</ele><time>2026-08-16T10:08:35Z</time></trkpt><trkpt lat="59.3168413080" lon="34.6679541003"><ele>166.72</ele><time>2026-08-16T10:08:37Z</time></trkpt><trkpt lat="59.3168501928" lon="34.6681400109"><ele>165.40</ele><time>2026-08-16T10:08:46Z</time></trkpt><trkpt lat="59.3168757576" lon="34.6684226487"><ele>163.30</ele><time>2026-08-16T10:08:59Z</time></trkpt><trkpt lat="59.3168895040" lon="34.6686424222"><ele>163.14</ele><time>2026-08-16T10:09:09Z</time></trkpt><trkpt lat="59.3169061001" lon="34.6689172648"><ele>164.13</ele><time>2026-08-16T10:09:21Z</time></trkpt><trkpt lat="59.3169366103" lon="34.6690788679"><ele>164.73</ele><time>2026-08-16T10:09:30Z</time></trkpt><trkpt lat="59.3169417232" lon="34.6694500186"><ele>162.48</ele><time>2026-08-16T10:09:47Z</time></trkpt><trkpt lat="59.3169389572" lon="34.6695951931"><ele>162.05</ele><time>2026-08-16T10:09:53Z</time></trkpt><trkpt lat="59.3169181701" lon="34.6698615700"><ele>161.55</ele><time>2026-08-16T10:10:03Z</time></trkpt><trkpt lat="59.3169088662" lon="34.6701017953"><ele>162.18</ele><time>2026-08-16T10:10:14Z</time></trkpt><trkpt lat="59.3169043399" lon="34.6702505741"><ele>162.36</ele><time>2026-08-16T10:10:24Z</time></trkpt><trkpt lat="59.3169126380" lon="34.6704785619"><ele>163.09</ele><time>2026-08-16T10:10:36Z</time></trkpt><trkpt lat="59.3169232830" lon="34.6706679929"><ele>164.26</ele><time>2026-08-16T10:10:48Z</time></trkpt><trkpt lat="59.3169192597" lon="34.6706776321"><ele>164.56</ele><time>2026-08-16T10:11:00Z</time></trkpt><trkpt lat="59.3169222772" lon="34.6706929710"><ele>165.01</ele><time>2026-08-16T10:11:18Z</time></trkpt><trkpt lat="59.3169208523" lon="34.6706975810"><ele>164.38</ele><time>2026-08-16T10:11:30Z</time></trkpt><trkpt lat="59.3169115484" lon="34.6707083099"><ele>164.42</ele><time>2026-08-16T10:11:36Z</time></trkpt><trkpt lat="59.3169309944" lon="34.6706945635"><ele>165.05</ele><time>2026-08-16T10:11:51Z</time></trkpt><trkpt lat="59.3169351853" lon="34.6707210504"><ele>164.85</ele><time>2026-08-16T10:12:06Z</time></trkpt><trkpt lat="59.3169374485" lon="34.6708578430"><ele>164.82</ele><time>2026-08-16T10:12:14Z</time></trkpt><trkpt lat="59.3169336766" lon="34.6709134150"><ele>164.51</ele><time>2026-08-16T10:12:17Z</time></trkpt><trkpt lat="59.3169394601" lon="34.6711224597"><ele>163.98</ele><time>2026-08-16T10:12:28Z</time></trkpt><trkpt lat="59.3169537093" lon="34.6713895071"><ele>164.84</ele><time>2026-08-16T10:12:42Z</time></trkpt><trkpt lat="59.3169745803" lon="34.6716599911"><ele>165.18</ele><time>2026-08-16T10:12:56Z</time></trkpt><trkpt lat="59.3169946969" lon="34.6718650963"><ele>164.97</ele><time>2026-08-16T10:13:07Z</time></trkpt><trkpt lat="59.3170034140" lon="34.6721080039"><ele>164.21</ele><time>2026-08-16T10:13:20Z</time></trkpt><trkpt lat="59.3170029111" lon="34.6723234188"><ele>162.74</ele><time>2026-08-16T10:13:31Z</time></trkpt><trkpt lat="59.3170200940" lon="34.6725662425"><ele>162.15</ele><time>2026-08-16T10:13:45Z</time></trkpt><trkpt lat="59.3170401268" lon="34.6726005245"><ele>164.82</ele><time>2026-08-16T10:13:57Z</time></trkpt><trkpt lat="59.3170188367" lon="34.6725962497"><ele>165.92</ele><time>2026-08-16T10:14:15Z</time></trkpt><trkpt lat="59.3169913441" lon="34.6726161148"><ele>166.11</ele><time>2026-08-16T10:14:35Z</time></trkpt><trkpt lat="59.3169538770" lon="34.6726412605"><ele>167.42</ele><time>2026-08-16T10:14:50Z</time></trkpt><trkpt lat="59.3169677071" lon="34.6725865267"><ele>167.04</ele><time>2026-08-16T10:15:03Z</time></trkpt><trkpt lat="59.3170009833" lon="34.6725058090"><ele>168.20</ele><time>2026-08-16T10:15:23Z</time></trkpt><trkpt lat="59.3169840518" lon="34.6725372411"><ele>167.33</ele><time>2026-08-16T10:15:41Z</time></trkpt><trkpt lat="59.3169735745" lon="34.6725768037"><ele>168.23</ele><time>2026-08-16T10:16:48Z</time></trkpt><trkpt lat="59.3169904221" lon="34.6725933999"><ele>168.37</ele><time>2026-08-16T10:17:13Z</time></trkpt><trkpt lat="59.3169890810" lon="34.6726044640"><ele>167.98</ele><time>2026-08-16T10:17:35Z</time></trkpt><trkpt lat="59.3169757538" lon="34.6725787316"><ele>167.74</ele><time>2026-08-16T10:18:12Z</time></trkpt><trkpt lat="59.3169884942" lon="34.6725850180"><ele>168.04</ele><time>2026-08-16T10:18:49Z</time></trkpt><trkpt lat="59.3169894163" lon="34.6726032905"><ele>166.56</ele><time>2026-08-16T10:19:12Z</time></trkpt><trkpt lat="59.3170108739" lon="34.6725889575"><ele>165.59</ele><time>2026-08-16T10:19:48Z</time></trkpt><trkpt lat="59.3169992231" lon="34.6725786477"><ele>165.51</ele><time>2026-08-16T10:20:01Z</time></trkpt><trkpt lat="59.3169627618" lon="34.6725668292"><ele>165.25</ele><time>2026-08-16T10:20:22Z</time></trkpt><trkpt lat="59.3169439863" lon="34.6726031229"><ele>165.23</ele><time>2026-08-16T10:20:31Z</time></trkpt><trkpt lat="59.3169573136" lon="34.6726460382"><ele>165.63</ele><time>2026-08-16T10:20:54Z</time></trkpt><trkpt lat="59.3169904221" lon="34.6726607904"><ele>165.14</ele><time>2026-08-16T10:21:10Z</time></trkpt><trkpt lat="59.3170179147" lon="34.6726492234"><ele>166.32</ele><time>2026-08-16T10:21:28Z</time></trkpt><trkpt lat="59.3170243688" lon="34.6728119161"><ele>166.18</ele><time>2026-08-16T10:21:43Z</time></trkpt><trkpt lat="59.3169781007" lon="34.6730283368"><ele>165.75</ele><time>2026-08-16T10:21:54Z</time></trkpt><trkpt lat="59.3169086985" lon="34.6734643634"><ele>164.28</ele><time>2026-08-16T10:22:13Z</time></trkpt><trkpt lat="59.3168584071" lon="34.6739438921"><ele>162.81</ele><time>2026-08-16T10:22:34Z</time></trkpt><trkpt lat="59.3168252148" lon="34.6741694491"><ele>163.30</ele><time>2026-08-16T10:22:46Z</time></trkpt><trkpt lat="59.3167891726" lon="34.6743660048"><ele>164.45</ele><time>2026-08-16T10:23:01Z</time></trkpt><trkpt lat="59.3167605903" lon="34.6744768973"><ele>164.49</ele><time>2026-08-16T10:23:09Z</time></trkpt><trkpt lat="59.3167257216" lon="34.6744493209"><ele>164.73</ele><time>2026-08-16T10:23:12Z</time></trkpt><trkpt lat="59.3166251387" lon="34.6744227502"><ele>165.41</ele><time>2026-08-16T10:23:24Z</time></trkpt><trkpt lat="59.3166150805" lon="34.6744680125"><ele>165.69</ele><time>2026-08-16T10:23:33Z</time></trkpt><trkpt lat="59.3165590893" lon="34.6744070761"><ele>167.55</ele><time>2026-08-16T10:23:51Z</time></trkpt><trkpt lat="59.3165642861" lon="34.6744098421"><ele>168.93</ele><time>2026-08-16T10:23:57Z</time></trkpt><trkpt lat="59.3166412320" lon="34.6744748857"><ele>163.32</ele><time>2026-08-16T10:24:17Z</time></trkpt><trkpt lat="59.3167468440" lon="34.6745794080"><ele>159.59</ele><time>2026-08-16T10:24:26Z</time></trkpt><trkpt lat="59.3167710677" lon="34.6746277716"><ele>158.49</ele><time>2026-08-16T10:24:29Z</time></trkpt><trkpt lat="59.3168494385" lon="34.6748612914"><ele>155.74</ele><time>2026-08-16T10:24:41Z</time></trkpt><trkpt lat="59.3169242889" lon="34.6751097310"><ele>154.83</ele><time>2026-08-16T10:24:53Z</time></trkpt><trkpt lat="59.3169722334" lon="34.6753181890"><ele>155.10</ele><time>2026-08-16T10:25:02Z</time></trkpt><trkpt lat="59.3169908412" lon="34.6753529739"><ele>154.88</ele><time>2026-08-16T10:25:04Z</time></trkpt><trkpt lat="59.3170438148" lon="34.6755940374"><ele>155.70</ele><time>2026-08-16T10:25:17Z</time></trkpt><trkpt lat="59.3170760013" lon="34.6758486796"><ele>156.99</ele><time>2026-08-16T10:25:26Z</time></trkpt><trkpt lat="59.3170872331" lon="34.6760055050"><ele>158.21</ele><time>2026-08-16T10:25:33Z</time></trkpt><trkpt lat="59.3171009794" lon="34.6760702971"><ele>158.97</ele><time>2026-08-16T10:25:36Z</time></trkpt><trkpt lat="59.3171152286" lon="34.6761487518"><ele>159.64</ele><time>2026-08-16T10:25:40Z</time></trkpt><trkpt lat="59.3171867263" lon="34.6764688566"><ele>163.71</ele><time>2026-08-16T10:25:53Z</time></trkpt><trkpt lat="59.3172373530" lon="34.6766613051"><ele>164.12</ele><time>2026-08-16T10:26:03Z</time></trkpt><trkpt lat="59.3172987085" lon="34.6769209765"><ele>164.01</ele><time>2026-08-16T10:26:15Z</time></trkpt><trkpt lat="59.3173238542" lon="34.6770061366"><ele>164.23</ele><time>2026-08-16T10:26:20Z</time></trkpt><trkpt lat="59.3173335772" lon="34.6771229804"><ele>166.58</ele><time>2026-08-16T10:26:26Z</time></trkpt><trkpt lat="59.3173530232" lon="34.6771924663"><ele>167.35</ele><time>2026-08-16T10:26:29Z</time></trkpt><trkpt lat="59.3174178153" lon="34.6773548238"><ele>168.25</ele><time>2026-08-16T10:26:38Z</time></trkpt><trkpt lat="59.3174646702" lon="34.6774652973"><ele>168.15</ele><time>2026-08-16T10:26:44Z</time></trkpt><trkpt lat="59.3175126147" lon="34.6775616053"><ele>167.55</ele><time>2026-08-16T10:26:50Z</time></trkpt><trkpt lat="59.3175420351" lon="34.6776358690"><ele>167.36</ele><time>2026-08-16T10:26:54Z</time></trkpt><trkpt lat="59.3175709527" lon="34.6777138207"><ele>167.37</ele><time>2026-08-16T10:26:58Z</time></trkpt><trkpt lat="59.3176704459" lon="34.6778899245"><ele>172.93</ele><time>2026-08-16T10:27:08Z</time></trkpt><trkpt lat="59.3176743854" lon="34.6779049281"><ele>171.52</ele><time>2026-08-16T10:27:09Z</time></trkpt><trkpt lat="59.3176845275" lon="34.6779168304"><ele>171.52</ele><time>2026-08-16T10:27:10Z</time></trkpt><trkpt lat="59.3177526724" lon="34.6780283097"><ele>170.68</ele><time>2026-08-16T10:27:19Z</time></trkpt><trkpt lat="59.3177612219" lon="34.6780408826"><ele>170.56</ele><time>2026-08-16T10:27:20Z</time></trkpt><trkpt lat="59.3178321328" lon="34.6781146433"><ele>170.36</ele><time>2026-08-16T10:27:30Z</time></trkpt><trkpt lat="59.3178923987" lon="34.6781930141"><ele>167.90</ele><time>2026-08-16T10:27:39Z</time></trkpt><trkpt lat="59.3178978469" lon="34.6782013960"><ele>167.30</ele><time>2026-08-16T10:27:40Z</time></trkpt><trkpt lat="59.3179172091" lon="34.6782046650"><ele>167.45</ele><time>2026-08-16T10:27:41Z</time></trkpt><trkpt lat="59.3180311192" lon="34.6783218440"><ele>175.59</ele><time>2026-08-16T10:27:51Z</time></trkpt><trkpt lat="59.3180435244" lon="34.6783318184"><ele>176.33</ele><time>2026-08-16T10:27:52Z</time></trkpt><trkpt lat="59.3180536665" lon="34.6783450618"><ele>177.08</ele><time>2026-08-16T10:27:53Z</time></trkpt><trkpt lat="59.3180613779" lon="34.6783624124"><ele>177.59</ele><time>2026-08-16T10:27:54Z</time></trkpt><trkpt lat="59.3180677481" lon="34.6783783380"><ele>178.15</ele><time>2026-08-16T10:27:55Z</time></trkpt><trkpt lat="59.3180910498" lon="34.6784109436"><ele>177.88</ele><time>2026-08-16T10:28:06Z</time></trkpt><trkpt lat="59.3181029521" lon="34.6784412023"><ele>174.76</ele><time>2026-08-16T10:28:13Z</time></trkpt><trkpt lat="59.3180856016" lon="34.6784929186"><ele>172.08</ele><time>2026-08-16T10:28:17Z</time></trkpt><trkpt lat="59.3180545885" lon="34.6787341498"><ele>173.88</ele><time>2026-08-16T10:28:28Z</time></trkpt><trkpt lat="59.3179851864" lon="34.6787981037"><ele>173.61</ele><time>2026-08-16T10:28:38Z</time></trkpt><trkpt lat="59.3179056421" lon="34.6787487343"><ele>173.38</ele><time>2026-08-16T10:28:48Z</time></trkpt><trkpt lat="59.3177910615" lon="34.6787952539"><ele>172.60</ele><time>2026-08-16T10:29:00Z</time></trkpt><trkpt lat="59.3177887145" lon="34.6788194776"><ele>171.98</ele><time>2026-08-16T10:29:16Z</time></trkpt><trkpt lat="59.3177730404" lon="34.6787901409"><ele>171.56</ele><time>2026-08-16T10:29:43Z</time></trkpt><trkpt lat="59.3177564442" lon="34.6787707787"><ele>170.68</ele><time>2026-08-16T10:30:03Z</time></trkpt><trkpt lat="59.3177599646" lon="34.6787713654"><ele>171.77</ele><time>2026-08-16T10:30:12Z</time></trkpt><trkpt lat="59.3176649138" lon="34.6787871234"><ele>171.19</ele><time>2026-08-16T10:30:24Z</time></trkpt><trkpt lat="59.3176365830" lon="34.6787933260"><ele>171.03</ele><time>2026-08-16T10:30:28Z</time></trkpt><trkpt lat="59.3175351620" lon="34.6787227504"><ele>169.25</ele><time>2026-08-16T10:30:41Z</time></trkpt><trkpt lat="59.3174507562" lon="34.6786609758"><ele>168.60</ele><time>2026-08-16T10:30:52Z</time></trkpt><trkpt lat="59.3174278736" lon="34.6786442958"><ele>168.32</ele><time>2026-08-16T10:30:54Z</time></trkpt><trkpt lat="59.3173084315" lon="34.6786150429"><ele>167.41</ele><time>2026-08-16T10:31:06Z</time></trkpt><trkpt lat="59.3171692919" lon="34.6786422003"><ele>165.70</ele><time>2026-08-16T10:31:19Z</time></trkpt><trkpt lat="59.3170900829" lon="34.6786998678"><ele>164.10</ele><time>2026-08-16T10:31:29Z</time></trkpt><trkpt lat="59.3169895001" lon="34.6788003668"><ele>163.07</ele><time>2026-08-16T10:31:42Z</time></trkpt><trkpt lat="59.3168661185" lon="34.6788674220"><ele>161.00</ele><time>2026-08-16T10:31:56Z</time></trkpt><trkpt lat="59.3167786952" lon="34.6789800748"><ele>158.52</ele><time>2026-08-16T10:32:07Z</time></trkpt><trkpt lat="59.3167327624" lon="34.6790138539"><ele>157.60</ele><time>2026-08-16T10:32:10Z</time></trkpt><trkpt lat="59.3166082073" lon="34.6791938972"><ele>155.48</ele><time>2026-08-16T10:32:23Z</time></trkpt><trkpt lat="59.3165365420" lon="34.6792996768"><ele>153.62</ele><time>2026-08-16T10:32:31Z</time></trkpt><trkpt lat="59.3165064510" lon="34.6793591045"><ele>152.45</ele><time>2026-08-16T10:32:35Z</time></trkpt><trkpt lat="59.3164415751" lon="34.6794246510"><ele>151.46</ele><time>2026-08-16T10:32:41Z</time></trkpt><trkpt lat="59.3164054491" lon="34.6794568375"><ele>150.97</ele><time>2026-08-16T10:32:45Z</time></trkpt><trkpt lat="59.3163571693" lon="34.6795000043"><ele>149.97</ele><time>2026-08-16T10:32:49Z</time></trkpt><trkpt lat="59.3162893597" lon="34.6796113998"><ele>147.91</ele><time>2026-08-16T10:32:57Z</time></trkpt><trkpt lat="59.3162104860" lon="34.6797077078"><ele>145.68</ele><time>2026-08-16T10:33:09Z</time></trkpt><trkpt lat="59.3161671516" lon="34.6798057761"><ele>144.63</ele><time>2026-08-16T10:33:15Z</time></trkpt><trkpt lat="59.3160734419" lon="34.6799311694"><ele>143.82</ele><time>2026-08-16T10:33:25Z</time></trkpt><trkpt lat="59.3159942329" lon="34.6800358593"><ele>142.41</ele><time>2026-08-16T10:33:36Z</time></trkpt><trkpt lat="59.3159237411" lon="34.6800770983"><ele>141.73</ele><time>2026-08-16T10:33:45Z</time></trkpt><trkpt lat="59.3158589490" lon="34.6799898427"><ele>143.36</ele><time>2026-08-16T10:33:57Z</time></trkpt><trkpt lat="59.3158575241" lon="34.6800056007"><ele>154.90</ele><time>2026-08-16T10:34:21Z</time></trkpt><trkpt lat="59.3159061391" lon="34.6800076123"><ele>158.23</ele><time>2026-08-16T10:34:39Z</time></trkpt><trkpt lat="59.3159114197" lon="34.6800408885"><ele>161.77</ele><time>2026-08-16T10:34:52Z</time></trkpt><trkpt lat="59.3158830050" lon="34.6800408885"><ele>161.85</ele><time>2026-08-16T10:34:55Z</time></trkpt><trkpt lat="59.3157992698" lon="34.6800510306"><ele>162.34</ele><time>2026-08-16T10:35:05Z</time></trkpt><trkpt lat="59.3156692665" lon="34.6800288185"><ele>163.26</ele><time>2026-08-16T10:35:21Z</time></trkpt><trkpt lat="59.3155556917" lon="34.6800499409"><ele>163.49</ele><time>2026-08-16T10:35:35Z</time></trkpt><trkpt lat="59.3154986948" lon="34.6801056806"><ele>162.92</ele><time>2026-08-16T10:35:44Z</time></trkpt><trkpt lat="59.3153874669" lon="34.6800788585"><ele>163.03</ele><time>2026-08-16T10:35:55Z</time></trkpt><trkpt lat="59.3153598066" lon="34.6800891683"><ele>162.86</ele><time>2026-08-16T10:35:57Z</time></trkpt><trkpt lat="59.3152370956" lon="34.6801255457"><ele>161.41</ele><time>2026-08-16T10:36:10Z</time></trkpt><trkpt lat="59.3151143007" lon="34.6801726520"><ele>160.44</ele><time>2026-08-16T10:36:21Z</time></trkpt><trkpt lat="59.3150484189" lon="34.6801968757"><ele>159.83</ele><time>2026-08-16T10:36:29Z</time></trkpt><trkpt lat="59.3150117062" lon="34.6802252065"><ele>162.94</ele><time>2026-08-16T10:36:47Z</time></trkpt><trkpt lat="59.3150241114" lon="34.6802911721"><ele>164.45</ele><time>2026-08-16T10:37:05Z</time></trkpt><trkpt lat="59.3151334114" lon="34.6801820397"><ele>163.50</ele><time>2026-08-16T10:37:19Z</time></trkpt><trkpt lat="59.3152805977" lon="34.6801292337"><ele>161.40</ele><time>2026-08-16T10:37:32Z</time></trkpt><trkpt lat="59.3154419493" lon="34.6800779365"><ele>157.84</ele><time>2026-08-16T10:37:47Z</time></trkpt><trkpt lat="59.3156690150" lon="34.6799885854"><ele>152.16</ele><time>2026-08-16T10:38:05Z</time></trkpt><trkpt lat="59.3158130161" lon="34.6800114680"><ele>150.39</ele><time>2026-08-16T10:38:17Z</time></trkpt><trkpt lat="59.3158602901" lon="34.6800309978"><ele>151.92</ele><time>2026-08-16T10:38:20Z</time></trkpt><trkpt lat="59.3159227353" lon="34.6801714785"><ele>151.06</ele><time>2026-08-16T10:38:28Z</time></trkpt><trkpt lat="59.3158904649" lon="34.6803207602"><ele>152.73</ele><time>2026-08-16T10:38:42Z</time></trkpt><trkpt lat="59.3158862740" lon="34.6803923417"><ele>153.16</ele><time>2026-08-16T10:38:46Z</time></trkpt><trkpt lat="59.3158745393" lon="34.6806566231"><ele>152.78</ele><time>2026-08-16T10:38:58Z</time></trkpt><trkpt lat="59.3158819154" lon="34.6808306314"><ele>152.52</ele><time>2026-08-16T10:39:06Z</time></trkpt><trkpt lat="59.3158733658" lon="34.6810830943"><ele>151.48</ele><time>2026-08-16T10:39:20Z</time></trkpt><trkpt lat="59.3158384971" lon="34.6814078093"><ele>149.48</ele><time>2026-08-16T10:39:35Z</time></trkpt><trkpt lat="59.3158221524" lon="34.6816167701"><ele>147.52</ele><time>2026-08-16T10:39:46Z</time></trkpt><trkpt lat="59.3157746270" lon="34.6817949694"><ele>146.22</ele><time>2026-08-16T10:39:54Z</time></trkpt><trkpt lat="59.3157527503" lon="34.6818694845"><ele>146.83</ele><time>2026-08-16T10:40:08Z</time></trkpt><trkpt lat="59.3156851921" lon="34.6820755955"><ele>149.70</ele><time>2026-08-16T10:40:22Z</time></trkpt><trkpt lat="59.3156185560" lon="34.6822371148"><ele>152.91</ele><time>2026-08-16T10:40:36Z</time></trkpt><trkpt lat="59.3156121019" lon="34.6822548844"><ele>152.96</ele><time>2026-08-16T10:40:37Z</time></trkpt><trkpt lat="59.3155102618" lon="34.6825157292"><ele>151.59</ele><time>2026-08-16T10:40:50Z</time></trkpt><trkpt lat="59.3154999521" lon="34.6825262904"><ele>151.38</ele><time>2026-08-16T10:40:51Z</time></trkpt><trkpt lat="59.3154521752" lon="34.6826244425"><ele>151.21</ele><time>2026-08-16T10:40:56Z</time></trkpt><trkpt lat="59.3153452221" lon="34.6828511730"><ele>150.43</ele><time>2026-08-16T10:41:09Z</time></trkpt><trkpt lat="59.3153025582" lon="34.6829311363"><ele>149.93</ele><time>2026-08-16T10:41:15Z</time></trkpt><trkpt lat="59.3152138777" lon="34.6830293722"><ele>146.30</ele><time>2026-08-16T10:41:25Z</time></trkpt><trkpt lat="59.3151708785" lon="34.6831406001"><ele>147.32</ele><time>2026-08-16T10:41:39Z</time></trkpt><trkpt lat="59.3151407037" lon="34.6831798274"><ele>152.22</ele><time>2026-08-16T10:42:00Z</time></trkpt><trkpt lat="59.3150895741" lon="34.6830927394"><ele>156.02</ele><time>2026-08-16T10:42:19Z</time></trkpt><trkpt lat="59.3151438050" lon="34.6832031291"><ele>155.63</ele><time>2026-08-16T10:42:42Z</time></trkpt><trkpt lat="59.3151268736" lon="34.6832576953"><ele>157.00</ele><time>2026-08-16T10:42:56Z</time></trkpt><trkpt lat="59.3150915857" lon="34.6833004430"><ele>158.75</ele><time>2026-08-16T10:43:13Z</time></trkpt><trkpt lat="59.3149680365" lon="34.6833325457"><ele>161.35</ele><time>2026-08-16T10:43:30Z</time></trkpt><trkpt lat="59.3149381969" lon="34.6833335515"><ele>163.32</ele><time>2026-08-16T10:43:45Z</time></trkpt><trkpt lat="59.3149310723" lon="34.6833108366"><ele>163.60</ele><time>2026-08-16T10:44:08Z</time></trkpt><trkpt lat="59.3148812000" lon="34.6832934022"><ele>166.81</ele><time>2026-08-16T10:44:29Z</time></trkpt><trkpt lat="59.3148531206" lon="34.6832468826"><ele>168.24</ele><time>2026-08-16T10:44:49Z</time></trkpt><trkpt lat="59.3148532044" lon="34.6833156142"><ele>168.69</ele><time>2026-08-16T10:44:54Z</time></trkpt><trkpt lat="59.3148423918" lon="34.6833587810"><ele>168.81</ele><time>2026-08-16T10:44:56Z</time></trkpt><trkpt lat="59.3147651944" lon="34.6834111679"><ele>169.22</ele><time>2026-08-16T10:45:12Z</time></trkpt><trkpt lat="59.3147408031" lon="34.6835055482"><ele>170.96</ele><time>2026-08-16T10:45:26Z</time></trkpt><trkpt lat="59.3146973010" lon="34.6835460328"><ele>171.86</ele><time>2026-08-16T10:45:40Z</time></trkpt><trkpt lat="59.3146326765" lon="34.6835987549"><ele>173.13</ele><time>2026-08-16T10:45:54Z</time></trkpt><trkpt lat="59.3145792838" lon="34.6836528182"><ele>174.66</ele><time>2026-08-16T10:46:09Z</time></trkpt><trkpt lat="59.3144820537" lon="34.6836636309"><ele>174.79</ele><time>2026-08-16T10:46:25Z</time></trkpt><trkpt lat="59.3143899366" lon="34.6836668998"><ele>174.15</ele><time>2026-08-16T10:46:38Z</time></trkpt><trkpt lat="59.3142976519" lon="34.6837648842"><ele>172.88</ele><time>2026-08-16T10:46:51Z</time></trkpt><trkpt lat="59.3142642919" lon="34.6837998368"><ele>172.20</ele><time>2026-08-16T10:47:01Z</time></trkpt><trkpt lat="59.3141996674" lon="34.6838927083"><ele>171.88</ele><time>2026-08-16T10:47:16Z</time></trkpt><trkpt lat="59.3141206261" lon="34.6839644574"><ele>171.43</ele><time>2026-08-16T10:47:29Z</time></trkpt><trkpt lat="59.3140723463" lon="34.6840110607"><ele>171.13</ele><time>2026-08-16T10:47:43Z</time></trkpt><trkpt lat="59.3139570113" lon="34.6840914432"><ele>170.65</ele><time>2026-08-16T10:47:58Z</time></trkpt><trkpt lat="59.3138500582" lon="34.6842291579"><ele>170.17</ele><time>2026-08-16T10:48:14Z</time></trkpt><trkpt lat="59.3137283530" lon="34.6843746677"><ele>169.57</ele><time>2026-08-16T10:48:33Z</time></trkpt><trkpt lat="59.3136042170" lon="34.6844213549"><ele>168.21</ele><time>2026-08-16T10:48:50Z</time></trkpt><trkpt lat="59.3135071546" lon="34.6845185850"><ele>167.80</ele><time>2026-08-16T10:49:06Z</time></trkpt><trkpt lat="59.3134159595" lon="34.6845214348"><ele>166.75</ele><time>2026-08-16T10:49:19Z</time></trkpt><trkpt lat="59.3133779056" lon="34.6843372844"><ele>164.67</ele><time>2026-08-16T10:49:34Z</time></trkpt><trkpt lat="59.3132645823" lon="34.6843156591"><ele>161.44</ele><time>2026-08-16T10:49:48Z</time></trkpt><trkpt lat="59.3131619878" lon="34.6842424851"><ele>159.05</ele><time>2026-08-16T10:50:06Z</time></trkpt><trkpt lat="59.3131423742" lon="34.6842175908"><ele>157.96</ele><time>2026-08-16T10:50:24Z</time></trkpt><trkpt lat="59.3130962737" lon="34.6842162497"><ele>158.90</ele><time>2026-08-16T10:50:44Z</time></trkpt><trkpt lat="59.3130191602" lon="34.6841518767"><ele>161.55</ele><time>2026-08-16T10:51:17Z</time></trkpt><trkpt lat="59.3129983731" lon="34.6841913555"><ele>163.43</ele><time>2026-08-16T10:51:35Z</time></trkpt><trkpt lat="59.3129670247" lon="34.6843699738"><ele>163.20</ele><time>2026-08-16T10:51:47Z</time></trkpt><trkpt lat="59.3129261211" lon="34.6845670324"><ele>163.15</ele><time>2026-08-16T10:52:02Z</time></trkpt><trkpt lat="59.3129989598" lon="34.6847707126"><ele>163.25</ele><time>2026-08-16T10:52:19Z</time></trkpt><trkpt lat="59.3129595648" lon="34.6849144623"><ele>162.96</ele><time>2026-08-16T10:52:36Z</time></trkpt><trkpt lat="59.3128528632" lon="34.6851603035"><ele>161.23</ele><time>2026-08-16T10:52:56Z</time></trkpt><trkpt lat="59.3127513584" lon="34.6853815857"><ele>159.06</ele><time>2026-08-16T10:53:13Z</time></trkpt><trkpt lat="59.3126899190" lon="34.6854928974"><ele>158.55</ele><time>2026-08-16T10:53:26Z</time></trkpt><trkpt lat="59.3125705607" lon="34.6856910456"><ele>156.22</ele><time>2026-08-16T10:53:42Z</time></trkpt><trkpt lat="59.3124792818" lon="34.6858868469"><ele>154.08</ele><time>2026-08-16T10:53:56Z</time></trkpt><trkpt lat="59.3123202771" lon="34.6860514674"><ele>153.93</ele><time>2026-08-16T10:54:15Z</time></trkpt><trkpt lat="59.3121866696" lon="34.6861278266"><ele>153.26</ele><time>2026-08-16T10:54:30Z</time></trkpt><trkpt lat="59.3120203726" lon="34.6862394735"><ele>151.19</ele><time>2026-08-16T10:54:47Z</time></trkpt><trkpt lat="59.3118861783" lon="34.6862968896"><ele>149.41</ele><time>2026-08-16T10:55:00Z</time></trkpt><trkpt lat="59.3117824104" lon="34.6863560658"><ele>148.33</ele><time>2026-08-16T10:55:11Z</time></trkpt><trkpt lat="59.3116519041" lon="34.6863828879"><ele>147.46</ele><time>2026-08-16T10:55:23Z</time></trkpt><trkpt lat="59.3115619663" lon="34.6864483505"><ele>147.14</ele><time>2026-08-16T10:55:33Z</time></trkpt><trkpt lat="59.3114605453" lon="34.6865233686"><ele>147.96</ele><time>2026-08-16T10:55:45Z</time></trkpt><trkpt lat="59.3114521634" lon="34.6865314990"><ele>148.13</ele><time>2026-08-16T10:55:46Z</time></trkpt><trkpt lat="59.3113570288" lon="34.6865919326"><ele>148.27</ele><time>2026-08-16T10:55:55Z</time></trkpt><trkpt lat="59.3112862017" lon="34.6866316628"><ele>149.78</ele><time>2026-08-16T10:56:07Z</time></trkpt><trkpt lat="59.3112239242" lon="34.6867223550"><ele>151.27</ele><time>2026-08-16T10:56:19Z</time></trkpt><trkpt lat="59.3111540191" lon="34.6868304815"><ele>153.04</ele><time>2026-08-16T10:56:33Z</time></trkpt><trkpt lat="59.3111025542" lon="34.6868583094"><ele>153.36</ele><time>2026-08-16T10:56:48Z</time></trkpt><trkpt lat="59.3110788334" lon="34.6870430466"><ele>154.47</ele><time>2026-08-16T10:57:00Z</time></trkpt><trkpt lat="59.3110886402" lon="34.6873380058"><ele>154.67</ele><time>2026-08-16T10:57:15Z</time></trkpt><trkpt lat="59.3111053202" lon="34.6875499841"><ele>153.74</ele><time>2026-08-16T10:57:25Z</time></trkpt><trkpt lat="59.3111164682" lon="34.6876417659"><ele>153.67</ele><time>2026-08-16T10:57:33Z</time></trkpt><trkpt lat="59.3111149594" lon="34.6876778081"><ele>154.45</ele><time>2026-08-16T10:57:38Z</time></trkpt><trkpt lat="59.3111437093" lon="34.6877875272"><ele>155.52</ele><time>2026-08-16T10:57:55Z</time></trkpt><trkpt lat="59.3112420291" lon="34.6878032014"><ele>156.82</ele><time>2026-08-16T10:58:11Z</time></trkpt><trkpt lat="59.3113188911" lon="34.6878200490"><ele>157.35</ele><time>2026-08-16T10:58:25Z</time></trkpt><trkpt lat="59.3114746269" lon="34.6878897026"><ele>158.04</ele><time>2026-08-16T10:58:44Z</time></trkpt><trkpt lat="59.3115362339" lon="34.6879254095"><ele>158.52</ele><time>2026-08-16T10:58:55Z</time></trkpt><trkpt lat="59.3116296083" lon="34.6878607851"><ele>159.36</ele><time>2026-08-16T10:59:10Z</time></trkpt><trkpt lat="59.3117506430" lon="34.6878964920"><ele>159.52</ele><time>2026-08-16T10:59:24Z</time></trkpt><trkpt lat="59.3118546624" lon="34.6880047023"><ele>159.76</ele><time>2026-08-16T10:59:38Z</time></trkpt><trkpt lat="59.3119381461" lon="34.6880979929"><ele>159.08</ele><time>2026-08-16T10:59:52Z</time></trkpt><trkpt lat="59.3120504636" lon="34.6881994978"><ele>158.12</ele><time>2026-08-16T11:00:09Z</time></trkpt><trkpt lat="59.3121880107" lon="34.6881809738"><ele>157.74</ele><time>2026-08-16T11:00:25Z</time></trkpt><trkpt lat="59.3122707400" lon="34.6881467756"><ele>157.26</ele><time>2026-08-16T11:00:41Z</time></trkpt><trkpt lat="59.3123766035" lon="34.6881601028"><ele>157.46</ele><time>2026-08-16T11:00:55Z</time></trkpt><trkpt lat="59.3124724086" lon="34.6880393196"><ele>156.30</ele><time>2026-08-16T11:01:09Z</time></trkpt><trkpt lat="59.3125623465" lon="34.6879108250"><ele>154.34</ele><time>2026-08-16T11:01:25Z</time></trkpt><trkpt lat="59.3126009870" lon="34.6878944803"><ele>153.89</ele><time>2026-08-16T11:01:36Z</time></trkpt><trkpt lat="59.3125951197" lon="34.6879127529"><ele>157.26</ele><time>2026-08-16T11:01:57Z</time></trkpt><trkpt lat="59.3125971314" lon="34.6878638025"><ele>157.98</ele><time>2026-08-16T11:02:16Z</time></trkpt><trkpt lat="59.3125838879" lon="34.6878076438"><ele>158.91</ele><time>2026-08-16T11:02:36Z</time></trkpt><trkpt lat="59.3126606662" lon="34.6876146924"><ele>158.05</ele><time>2026-08-16T11:02:51Z</time></trkpt><trkpt lat="59.3127263803" lon="34.6874694340"><ele>157.42</ele><time>2026-08-16T11:03:02Z</time></trkpt><trkpt lat="59.3128063437" lon="34.6872636583"><ele>156.35</ele><time>2026-08-16T11:03:17Z</time></trkpt><trkpt lat="59.3128859717" lon="34.6871895622"><ele>155.28</ele><time>2026-08-16T11:03:32Z</time></trkpt><trkpt lat="59.3129961938" lon="34.6869812720"><ele>156.21</ele><time>2026-08-16T11:03:45Z</time></trkpt><trkpt lat="59.3131007161" lon="34.6870369278"><ele>157.97</ele><time>2026-08-16T11:04:01Z</time></trkpt><trkpt lat="59.3131640833" lon="34.6870886441"><ele>158.18</ele><time>2026-08-16T11:04:12Z</time></trkpt><trkpt lat="59.3132541887" lon="34.6871777438"><ele>158.52</ele><time>2026-08-16T11:04:26Z</time></trkpt><trkpt lat="59.3133687694" lon="34.6872763988"><ele>158.07</ele><time>2026-08-16T11:04:41Z</time></trkpt><trkpt lat="59.3135255110" lon="34.6871986985"><ele>156.54</ele><time>2026-08-16T11:05:00Z</time></trkpt><trkpt lat="59.3136474676" lon="34.6871757321"><ele>155.73</ele><time>2026-08-16T11:05:16Z</time></trkpt><trkpt lat="59.3137494754" lon="34.6872701962"><ele>155.63</ele><time>2026-08-16T11:05:30Z</time></trkpt><trkpt lat="59.3138627149" lon="34.6873911470"><ele>155.55</ele><time>2026-08-16T11:05:45Z</time></trkpt><trkpt lat="59.3139377329" lon="34.6874471381"><ele>156.88</ele><time>2026-08-16T11:06:04Z</time></trkpt><trkpt lat="59.3140337896" lon="34.6874481440"><ele>158.70</ele><time>2026-08-16T11:06:19Z</time></trkpt><trkpt lat="59.3140987493" lon="34.6874214057"><ele>161.11</ele><time>2026-08-16T11:06:35Z</time></trkpt><trkpt lat="59.3140839972" lon="34.6874147002"><ele>163.42</ele><time>2026-08-16T11:06:59Z</time></trkpt><trkpt lat="59.3140773755" lon="34.6874119341"><ele>163.92</ele><time>2026-08-16T11:07:16Z</time></trkpt><trkpt lat="59.3140995037" lon="34.6872959286"><ele>165.02</ele><time>2026-08-16T11:07:35Z</time></trkpt><trkpt lat="59.3141828198" lon="34.6871982794"><ele>164.26</ele><time>2026-08-16T11:07:48Z</time></trkpt><trkpt lat="59.3143150862" lon="34.6870671865"><ele>159.85</ele><time>2026-08-16T11:08:01Z</time></trkpt><trkpt lat="59.3144271523" lon="34.6870547812"><ele>158.47</ele><time>2026-08-16T11:08:15Z</time></trkpt><trkpt lat="59.3145086244" lon="34.6869375184"><ele>156.31</ele><time>2026-08-16T11:08:31Z</time></trkpt><trkpt lat="59.3145760149" lon="34.6867896616"><ele>157.23</ele><time>2026-08-16T11:08:47Z</time></trkpt><trkpt lat="59.3146069441" lon="34.6867318265"><ele>155.81</ele><time>2026-08-16T11:08:54Z</time></trkpt><trkpt lat="59.3147251289" lon="34.6865792759"><ele>155.15</ele><time>2026-08-16T11:09:10Z</time></trkpt><trkpt lat="59.3148449901" lon="34.6865264699"><ele>153.11</ele><time>2026-08-16T11:09:25Z</time></trkpt><trkpt lat="59.3149450701" lon="34.6865705587"><ele>153.23</ele><time>2026-08-16T11:09:42Z</time></trkpt><trkpt lat="59.3150423840" lon="34.6866189223"><ele>154.74</ele><time>2026-08-16T11:09:57Z</time></trkpt><trkpt lat="59.3151262030" lon="34.6867925953"><ele>154.34</ele><time>2026-08-16T11:10:13Z</time></trkpt><trkpt lat="59.3151922524" lon="34.6869018115"><ele>154.29</ele><time>2026-08-16T11:10:27Z</time></trkpt><trkpt lat="59.3152772449" lon="34.6870114468"><ele>154.49</ele><time>2026-08-16T11:10:41Z</time></trkpt><trkpt lat="59.3153736368" lon="34.6871368401"><ele>156.91</ele><time>2026-08-16T11:10:56Z</time></trkpt><trkpt lat="59.3154041469" lon="34.6873966791"><ele>156.74</ele><time>2026-08-16T11:11:13Z</time></trkpt><trkpt lat="59.3154520914" lon="34.6875669993"><ele>157.48</ele><time>2026-08-16T11:11:26Z</time></trkpt><trkpt lat="59.3155178055" lon="34.6875967551"><ele>157.65</ele><time>2026-08-16T11:11:40Z</time></trkpt><trkpt lat="59.3155950867" lon="34.6877096593"><ele>158.81</ele><time>2026-08-16T11:11:55Z</time></trkpt><trkpt lat="59.3156081624" lon="34.6877332963"><ele>161.12</ele><time>2026-08-16T11:12:21Z</time></trkpt><trkpt lat="59.3156134430" lon="34.6877841745"><ele>163.47</ele><time>2026-08-16T11:12:44Z</time></trkpt><trkpt lat="59.3155804183" lon="34.6878575999"><ele>162.94</ele><time>2026-08-16T11:13:03Z</time></trkpt><trkpt lat="59.3154902291" lon="34.6879509743"><ele>162.92</ele><time>2026-08-16T11:13:17Z</time></trkpt><trkpt lat="59.3154412787" lon="34.6880786307"><ele>162.88</ele><time>2026-08-16T11:13:32Z</time></trkpt><trkpt lat="59.3154209107" lon="34.6882999968"><ele>161.43</ele><time>2026-08-16T11:13:44Z</time></trkpt><trkpt lat="59.3153810129" lon="34.6885235421"><ele>159.41</ele><time>2026-08-16T11:13:58Z</time></trkpt><trkpt lat="59.3154271971" lon="34.6887564752"><ele>158.19</ele><time>2026-08-16T11:14:16Z</time></trkpt><trkpt lat="59.3153516762" lon="34.6888849698"><ele>157.63</ele><time>2026-08-16T11:14:33Z</time></trkpt><trkpt lat="59.3153269496" lon="34.6890867222"><ele>157.45</ele><time>2026-08-16T11:14:48Z</time></trkpt><trkpt lat="59.3153235968" lon="34.6892589703"><ele>156.59</ele><time>2026-08-16T11:15:04Z</time></trkpt><trkpt lat="59.3152544461" lon="34.6894095931"><ele>154.78</ele><time>2026-08-16T11:15:18Z</time></trkpt><trkpt lat="59.3151764944" lon="34.6895161271"><ele>153.69</ele><time>2026-08-16T11:15:31Z</time></trkpt><trkpt lat="59.3150496762" lon="34.6895562764"><ele>152.38</ele><time>2026-08-16T11:15:45Z</time></trkpt><trkpt lat="59.3149604090" lon="34.6895563602"><ele>151.26</ele><time>2026-08-16T11:15:57Z</time></trkpt><trkpt lat="59.3148989696" lon="34.6897251718"><ele>151.24</ele><time>2026-08-16T11:16:11Z</time></trkpt><trkpt lat="59.3149247020" lon="34.6898907982"><ele>150.47</ele><time>2026-08-16T11:16:26Z</time></trkpt><trkpt lat="59.3149696290" lon="34.6899240743"><ele>155.27</ele><time>2026-08-16T11:16:49Z</time></trkpt><trkpt lat="59.3149366044" lon="34.6900008526"><ele>159.48</ele><time>2026-08-16T11:17:14Z</time></trkpt><trkpt lat="59.3149422202" lon="34.6900491323"><ele>160.56</ele><time>2026-08-16T11:17:36Z</time></trkpt><trkpt lat="59.3149391189" lon="34.6901482064"><ele>160.82</ele><time>2026-08-16T11:17:50Z</time></trkpt><trkpt lat="59.3149485067" lon="34.6903191973"><ele>160.70</ele><time>2026-08-16T11:18:04Z</time></trkpt><trkpt lat="59.3149443995" lon="34.6905157529"><ele>159.50</ele><time>2026-08-16T11:18:20Z</time></trkpt><trkpt lat="59.3148705550" lon="34.6906660404"><ele>159.28</ele><time>2026-08-16T11:18:34Z</time></trkpt><trkpt lat="59.3148803618" lon="34.6908266377"><ele>158.74</ele><time>2026-08-16T11:18:47Z</time></trkpt><trkpt lat="59.3149014842" lon="34.6910604089"><ele>157.77</ele><time>2026-08-16T11:19:04Z</time></trkpt><trkpt lat="59.3149383646" lon="34.6911528613"><ele>157.37</ele><time>2026-08-16T11:19:20Z</time></trkpt><trkpt lat="59.3149941880" lon="34.6912971977"><ele>157.69</ele><time>2026-08-16T11:19:34Z</time></trkpt><trkpt lat="59.3150430545" lon="34.6914380975"><ele>157.63</ele><time>2026-08-16T11:19:47Z</time></trkpt><trkpt lat="59.3151079305" lon="34.6915982757"><ele>158.07</ele><time>2026-08-16T11:20:02Z</time></trkpt><trkpt lat="59.3151163124" lon="34.6918071527"><ele>158.90</ele><time>2026-08-16T11:20:19Z</time></trkpt><trkpt lat="59.3151557911" lon="34.6919368207"><ele>159.25</ele><time>2026-08-16T11:20:33Z</time></trkpt><trkpt lat="59.3152758200" lon="34.6921077278"><ele>159.44</ele><time>2026-08-16T11:20:49Z</time></trkpt><trkpt lat="59.3153301347" lon="34.6922953147"><ele>160.37</ele><time>2026-08-16T11:21:03Z</time></trkpt><trkpt lat="59.3153551966" lon="34.6925539803"><ele>159.82</ele><time>2026-08-16T11:21:19Z</time></trkpt><trkpt lat="59.3153694458" lon="34.6927766874"><ele>159.42</ele><time>2026-08-16T11:21:34Z</time></trkpt><trkpt lat="59.3152953498" lon="34.6928847302"><ele>157.89</ele><time>2026-08-16T11:21:47Z</time></trkpt><trkpt lat="59.3152085133" lon="34.6930344310"><ele>153.89</ele><time>2026-08-16T11:22:02Z</time></trkpt><trkpt lat="59.3151464034" lon="34.6932894923"><ele>153.06</ele><time>2026-08-16T11:22:17Z</time></trkpt><trkpt lat="59.3150840420" lon="34.6935194079"><ele>152.04</ele><time>2026-08-16T11:22:34Z</time></trkpt><trkpt lat="59.3150070123" lon="34.6936059091"><ele>151.60</ele><time>2026-08-16T11:22:48Z</time></trkpt><trkpt lat="59.3149537873" lon="34.6936122794"><ele>154.36</ele><time>2026-08-16T11:23:10Z</time></trkpt><trkpt lat="59.3149637617" lon="34.6936370898"><ele>157.83</ele><time>2026-08-16T11:23:31Z</time></trkpt><trkpt lat="59.3149334192" lon="34.6936577931"><ele>161.81</ele><time>2026-08-16T11:23:58Z</time></trkpt><trkpt lat="59.3149435613" lon="34.6936562844"><ele>162.55</ele><time>2026-08-16T11:24:15Z</time></trkpt><trkpt lat="59.3149428070" lon="34.6936543565"><ele>162.89</ele><time>2026-08-16T11:24:35Z</time></trkpt><trkpt lat="59.3149308208" lon="34.6936815977"><ele>164.71</ele><time>2026-08-16T11:24:55Z</time></trkpt><trkpt lat="59.3148542941" lon="34.6936962660"><ele>165.40</ele><time>2026-08-16T11:25:11Z</time></trkpt><trkpt lat="59.3147310801" lon="34.6937079169"><ele>164.61</ele><time>2026-08-16T11:25:28Z</time></trkpt><trkpt lat="59.3146362808" lon="34.6937879641"><ele>163.90</ele><time>2026-08-16T11:25:44Z</time></trkpt><trkpt lat="59.3146429863" lon="34.6939532552"><ele>163.82</ele><time>2026-08-16T11:26:02Z</time></trkpt><trkpt lat="59.3146079499" lon="34.6940866951"><ele>165.16</ele><time>2026-08-16T11:26:18Z</time></trkpt><trkpt lat="59.3145804573" lon="34.6941666584"><ele>165.42</ele><time>2026-08-16T11:26:30Z</time></trkpt><trkpt lat="59.3145514559" lon="34.6942679957"><ele>165.99</ele><time>2026-08-16T11:26:38Z</time></trkpt><trkpt lat="59.3145818822" lon="34.6944204625"><ele>166.12</ele><time>2026-08-16T11:26:52Z</time></trkpt><trkpt lat="59.3146212772" lon="34.6946182754"><ele>166.08</ele><time>2026-08-16T11:27:09Z</time></trkpt><trkpt lat="59.3146366999" lon="34.6949049365"><ele>166.06</ele><time>2026-08-16T11:27:25Z</time></trkpt><trkpt lat="59.3146009929" lon="34.6951157413"><ele>164.75</ele><time>2026-08-16T11:27:39Z</time></trkpt><trkpt lat="59.3145066965" lon="34.6953246184"><ele>162.32</ele><time>2026-08-16T11:27:53Z</time></trkpt><trkpt lat="59.3143812194" lon="34.6954935137"><ele>160.47</ele><time>2026-08-16T11:28:11Z</time></trkpt><trkpt lat="59.3142706621" lon="34.6956071723"><ele>159.24</ele><time>2026-08-16T11:28:28Z</time></trkpt><trkpt lat="59.3142076302" lon="34.6956784185"><ele>159.91</ele><time>2026-08-16T11:28:42Z</time></trkpt><trkpt lat="59.3141214643" lon="34.6957949270"><ele>160.23</ele><time>2026-08-16T11:28:56Z</time></trkpt><trkpt lat="59.3140671495" lon="34.6959037241"><ele>159.90</ele><time>2026-08-16T11:29:12Z</time></trkpt><trkpt lat="59.3140636291" lon="34.6958997846"><ele>159.84</ele><time>2026-08-16T11:29:34Z</time></trkpt><trkpt lat="59.3140428420" lon="34.6959358267"><ele>161.46</ele><time>2026-08-16T11:29:52Z</time></trkpt><trkpt lat="59.3140950613" lon="34.6960084978"><ele>161.94</ele><time>2026-08-16T11:30:16Z</time></trkpt><trkpt lat="59.3140407465" lon="34.6959483996"><ele>161.83</ele><time>2026-08-16T11:30:29Z</time></trkpt><trkpt lat="59.3139659800" lon="34.6958695259"><ele>161.64</ele><time>2026-08-16T11:30:42Z</time></trkpt><trkpt lat="59.3139152694" lon="34.6958568692"><ele>160.77</ele><time>2026-08-16T11:30:53Z</time></trkpt><trkpt lat="59.3137499783" lon="34.6959230024"><ele>159.07</ele><time>2026-08-16T11:31:13Z</time></trkpt><trkpt lat="59.3136192206" lon="34.6961596236"><ele>160.22</ele><time>2026-08-16T11:31:30Z</time></trkpt><trkpt lat="59.3136086594" lon="34.6963350568"><ele>160.10</ele><time>2026-08-16T11:31:43Z</time></trkpt><trkpt lat="59.3136529997" lon="34.6965064667"><ele>159.60</ele><time>2026-08-16T11:32:00Z</time></trkpt><trkpt lat="59.3136398401" lon="34.6967600193"><ele>158.89</ele><time>2026-08-16T11:32:16Z</time></trkpt><trkpt lat="59.3136203941" lon="34.6969626937"><ele>159.03</ele><time>2026-08-16T11:32:33Z</time></trkpt><trkpt lat="59.3136603758" lon="34.6971492749"><ele>158.20</ele><time>2026-08-16T11:32:47Z</time></trkpt><trkpt lat="59.3137410935" lon="34.6973504405"><ele>157.05</ele><time>2026-08-16T11:33:02Z</time></trkpt><trkpt lat="59.3137773033" lon="34.6974996384"><ele>156.78</ele><time>2026-08-16T11:33:16Z</time></trkpt><trkpt lat="59.3137052190" lon="34.6977209207"><ele>155.14</ele><time>2026-08-16T11:33:33Z</time></trkpt><trkpt lat="59.3136706017" lon="34.6979701985"><ele>155.16</ele><time>2026-08-16T11:33:48Z</time></trkpt><trkpt lat="59.3136063963" lon="34.6982063167"><ele>154.17</ele><time>2026-08-16T11:34:03Z</time></trkpt><trkpt lat="59.3135378323" lon="34.6983581968"><ele>154.72</ele><time>2026-08-16T11:34:19Z</time></trkpt><trkpt lat="59.3134703580" lon="34.6983516589"><ele>156.49</ele><time>2026-08-16T11:34:36Z</time></trkpt><trkpt lat="59.3134498224" lon="34.6983530838"><ele>156.76</ele><time>2026-08-16T11:34:44Z</time></trkpt><trkpt lat="59.3134249281" lon="34.6983881202"><ele>158.58</ele><time>2026-08-16T11:34:56Z</time></trkpt><trkpt lat="59.3133924901" lon="34.6983112581"><ele>162.89</ele><time>2026-08-16T11:35:18Z</time></trkpt><trkpt lat="59.3134215754" lon="34.6982888784"><ele>164.93</ele><time>2026-08-16T11:35:41Z</time></trkpt><trkpt lat="59.3134053983" lon="34.6983881202"><ele>167.49</ele><time>2026-08-16T11:35:59Z</time></trkpt><trkpt lat="59.3134001177" lon="34.6984752920"><ele>169.56</ele><time>2026-08-16T11:36:22Z</time></trkpt><trkpt lat="59.3134148698" lon="34.6984441951"><ele>169.58</ele><time>2026-08-16T11:36:34Z</time></trkpt><trkpt lat="59.3134378362" lon="34.6984775551"><ele>169.32</ele><time>2026-08-16T11:36:53Z</time></trkpt><trkpt lat="59.3134001177" lon="34.6984683350"><ele>169.03</ele><time>2026-08-16T11:37:09Z</time></trkpt><trkpt lat="59.3134107627" lon="34.6984439436"><ele>168.88</ele><time>2026-08-16T11:37:13Z</time></trkpt><trkpt lat="59.3134248443" lon="34.6983265132"><ele>168.96</ele><time>2026-08-16T11:37:30Z</time></trkpt><trkpt lat="59.3134771474" lon="34.6983260103"><ele>169.96</ele><time>2026-08-16T11:37:44Z</time></trkpt><trkpt lat="59.3134576175" lon="34.6983173769"><ele>170.83</ele><time>2026-08-16T11:38:05Z</time></trkpt><trkpt lat="59.3134028837" lon="34.6984373219"><ele>172.10</ele><time>2026-08-16T11:38:27Z</time></trkpt><trkpt lat="59.3133968487" lon="34.6984374058"><ele>172.56</ele><time>2026-08-16T11:38:43Z</time></trkpt><trkpt lat="59.3134621438" lon="34.6983863600"><ele>173.75</ele><time>2026-08-16T11:39:06Z</time></trkpt><trkpt lat="59.3135314621" lon="34.6983006131"><ele>176.51</ele><time>2026-08-16T11:39:30Z</time></trkpt><trkpt lat="59.3134819251" lon="34.6983161196"><ele>176.57</ele><time>2026-08-16T11:39:57Z</time></trkpt><trkpt lat="59.3134259339" lon="34.6983513236"><ele>177.53</ele><time>2026-08-16T11:40:37Z</time></trkpt><trkpt lat="59.3134216592" lon="34.6983492281"><ele>177.57</ele><time>2026-08-16T11:41:05Z</time></trkpt><trkpt lat="59.3134193961" lon="34.6984774712"><ele>175.70</ele><time>2026-08-16T11:41:57Z</time></trkpt><trkpt lat="59.3134255148" lon="34.6984949894"><ele>177.08</ele><time>2026-08-16T11:42:27Z</time></trkpt><trkpt lat="59.3134276103" lon="34.6985379886"><ele>179.01</ele><time>2026-08-16T11:43:05Z</time></trkpt><trkpt lat="59.3133831024" lon="34.6984779742"><ele>178.59</ele><time>2026-08-16T11:43:29Z</time></trkpt><trkpt lat="59.3134089187" lon="34.6984457877"><ele>179.15</ele><time>2026-08-16T11:43:50Z</time></trkpt><trkpt lat="59.3134081643" lon="34.6984454524"><ele>177.23</ele><time>2026-08-16T11:44:23Z</time></trkpt><trkpt lat="59.3134079129" lon="34.6984786447"><ele>178.06</ele><time>2026-08-16T11:44:54Z</time></trkpt><trkpt lat="59.3134631496" lon="34.6984440275"><ele>177.42</ele><time>2026-08-16T11:45:17Z</time></trkpt><trkpt lat="59.3134695198" lon="34.6984239947"><ele>173.53</ele><time>2026-08-16T11:46:09Z</time></trkpt><trkpt lat="59.3134569470" lon="34.6984075662"><ele>172.39</ele><time>2026-08-16T11:46:42Z</time></trkpt><trkpt lat="59.3134507444" lon="34.6984258387"><ele>174.14</ele><time>2026-08-16T11:47:32Z</time></trkpt><trkpt lat="59.3133952562" lon="34.6984216478"><ele>176.23</ele><time>2026-08-16T11:48:01Z</time></trkpt><trkpt lat="59.3134092540" lon="34.6983649861"><ele>175.14</ele><time>2026-08-16T11:48:26Z</time></trkpt><trkpt lat="59.3134418596" lon="34.6984195523"><ele>176.98</ele><time>2026-08-16T11:48:56Z</time></trkpt><trkpt lat="59.3134601321" lon="34.6984162834"><ele>176.48</ele><time>2026-08-16T11:49:39Z</time></trkpt><trkpt lat="59.3134708609" lon="34.6983752958"><ele>176.27</ele><time>2026-08-16T11:49:54Z</time></trkpt><trkpt lat="59.3134334777" lon="34.6984151937"><ele>175.87</ele><time>2026-08-16T11:50:12Z</time></trkpt><trkpt lat="59.3134417757" lon="34.6984532475"><ele>175.83</ele><time>2026-08-16T11:50:28Z</time></trkpt><trkpt lat="59.3134905584" lon="34.6985684149"><ele>174.49</ele><time>2026-08-16T11:50:43Z</time></trkpt><trkpt lat="59.3134458829" lon="34.6987323649"><ele>172.03</ele><time>2026-08-16T11:50:57Z</time></trkpt><trkpt lat="59.3134305440" lon="34.6989533119"><ele>168.44</ele><time>2026-08-16T11:51:13Z</time></trkpt><trkpt lat="59.3134212401" lon="34.6991648711"><ele>163.71</ele><time>2026-08-16T11:51:29Z</time></trkpt><trkpt lat="59.3133842759" lon="34.6993581578"><ele>159.48</ele><time>2026-08-16T11:51:45Z</time></trkpt><trkpt lat="59.3133753911" lon="34.6994688828"><ele>157.94</ele><time>2026-08-16T11:51:57Z</time></trkpt><trkpt lat="59.3132396881" lon="34.6996108722"><ele>157.25</ele><time>2026-08-16T11:52:13Z</time></trkpt><trkpt lat="59.3131788354" lon="34.6997642610"><ele>156.28</ele><time>2026-08-16T11:52:26Z</time></trkpt><trkpt lat="59.3130835332" lon="34.6999099385"><ele>154.13</ele><time>2026-08-16T11:52:42Z</time></trkpt><trkpt lat="59.3130821921" lon="34.6999370959"><ele>153.61</ele><time>2026-08-16T11:52:44Z</time></trkpt><trkpt lat="59.3129688688" lon="34.7000536881"><ele>151.54</ele><time>2026-08-16T11:52:58Z</time></trkpt><trkpt lat="59.3129578047" lon="34.7002568655"><ele>150.62</ele><time>2026-08-16T11:53:11Z</time></trkpt><trkpt lat="59.3129627500" lon="34.7005261760"><ele>148.94</ele><time>2026-08-16T11:53:26Z</time></trkpt><trkpt lat="59.3129862193" lon="34.7007238213"><ele>146.98</ele><time>2026-08-16T11:53:39Z</time></trkpt><trkpt lat="59.3130609859" lon="34.7009997535"><ele>145.07</ele><time>2026-08-16T11:53:53Z</time></trkpt><trkpt lat="59.3130930047" lon="34.7011314332"><ele>149.80</ele><time>2026-08-16T11:54:09Z</time></trkpt><trkpt lat="59.3131407816" lon="34.7011230513"><ele>158.24</ele><time>2026-08-16T11:54:30Z</time></trkpt><trkpt lat="59.3131924141" lon="34.7011534777"><ele>159.18</ele><time>2026-08-16T11:54:52Z</time></trkpt><trkpt lat="59.3131957669" lon="34.7014415637"><ele>159.13</ele><time>2026-08-16T11:55:08Z</time></trkpt><trkpt lat="59.3131737225" lon="34.7017009836"><ele>156.75</ele><time>2026-08-16T11:55:22Z</time></trkpt><trkpt lat="59.3131652568" lon="34.7020289674"><ele>151.77</ele><time>2026-08-16T11:55:40Z</time></trkpt><trkpt lat="59.3131300528" lon="34.7023129463"><ele>146.91</ele><time>2026-08-16T11:55:57Z</time></trkpt><trkpt lat="59.3131238502" lon="34.7023546882"><ele>146.12</ele><time>2026-08-16T11:56:11Z</time></trkpt><trkpt lat="59.3131574616" lon="34.7025715280"><ele>142.23</ele><time>2026-08-16T11:56:25Z</time></trkpt><trkpt lat="59.3132024724" lon="34.7028332949"><ele>138.08</ele><time>2026-08-16T11:56:42Z</time></trkpt><trkpt lat="59.3131989520" lon="34.7027610429"><ele>138.16</ele><time>2026-08-16T11:56:55Z</time></trkpt><trkpt lat="59.3131937552" lon="34.7025648225"><ele>137.85</ele><time>2026-08-16T11:57:09Z</time></trkpt><trkpt lat="59.3131822720" lon="34.7023826838"><ele>140.29</ele><time>2026-08-16T11:57:24Z</time></trkpt><trkpt lat="59.3131143786" lon="34.7024745494"><ele>139.47</ele><time>2026-08-16T11:57:37Z</time></trkpt><trkpt lat="59.3129314855" lon="34.7026499826"><ele>140.34</ele><time>2026-08-16T11:57:55Z</time></trkpt><trkpt lat="59.3128438946" lon="34.7026566043"><ele>138.78</ele><time>2026-08-16T11:58:08Z</time></trkpt><trkpt lat="59.3127215188" lon="34.7027606238"><ele>137.66</ele><time>2026-08-16T11:58:26Z</time></trkpt><trkpt lat="59.3126198463" lon="34.7029125877"><ele>137.74</ele><time>2026-08-16T11:58:41Z</time></trkpt><trkpt lat="59.3125986401" lon="34.7030580137"><ele>137.38</ele><time>2026-08-16T11:58:51Z</time></trkpt><trkpt lat="59.3125706445" lon="34.7032444272"><ele>135.19</ele><time>2026-08-16T11:59:15Z</time></trkpt><trkpt lat="59.3125594966" lon="34.7032998316"><ele>135.86</ele><time>2026-08-16T11:59:17Z</time></trkpt><trkpt lat="59.3125913478" lon="34.7033596784"><ele>141.91</ele><time>2026-08-16T11:59:37Z</time></trkpt><trkpt lat="59.3125470914" lon="34.7034018394"><ele>143.01</ele><time>2026-08-16T11:59:47Z</time></trkpt><trkpt lat="59.3123955466" lon="34.7034753487"><ele>147.12</ele><time>2026-08-16T12:00:03Z</time></trkpt><trkpt lat="59.3123548944" lon="34.7035038471"><ele>151.18</ele><time>2026-08-16T12:00:23Z</time></trkpt><trkpt lat="59.3123662937" lon="34.7035061102"><ele>151.03</ele><time>2026-08-16T12:00:26Z</time></trkpt><trkpt lat="59.3123259768" lon="34.7035156656"><ele>155.46</ele><time>2026-08-16T12:00:46Z</time></trkpt><trkpt lat="59.3122961372" lon="34.7035127319"><ele>158.92</ele><time>2026-08-16T12:01:08Z</time></trkpt><trkpt lat="59.3121801317" lon="34.7035661247"><ele>158.60</ele><time>2026-08-16T12:01:26Z</time></trkpt><trkpt lat="59.3120587617" lon="34.7036470100"><ele>157.52</ele><time>2026-08-16T12:01:40Z</time></trkpt><trkpt lat="59.3119425047" lon="34.7038701363"><ele>155.97</ele><time>2026-08-16T12:01:56Z</time></trkpt><trkpt lat="59.3119146768" lon="34.7041337471"><ele>154.34</ele><time>2026-08-16T12:02:14Z</time></trkpt><trkpt lat="59.3118608650" lon="34.7042738087"><ele>152.32</ele><time>2026-08-16T12:02:27Z</time></trkpt><trkpt lat="59.3118502200" lon="34.7043952625"><ele>151.07</ele><time>2026-08-16T12:02:42Z</time></trkpt><trkpt lat="59.3117800634" lon="34.7046210710"><ele>150.59</ele><time>2026-08-16T12:02:57Z</time></trkpt><trkpt lat="59.3116798159" lon="34.7047314607"><ele>149.55</ele><time>2026-08-16T12:03:11Z</time></trkpt><trkpt lat="59.3115426879" lon="34.7047791537"><ele>149.03</ele><time>2026-08-16T12:03:23Z</time></trkpt><trkpt lat="59.3114310410" lon="34.7047179658"><ele>148.48</ele><time>2026-08-16T12:03:39Z</time></trkpt><trkpt lat="59.3113667518" lon="34.7046108451"><ele>147.76</ele><time>2026-08-16T12:03:53Z</time></trkpt><trkpt lat="59.3112931587" lon="34.7046666685"><ele>146.72</ele><time>2026-08-16T12:04:07Z</time></trkpt><trkpt lat="59.3112832680" lon="34.7047836799"><ele>146.07</ele><time>2026-08-16T12:04:21Z</time></trkpt><trkpt lat="59.3112819269" lon="34.7050450277"><ele>145.65</ele><time>2026-08-16T12:04:35Z</time></trkpt><trkpt lat="59.3112970144" lon="34.7053483687"><ele>143.81</ele><time>2026-08-16T12:04:53Z</time></trkpt><trkpt lat="59.3113209866" lon="34.7055654600"><ele>142.51</ele><time>2026-08-16T12:05:06Z</time></trkpt><trkpt lat="59.3113835994" lon="34.7056922782"><ele>144.23</ele><time>2026-08-16T12:05:20Z</time></trkpt><trkpt lat="59.3112929910" lon="34.7057652008"><ele>149.94</ele><time>2026-08-16T12:05:46Z</time></trkpt><trkpt lat="59.3112829328" lon="34.7058216948"><ele>151.76</ele><time>2026-08-16T12:06:07Z</time></trkpt><trkpt lat="59.3112856150" lon="34.7058219463"><ele>152.37</ele><time>2026-08-16T12:06:27Z</time></trkpt><trkpt lat="59.3111592159" lon="34.7058562282"><ele>153.72</ele><time>2026-08-16T12:06:44Z</time></trkpt><trkpt lat="59.3110318109" lon="34.7058621794"><ele>153.81</ele><time>2026-08-16T12:06:58Z</time></trkpt><trkpt lat="59.3109215051" lon="34.7058284841"><ele>153.04</ele><time>2026-08-16T12:07:12Z</time></trkpt><trkpt lat="59.3108103611" lon="34.7057755105"><ele>153.76</ele><time>2026-08-16T12:07:25Z</time></trkpt><trkpt lat="59.3107278831" lon="34.7058569826"><ele>153.06</ele><time>2026-08-16T12:07:37Z</time></trkpt><trkpt lat="59.3106585648" lon="34.7059478424"><ele>152.65</ele><time>2026-08-16T12:07:49Z</time></trkpt><trkpt lat="59.3105741590" lon="34.7060520295"><ele>153.09</ele><time>2026-08-16T12:08:02Z</time></trkpt><trkpt lat="59.3105573114" lon="34.7060491797"><ele>154.13</ele><time>2026-08-16T12:08:17Z</time></trkpt><trkpt lat="59.3105708901" lon="34.7060474195"><ele>154.04</ele><time>2026-08-16T12:08:31Z</time></trkpt><trkpt lat="59.3105588201" lon="34.7060513590"><ele>154.17</ele><time>2026-08-16T12:08:54Z</time></trkpt><trkpt lat="59.3105683755" lon="34.7060308233"><ele>154.01</ele><time>2026-08-16T12:09:08Z</time></trkpt><trkpt lat="59.3105765060" lon="34.7059967089"><ele>153.87</ele><time>2026-08-16T12:09:21Z</time></trkpt><trkpt lat="59.3105795234" lon="34.7059862316"><ele>154.01</ele><time>2026-08-16T12:09:36Z</time></trkpt><trkpt lat="59.3105706386" lon="34.7059443220"><ele>153.74</ele><time>2026-08-16T12:09:50Z</time></trkpt><trkpt lat="59.3105565570" lon="34.7058941144"><ele>153.69</ele><time>2026-08-16T12:09:53Z</time></trkpt><trkpt lat="59.3104740791" lon="34.7057364509"><ele>153.09</ele><time>2026-08-16T12:10:06Z</time></trkpt><trkpt lat="59.3104061857" lon="34.7055839840"><ele>152.61</ele><time>2026-08-16T12:10:19Z</time></trkpt><trkpt lat="59.3103702273" lon="34.7054725885"><ele>152.29</ele><time>2026-08-16T12:10:28Z</time></trkpt><trkpt lat="59.3103286531" lon="34.7053330299"><ele>151.18</ele><time>2026-08-16T12:10:39Z</time></trkpt><trkpt lat="59.3103945348" lon="34.7051377315"><ele>150.04</ele><time>2026-08-16T12:10:53Z</time></trkpt><trkpt lat="59.3104024976" lon="34.7049864382"><ele>149.96</ele><time>2026-08-16T12:11:03Z</time></trkpt><trkpt lat="59.3103611749" lon="34.7048526630"><ele>149.41</ele><time>2026-08-16T12:11:14Z</time></trkpt><trkpt lat="59.3103496078" lon="34.7047036327"><ele>147.88</ele><time>2026-08-16T12:11:24Z</time></trkpt><trkpt lat="59.3102763500" lon="34.7044770699"><ele>145.18</ele><time>2026-08-16T12:11:39Z</time></trkpt><trkpt lat="59.3101894297" lon="34.7043200769"><ele>144.01</ele><time>2026-08-16T12:11:52Z</time></trkpt><trkpt lat="59.3101637810" lon="34.7042203322"><ele>143.71</ele><time>2026-08-16T12:12:03Z</time></trkpt><trkpt lat="59.3101533037" lon="34.7041228507"><ele>144.88</ele><time>2026-08-16T12:12:16Z</time></trkpt><trkpt lat="59.3101514596" lon="34.7040529456"><ele>146.44</ele><time>2026-08-16T12:12:36Z</time></trkpt><trkpt lat="59.3101400603" lon="34.7042085975"><ele>149.06</ele><time>2026-08-16T12:12:51Z</time></trkpt><trkpt lat="59.3101249728" lon="34.7044090927"><ele>148.55</ele><time>2026-08-16T12:13:06Z</time></trkpt><trkpt lat="59.3100560736" lon="34.7046039719"><ele>146.03</ele><time>2026-08-16T12:13:22Z</time></trkpt><trkpt lat="59.3099813908" lon="34.7049451154"><ele>142.77</ele><time>2026-08-16T12:13:39Z</time></trkpt><trkpt lat="59.3099511322" lon="34.7052563354"><ele>140.89</ele><time>2026-08-16T12:13:52Z</time></trkpt><trkpt lat="59.3099462707" lon="34.7053052019"><ele>140.73</ele><time>2026-08-16T12:13:54Z</time></trkpt><trkpt lat="59.3099121563" lon="34.7055299208"><ele>138.97</ele><time>2026-08-16T12:14:07Z</time></trkpt><trkpt lat="59.3099114858" lon="34.7056066990"><ele>139.96</ele><time>2026-08-16T12:14:23Z</time></trkpt><trkpt lat="59.3098484538" lon="34.7056683060"><ele>141.13</ele><time>2026-08-16T12:14:36Z</time></trkpt><trkpt lat="59.3098290078" lon="34.7056842316"><ele>141.71</ele><time>2026-08-16T12:14:40Z</time></trkpt><trkpt lat="59.3097941391" lon="34.7058598325"><ele>143.37</ele><time>2026-08-16T12:14:56Z</time></trkpt><trkpt lat="59.3098799698" lon="34.7059139796"><ele>142.04</ele><time>2026-08-16T12:15:09Z</time></trkpt><trkpt lat="59.3099272437" lon="34.7060602438"><ele>140.85</ele><time>2026-08-16T12:15:22Z</time></trkpt><trkpt lat="59.3100217078" lon="34.7062575538"><ele>139.15</ele><time>2026-08-16T12:15:38Z</time></trkpt><trkpt lat="59.3101699837" lon="34.7062906623"><ele>136.00</ele><time>2026-08-16T12:15:54Z</time></trkpt><trkpt lat="59.3102682196" lon="34.7062365152"><ele>135.57</ele><time>2026-08-16T12:16:02Z</time></trkpt><trkpt lat="59.3103341851" lon="34.7061981261"><ele>135.57</ele><time>2026-08-16T12:16:08Z</time></trkpt><trkpt lat="59.3104030006" lon="34.7063426301"><ele>137.06</ele><time>2026-08-16T12:16:20Z</time></trkpt><trkpt lat="59.3104334269" lon="34.7064704541"><ele>137.58</ele><time>2026-08-16T12:16:28Z</time></trkpt><trkpt lat="59.3105081934" lon="34.7066200711"><ele>140.01</ele><time>2026-08-16T12:16:40Z</time></trkpt><trkpt lat="59.3105678726" lon="34.7066665068"><ele>140.53</ele><time>2026-08-16T12:16:49Z</time></trkpt><trkpt lat="59.3105982151" lon="34.7067067400"><ele>140.95</ele><time>2026-08-16T12:16:53Z</time></trkpt><trkpt lat="59.3106265459" lon="34.7067760583"><ele>141.22</ele><time>2026-08-16T12:16:57Z</time></trkpt><trkpt lat="59.3107246142" lon="34.7069093306"><ele>140.58</ele><time>2026-08-16T12:17:11Z</time></trkpt><trkpt lat="59.3107334152" lon="34.7071637213"><ele>139.28</ele><time>2026-08-16T12:17:26Z</time></trkpt><trkpt lat="59.3107456528" lon="34.7073503863"><ele>138.04</ele><time>2026-08-16T12:17:39Z</time></trkpt><trkpt lat="59.3107524421" lon="34.7075332794"><ele>136.53</ele><time>2026-08-16T12:17:54Z</time></trkpt><trkpt lat="59.3107601535" lon="34.7077102214"><ele>135.91</ele><time>2026-08-16T12:18:08Z</time></trkpt><trkpt lat="59.3107890710" lon="34.7078972217"><ele>134.46</ele><time>2026-08-16T12:18:18Z</time></trkpt><trkpt lat="59.3107746542" lon="34.7080957890"><ele>137.15</ele><time>2026-08-16T12:18:31Z</time></trkpt><trkpt lat="59.3107438087" lon="34.7082362697"><ele>137.81</ele><time>2026-08-16T12:18:45Z</time></trkpt><trkpt lat="59.3107380252" lon="34.7084655985"><ele>136.97</ele><time>2026-08-16T12:19:01Z</time></trkpt><trkpt lat="59.3108080979" lon="34.7087626532"><ele>139.45</ele><time>2026-08-16T12:19:18Z</time></trkpt><trkpt lat="59.3108427152" lon="34.7089178022"><ele>138.56</ele><time>2026-08-16T12:19:32Z</time></trkpt><trkpt lat="59.3108877260" lon="34.7091068979"><ele>135.68</ele><time>2026-08-16T12:19:50Z</time></trkpt><trkpt lat="59.3109807651" lon="34.7092498094"><ele>133.42</ele><time>2026-08-16T12:20:04Z</time></trkpt><trkpt lat="59.3110629078" lon="34.7094021924"><ele>132.37</ele><time>2026-08-16T12:20:19Z</time></trkpt><trkpt lat="59.3111142050" lon="34.7094347980"><ele>139.95</ele><time>2026-08-16T12:20:40Z</time></trkpt><trkpt lat="59.3111180607" lon="34.7094142623"><ele>144.44</ele><time>2026-08-16T12:20:59Z</time></trkpt><trkpt lat="59.3111254368" lon="34.7094098199"><ele>150.95</ele><time>2026-08-16T12:21:22Z</time></trkpt><trkpt lat="59.3110536039" lon="34.7094807308"><ele>155.18</ele><time>2026-08-16T12:21:48Z</time></trkpt><trkpt lat="59.3109470699" lon="34.7095197067"><ele>157.62</ele><time>2026-08-16T12:22:04Z</time></trkpt><trkpt lat="59.3108528573" lon="34.7094763722"><ele>155.33</ele><time>2026-08-16T12:22:20Z</time></trkpt><trkpt lat="59.3108105287" lon="34.7093636356"><ele>155.61</ele><time>2026-08-16T12:22:34Z</time></trkpt><trkpt lat="59.3107288890" lon="34.7091795690"><ele>153.78</ele><time>2026-08-16T12:22:52Z</time></trkpt><trkpt lat="59.3106501829" lon="34.7090297844"><ele>154.70</ele><time>2026-08-16T12:23:07Z</time></trkpt><trkpt lat="59.3106247019" lon="34.7087977733"><ele>153.10</ele><time>2026-08-16T12:23:23Z</time></trkpt><trkpt lat="59.3104919326" lon="34.7087544389"><ele>152.60</ele><time>2026-08-16T12:23:39Z</time></trkpt><trkpt lat="59.3103927746" lon="34.7087036446"><ele>151.10</ele><time>2026-08-16T12:23:55Z</time></trkpt><trkpt lat="59.3102873303" lon="34.7085918300"><ele>149.93</ele><time>2026-08-16T12:24:09Z</time></trkpt><trkpt lat="59.3101965543" lon="34.7086288780"><ele>148.38</ele><time>2026-08-16T12:24:27Z</time></trkpt><trkpt lat="59.3100949656" lon="34.7086148802"><ele>147.09</ele><time>2026-08-16T12:24:42Z</time></trkpt><trkpt lat="59.3099538982" lon="34.7085402813"><ele>147.94</ele><time>2026-08-16T12:24:58Z</time></trkpt><trkpt lat="59.3098803051" lon="34.7085654270"><ele>151.04</ele><time>2026-08-16T12:25:15Z</time></trkpt><trkpt lat="59.3097860925" lon="34.7085841186"><ele>152.48</ele><time>2026-08-16T12:25:29Z</time></trkpt><trkpt lat="59.3097172771" lon="34.7085184883"><ele>153.49</ele><time>2026-08-16T12:25:41Z</time></trkpt><trkpt lat="59.3096519820" lon="34.7084122896"><ele>154.79</ele><time>2026-08-16T12:25:53Z</time></trkpt><trkpt lat="59.3095366471" lon="34.7083326615"><ele>154.50</ele><time>2026-08-16T12:26:07Z</time></trkpt><trkpt lat="59.3094693404" lon="34.7082413826"><ele>153.61</ele><time>2026-08-16T12:26:18Z</time></trkpt><trkpt lat="59.3094640598" lon="34.7081155702"><ele>153.20</ele><time>2026-08-16T12:26:32Z</time></trkpt><trkpt lat="59.3094426021" lon="34.7080204356"><ele>153.79</ele><time>2026-08-16T12:26:45Z</time></trkpt><trkpt lat="59.3094079010" lon="34.7078936175"><ele>153.58</ele><time>2026-08-16T12:27:07Z</time></trkpt><trkpt lat="59.3093741219" lon="34.7079185117"><ele>154.73</ele><time>2026-08-16T12:27:29Z</time></trkpt><trkpt lat="59.3093703501" lon="34.7079677973"><ele>153.96</ele><time>2026-08-16T12:27:45Z</time></trkpt><trkpt lat="59.3093089107" lon="34.7080195975"><ele>153.49</ele><time>2026-08-16T12:28:03Z</time></trkpt><trkpt lat="59.3092574459" lon="34.7079814598"><ele>154.15</ele><time>2026-08-16T12:28:21Z</time></trkpt><trkpt lat="59.3092528358" lon="34.7079320904"><ele>154.07</ele><time>2026-08-16T12:28:37Z</time></trkpt><trkpt lat="59.3092166260" lon="34.7080786899"><ele>154.57</ele><time>2026-08-16T12:28:51Z</time></trkpt><trkpt lat="59.3092000298" lon="34.7083202563"><ele>153.52</ele><time>2026-08-16T12:29:05Z</time></trkpt><trkpt lat="59.3092161231" lon="34.7084593121"><ele>151.64</ele><time>2026-08-16T12:29:20Z</time></trkpt><trkpt lat="59.3092515785" lon="34.7085916623"><ele>149.52</ele><time>2026-08-16T12:29:34Z</time></trkpt><trkpt lat="59.3092494830" lon="34.7086069174"><ele>149.34</ele><time>2026-08-16T12:29:37Z</time></trkpt><trkpt lat="59.3091685977" lon="34.7087314725"><ele>148.47</ele><time>2026-08-16T12:29:53Z</time></trkpt><trkpt lat="59.3090752233" lon="34.7087168880"><ele>148.92</ele><time>2026-08-16T12:30:07Z</time></trkpt><trkpt lat="59.3089678511" lon="34.7085609008"><ele>149.19</ele><time>2026-08-16T12:30:24Z</time></trkpt><trkpt lat="59.3089247681" lon="34.7084581386"><ele>148.72</ele><time>2026-08-16T12:30:36Z</time></trkpt><trkpt lat="59.3088423740" lon="34.7083818633"><ele>150.37</ele><time>2026-08-16T12:30:51Z</time></trkpt><trkpt lat="59.3087605666" lon="34.7082861420"><ele>151.30</ele><time>2026-08-16T12:31:00Z</time></trkpt><trkpt lat="59.3086319882" lon="34.7081493493"><ele>152.77</ele><time>2026-08-16T12:31:18Z</time></trkpt><trkpt lat="59.3085474987" lon="34.7080685478"><ele>152.81</ele><time>2026-08-16T12:31:35Z</time></trkpt><trkpt lat="59.3084599078" lon="34.7080131434"><ele>153.29</ele><time>2026-08-16T12:31:49Z</time></trkpt><trkpt lat="59.3083767593" lon="34.7078578267"><ele>152.67</ele><time>2026-08-16T12:32:05Z</time></trkpt><trkpt lat="59.3082875758" lon="34.7077769414"><ele>152.61</ele><time>2026-08-16T12:32:19Z</time></trkpt><trkpt lat="59.3081930280" lon="34.7076693177"><ele>151.95</ele><time>2026-08-16T12:32:35Z</time></trkpt><trkpt lat="59.3081454188" lon="34.7075254843"><ele>151.41</ele><time>2026-08-16T12:32:50Z</time></trkpt><trkpt lat="59.3080398068" lon="34.7074371390"><ele>150.20</ele><time>2026-08-16T12:33:04Z</time></trkpt><trkpt lat="59.3079261482" lon="34.7074406594"><ele>148.55</ele><time>2026-08-16T12:33:18Z</time></trkpt><trkpt lat="59.3078443408" lon="34.7074492928"><ele>147.67</ele><time>2026-08-16T12:33:30Z</time></trkpt><trkpt lat="59.3077420816" lon="34.7075207066"><ele>146.82</ele><time>2026-08-16T12:33:46Z</time></trkpt><trkpt lat="59.3076761160" lon="34.7075707465"><ele>148.11</ele><time>2026-08-16T12:34:03Z</time></trkpt><trkpt lat="59.3076694105" lon="34.7075772006"><ele>148.06</ele><time>2026-08-16T12:34:04Z</time></trkpt><trkpt lat="59.3076218851" lon="34.7076328564"><ele>148.07</ele><time>2026-08-16T12:34:13Z</time></trkpt><trkpt lat="59.3075728510" lon="34.7077402286"><ele>150.94</ele><time>2026-08-16T12:34:33Z</time></trkpt><trkpt lat="59.3075640500" lon="34.7077671345"><ele>152.72</ele><time>2026-08-16T12:34:49Z</time></trkpt><trkpt lat="59.3075959850" lon="34.7077721637"><ele>156.96</ele><time>2026-08-16T12:35:12Z</time></trkpt><trkpt lat="59.3076175265" lon="34.7076574992"><ele>157.09</ele><time>2026-08-16T12:35:28Z</time></trkpt><trkpt lat="59.3076728471" lon="34.7074087244"><ele>156.59</ele><time>2026-08-16T12:35:44Z</time></trkpt><trkpt lat="59.3077186961" lon="34.7072747815"><ele>156.37</ele><time>2026-08-16T12:35:56Z</time></trkpt><trkpt lat="59.3077243119" lon="34.7072608676"><ele>156.17</ele><time>2026-08-16T12:35:57Z</time></trkpt><trkpt lat="59.3077931274" lon="34.7071198840"><ele>154.29</ele><time>2026-08-16T12:36:09Z</time></trkpt><trkpt lat="59.3078054488" lon="34.7069610469"><ele>153.77</ele><time>2026-08-16T12:36:19Z</time></trkpt><trkpt lat="59.3078217097" lon="34.7068447899"><ele>155.37</ele><time>2026-08-16T12:36:35Z</time></trkpt><trkpt lat="59.3078503758" lon="34.7067219950"><ele>154.67</ele><time>2026-08-16T12:36:48Z</time></trkpt><trkpt lat="59.3078711629" lon="34.7065163031"><ele>153.13</ele><time>2026-08-16T12:37:04Z</time></trkpt><trkpt lat="59.3078676425" lon="34.7062665224"><ele>151.23</ele><time>2026-08-16T12:37:20Z</time></trkpt><trkpt lat="59.3078429159" lon="34.7061102837"><ele>151.55</ele><time>2026-08-16T12:37:35Z</time></trkpt><trkpt lat="59.3077994138" lon="34.7058524564"><ele>151.09</ele><time>2026-08-16T12:37:52Z</time></trkpt><trkpt lat="59.3078554887" lon="34.7056276537"><ele>152.23</ele><time>2026-08-16T12:38:11Z</time></trkpt><trkpt lat="59.3079244718" lon="34.7055403143"><ele>152.25</ele><time>2026-08-16T12:38:25Z</time></trkpt><trkpt lat="59.3079195265" lon="34.7053828184"><ele>149.67</ele><time>2026-08-16T12:38:41Z</time></trkpt><trkpt lat="59.3080207799" lon="34.7052352130"><ele>146.56</ele><time>2026-08-16T12:38:58Z</time></trkpt><trkpt lat="59.3081371207" lon="34.7050992586"><ele>145.09</ele><time>2026-08-16T12:39:16Z</time></trkpt><trkpt lat="59.3081175070" lon="34.7050341312"><ele>148.47</ele><time>2026-08-16T12:39:37Z</time></trkpt><trkpt lat="59.3081704807" lon="34.7050120868"><ele>153.03</ele><time>2026-08-16T12:40:01Z</time></trkpt><trkpt lat="59.3082027510" lon="34.7049793974"><ele>156.13</ele><time>2026-08-16T12:40:24Z</time></trkpt><trkpt lat="59.3081618473" lon="34.7049360629"><ele>156.62</ele><time>2026-08-16T12:40:40Z</time></trkpt><trkpt lat="59.3081459217" lon="34.7049177904"><ele>156.97</ele><time>2026-08-16T12:40:45Z</time></trkpt><trkpt lat="59.3080722447" lon="34.7049237415"><ele>157.31</ele><time>2026-08-16T12:41:04Z</time></trkpt><trkpt lat="59.3081281520" lon="34.7048887052"><ele>158.10</ele><time>2026-08-16T12:41:26Z</time></trkpt><trkpt lat="59.3081496097" lon="34.7049132641"><ele>160.13</ele><time>2026-08-16T12:42:14Z</time></trkpt><trkpt lat="59.3082009908" lon="34.7048579436"><ele>161.47</ele><time>2026-08-16T12:42:43Z</time></trkpt><trkpt lat="59.3081472628" lon="34.7048523277"><ele>162.66</ele><time>2026-08-16T12:43:25Z</time></trkpt><trkpt lat="59.3081043474" lon="34.7049026191"><ele>162.22</ele><time>2026-08-16T12:43:49Z</time></trkpt><trkpt lat="59.3080867454" lon="34.7049483005"><ele>160.36</ele><time>2026-08-16T12:44:16Z</time></trkpt><trkpt lat="59.3081413954" lon="34.7049192991"><ele>163.18</ele><time>2026-08-16T12:44:44Z</time></trkpt><trkpt lat="59.3081433233" lon="34.7048968356"><ele>166.13</ele><time>2026-08-16T12:45:36Z</time></trkpt><trkpt lat="59.3081517890" lon="34.7049158625"><ele>164.88</ele><time>2026-08-16T12:46:21Z</time></trkpt><trkpt lat="59.3080874998" lon="34.7049175389"><ele>163.75</ele><time>2026-08-16T12:46:44Z</time></trkpt><trkpt lat="59.3081192672" lon="34.7049348056"><ele>162.98</ele><time>2026-08-16T12:47:10Z</time></trkpt><trkpt lat="59.3081773538" lon="34.7049199697"><ele>158.92</ele><time>2026-08-16T12:47:37Z</time></trkpt><trkpt lat="59.3081602547" lon="34.7049593646"><ele>158.67</ele><time>2026-08-16T12:47:55Z</time></trkpt><trkpt lat="59.3081634399" lon="34.7049102467"><ele>159.61</ele><time>2026-08-16T12:48:12Z</time></trkpt><trkpt lat="59.3081944529" lon="34.7048836760"><ele>159.92</ele><time>2026-08-16T12:48:27Z</time></trkpt><trkpt lat="59.3082504440" lon="34.7048428562"><ele>159.99</ele><time>2026-08-16T12:48:37Z</time></trkpt><trkpt lat="59.3083507754" lon="34.7048508190"><ele>159.09</ele><time>2026-08-16T12:48:51Z</time></trkpt><trkpt lat="59.3084353488" lon="34.7046718653"><ele>158.28</ele><time>2026-08-16T12:49:06Z</time></trkpt><trkpt lat="59.3084998894" lon="34.7045748867"><ele>157.45</ele><time>2026-08-16T12:49:20Z</time></trkpt><trkpt lat="59.3086152244" lon="34.7045213263"><ele>154.08</ele><time>2026-08-16T12:49:36Z</time></trkpt><trkpt lat="59.3086311501" lon="34.7043655068"><ele>151.85</ele><time>2026-08-16T12:49:49Z</time></trkpt><trkpt lat="59.3086680304" lon="34.7042265348"><ele>150.04</ele><time>2026-08-16T12:50:03Z</time></trkpt><trkpt lat="59.3086998817" lon="34.7040077671"><ele>146.96</ele><time>2026-08-16T12:50:20Z</time></trkpt><trkpt lat="59.3087180704" lon="34.7039320786"><ele>147.00</ele><time>2026-08-16T12:50:35Z</time></trkpt><trkpt lat="59.3087563757" lon="34.7037642729"><ele>148.83</ele><time>2026-08-16T12:50:49Z</time></trkpt><trkpt lat="59.3087894004" lon="34.7037037555"><ele>149.03</ele><time>2026-08-16T12:51:03Z</time></trkpt><trkpt lat="59.3088272866" lon="34.7036895063"><ele>147.12</ele><time>2026-08-16T12:51:20Z</time></trkpt><trkpt lat="59.3088614848" lon="34.7036742512"><ele>147.21</ele><time>2026-08-16T12:51:28Z</time></trkpt><trkpt lat="59.3088983651" lon="34.7036028374"><ele>147.14</ele><time>2026-08-16T12:51:46Z</time></trkpt><trkpt lat="59.3088893127" lon="34.7036153264"><ele>149.72</ele><time>2026-08-16T12:52:05Z</time></trkpt><trkpt lat="59.3088950962" lon="34.7036687192"><ele>153.03</ele><time>2026-08-16T12:52:29Z</time></trkpt><trkpt lat="59.3089721259" lon="34.7036135662"><ele>153.54</ele><time>2026-08-16T12:52:41Z</time></trkpt><trkpt lat="59.3089845311" lon="34.7036153264"><ele>153.57</ele><time>2026-08-16T12:52:43Z</time></trkpt><trkpt lat="59.3090875447" lon="34.7035577428"><ele>153.60</ele><time>2026-08-16T12:52:57Z</time></trkpt><trkpt lat="59.3091770634" lon="34.7033859976"><ele>153.23</ele><time>2026-08-16T12:53:10Z</time></trkpt><trkpt lat="59.3092736229" lon="34.7034273203"><ele>151.57</ele><time>2026-08-16T12:53:25Z</time></trkpt><trkpt lat="59.3092690967" lon="34.7036294919"><ele>148.17</ele><time>2026-08-16T12:53:39Z</time></trkpt><trkpt lat="59.3092735391" lon="34.7037755046"><ele>146.82</ele><time>2026-08-16T12:53:51Z</time></trkpt><trkpt lat="59.3093514070" lon="34.7038915940"><ele>147.79</ele><time>2026-08-16T12:54:05Z</time></trkpt><trkpt lat="59.3094287720" lon="34.7039646842"><ele>145.71</ele><time>2026-08-16T12:54:21Z</time></trkpt><trkpt lat="59.3094936479" lon="34.7040912509"><ele>144.32</ele><time>2026-08-16T12:54:36Z</time></trkpt><trkpt lat="59.3095836695" lon="34.7042743117"><ele>142.82</ele><time>2026-08-16T12:54:52Z</time></trkpt><trkpt lat="59.3096313626" lon="34.7044833563"><ele>138.77</ele><time>2026-08-16T12:55:07Z</time></trkpt><trkpt lat="59.3097440992" lon="34.7045911476"><ele>136.12</ele><time>2026-08-16T12:55:21Z</time></trkpt><trkpt lat="59.3098375574" lon="34.7044621501"><ele>135.07</ele><time>2026-08-16T12:55:36Z</time></trkpt><trkpt lat="59.3099303450" lon="34.7043764032"><ele>135.13</ele><time>2026-08-16T12:55:51Z</time></trkpt><trkpt lat="59.3100787885" lon="34.7043504193"><ele>134.89</ele><time>2026-08-16T12:56:06Z</time></trkpt><trkpt lat="59.3101335224" lon="34.7042001318"><ele>139.11</ele><time>2026-08-16T12:56:21Z</time></trkpt><trkpt lat="59.3101019226" lon="34.7041344177"><ele>142.43</ele><time>2026-08-16T12:56:34Z</time></trkpt><trkpt lat="59.3100610189" lon="34.7041738965"><ele>147.73</ele><time>2026-08-16T12:56:55Z</time></trkpt><trkpt lat="59.3100740109" lon="34.7041910794"><ele>148.15</ele><time>2026-08-16T12:57:10Z</time></trkpt><trkpt lat="59.3100492842" lon="34.7041898221"><ele>149.63</ele><time>2026-08-16T12:57:23Z</time></trkpt><trkpt lat="59.3101113103" lon="34.7041907441"><ele>151.28</ele><time>2026-08-16T12:57:42Z</time></trkpt><trkpt lat="59.3101840653" lon="34.7042532731"><ele>151.94</ele><time>2026-08-16T12:57:56Z</time></trkpt><trkpt lat="59.3101975601" lon="34.7043149639"><ele>153.29</ele><time>2026-08-16T12:58:17Z</time></trkpt><trkpt lat="59.3101907708" lon="34.7043777443"><ele>155.04</ele><time>2026-08-16T12:58:30Z</time></trkpt><trkpt lat="59.3102417327" lon="34.7043580469"><ele>157.15</ele><time>2026-08-16T12:58:45Z</time></trkpt><trkpt lat="59.3102053553" lon="34.7043028940"><ele>158.56</ele><time>2026-08-16T12:58:59Z</time></trkpt><trkpt lat="59.3101991527" lon="34.7042682767"><ele>159.46</ele><time>2026-08-16T12:59:06Z</time></trkpt><trkpt lat="59.3101439998" lon="34.7041578032"><ele>160.87</ele><time>2026-08-16T12:59:25Z</time></trkpt><trkpt lat="59.3101624399" lon="34.7039272171"><ele>159.86</ele><time>2026-08-16T12:59:37Z</time></trkpt><trkpt lat="59.3101412337" lon="34.7036179248"><ele>158.60</ele><time>2026-08-16T12:59:55Z</time></trkpt><trkpt lat="59.3100780342" lon="34.7034089640"><ele>157.66</ele><time>2026-08-16T13:00:14Z</time></trkpt><trkpt lat="59.3100685626" lon="34.7031507175"><ele>156.78</ele><time>2026-08-16T13:00:31Z</time></trkpt><trkpt lat="59.3100512121" lon="34.7029150184"><ele>155.47</ele><time>2026-08-16T13:00:47Z</time></trkpt><trkpt lat="59.3100429140" lon="34.7028431855"><ele>156.58</ele><time>2026-08-16T13:01:02Z</time></trkpt><trkpt lat="59.3101144116" lon="34.7026302014"><ele>156.97</ele><time>2026-08-16T13:01:13Z</time></trkpt><trkpt lat="59.3101566564" lon="34.7023049835"><ele>157.31</ele><time>2026-08-16T13:01:30Z</time></trkpt><trkpt lat="59.3101000786" lon="34.7019490041"><ele>157.12</ele><time>2026-08-16T13:01:48Z</time></trkpt><trkpt lat="59.3100849912" lon="34.7017508559"><ele>158.93</ele><time>2026-08-16T13:02:03Z</time></trkpt><trkpt lat="59.3099906947" lon="34.7015091218"><ele>160.38</ele><time>2026-08-16T13:02:18Z</time></trkpt><trkpt lat="59.3099374697" lon="34.7013511229"><ele>160.09</ele><time>2026-08-16T13:02:31Z</time></trkpt><trkpt lat="59.3099274952" lon="34.7011322714"><ele>160.25</ele><time>2026-08-16T13:02:48Z</time></trkpt><trkpt lat="59.3098873459" lon="34.7010514699"><ele>163.71</ele><time>2026-08-16T13:03:09Z</time></trkpt><trkpt lat="59.3098945543" lon="34.7010737658"><ele>165.49</ele><time>2026-08-16T13:03:27Z</time></trkpt><trkpt lat="59.3098590989" lon="34.7010765318"><ele>165.47</ele><time>2026-08-16T13:03:49Z</time></trkpt><trkpt lat="59.3098619487" lon="34.7010466084"><ele>167.42</ele><time>2026-08-16T13:04:09Z</time></trkpt><trkpt lat="59.3098012637" lon="34.7009966522"><ele>166.64</ele><time>2026-08-16T13:04:23Z</time></trkpt><trkpt lat="59.3097474519" lon="34.7008650564"><ele>165.70</ele><time>2026-08-16T13:04:37Z</time></trkpt><trkpt lat="59.3096537422" lon="34.7007738613"><ele>166.24</ele><time>2026-08-16T13:04:55Z</time></trkpt><trkpt lat="59.3095222302" lon="34.7006528266"><ele>165.08</ele><time>2026-08-16T13:05:10Z</time></trkpt><trkpt lat="59.3094097450" lon="34.7005782276"><ele>164.56</ele><time>2026-08-16T13:05:25Z</time></trkpt><trkpt lat="59.3092848547" lon="34.7005146928"><ele>163.47</ele><time>2026-08-16T13:05:39Z</time></trkpt><trkpt lat="59.3091416080" lon="34.7004158702"><ele>162.29</ele><time>2026-08-16T13:05:54Z</time></trkpt><trkpt lat="59.3090095092" lon="34.7002300434"><ele>160.78</ele><time>2026-08-16T13:06:10Z</time></trkpt><trkpt lat="59.3089276180" lon="34.7002028022"><ele>158.93</ele><time>2026-08-16T13:06:23Z</time></trkpt><trkpt lat="59.3088803440" lon="34.7002323065"><ele>157.46</ele><time>2026-08-16T13:06:34Z</time></trkpt><trkpt lat="59.3087816052" lon="34.7002687678"><ele>157.52</ele><time>2026-08-16T13:06:48Z</time></trkpt><trkpt lat="59.3086781725" lon="34.7002245951"><ele>157.28</ele><time>2026-08-16T13:07:02Z</time></trkpt><trkpt lat="59.3086114526" lon="34.7001064941"><ele>157.00</ele><time>2026-08-16T13:07:15Z</time></trkpt><trkpt lat="59.3085922580" lon="34.7000270337"><ele>156.81</ele><time>2026-08-16T13:07:19Z</time></trkpt><trkpt lat="59.3085080199" lon="34.6997412946"><ele>155.76</ele><time>2026-08-16T13:07:35Z</time></trkpt><trkpt lat="59.3085034937" lon="34.6996554639"><ele>155.93</ele><time>2026-08-16T13:07:49Z</time></trkpt><trkpt lat="59.3084986322" lon="34.6997211780"><ele>157.05</ele><time>2026-08-16T13:08:04Z</time></trkpt><trkpt lat="59.3084902503" lon="34.6997575555"><ele>158.53</ele><time>2026-08-16T13:08:23Z</time></trkpt><trkpt lat="59.3085020687" lon="34.6997580584"><ele>160.90</ele><time>2026-08-16T13:08:50Z</time></trkpt><trkpt lat="59.3084725644" lon="34.6997407917"><ele>162.37</ele><time>2026-08-16T13:09:05Z</time></trkpt><trkpt lat="59.3084267154" lon="34.6997692063"><ele>162.78</ele><time>2026-08-16T13:09:19Z</time></trkpt><trkpt lat="59.3082963768" lon="34.6997961123"><ele>162.90</ele><time>2026-08-16T13:09:33Z</time></trkpt><trkpt lat="59.3083651923" lon="34.6997792646"><ele>162.99</ele><time>2026-08-16T13:09:45Z</time></trkpt><trkpt lat="59.3083900027" lon="34.6997706313"><ele>163.03</ele><time>2026-08-16T13:09:48Z</time></trkpt><trkpt lat="59.3084288947" lon="34.6997480839"><ele>163.01</ele><time>2026-08-16T13:09:52Z</time></trkpt><trkpt lat="59.3084993027" lon="34.6997472458"><ele>162.93</ele><time>2026-08-16T13:09:59Z</time></trkpt><trkpt lat="59.3085687049" lon="34.6997042466"><ele>162.80</ele><time>2026-08-16T13:10:05Z</time></trkpt><trkpt lat="59.3085816130" lon="34.6996979602"><ele>162.54</ele><time>2026-08-16T13:10:07Z</time></trkpt><trkpt lat="59.3086999655" lon="34.6996469982"><ele>159.37</ele><time>2026-08-16T13:10:21Z</time></trkpt><trkpt lat="59.3087375164" lon="34.6996464115"><ele>158.98</ele><time>2026-08-16T13:10:24Z</time></trkpt><trkpt lat="59.3089391012" lon="34.6996153146"><ele>156.91</ele><time>2026-08-16T13:10:47Z</time></trkpt><trkpt lat="59.3090670090" lon="34.6995819546"><ele>156.62</ele><time>2026-08-16T13:11:03Z</time></trkpt><trkpt lat="59.3091610540" lon="34.6995852236"><ele>155.81</ele><time>2026-08-16T13:11:12Z</time></trkpt><trkpt lat="59.3092349824" lon="34.6995758358"><ele>154.38</ele><time>2026-08-16T13:11:21Z</time></trkpt><trkpt lat="59.3093954958" lon="34.6994639374"><ele>154.94</ele><time>2026-08-16T13:11:39Z</time></trkpt><trkpt lat="59.3095363956" lon="34.6994002350"><ele>153.65</ele><time>2026-08-16T13:11:54Z</time></trkpt><trkpt lat="59.3097048718" lon="34.6993365325"><ele>152.00</ele><time>2026-08-16T13:12:10Z</time></trkpt><trkpt lat="59.3098202907" lon="34.6992542222"><ele>149.77</ele><time>2026-08-16T13:12:25Z</time></trkpt><trkpt lat="59.3100205343" lon="34.6992342733"><ele>149.40</ele><time>2026-08-16T13:12:41Z</time></trkpt><trkpt lat="59.3101755995" lon="34.6991366241"><ele>152.26</ele><time>2026-08-16T13:12:54Z</time></trkpt><trkpt lat="59.3102637772" lon="34.6990435850"><ele>154.00</ele><time>2026-08-16T13:13:03Z</time></trkpt><trkpt lat="59.3103899248" lon="34.6989628673"><ele>155.60</ele><time>2026-08-16T13:13:17Z</time></trkpt><trkpt lat="59.3104803655" lon="34.6988518909"><ele>154.92</ele><time>2026-08-16T13:13:29Z</time></trkpt><trkpt lat="59.3105351832" lon="34.6988505498"><ele>154.78</ele><time>2026-08-16T13:13:38Z</time></trkpt><trkpt lat="59.3106676172" lon="34.6989077982"><ele>155.96</ele><time>2026-08-16T13:13:54Z</time></trkpt><trkpt lat="59.3107610755" lon="34.6989416610"><ele>156.67</ele><time>2026-08-16T13:14:10Z</time></trkpt><trkpt lat="59.3108011410" lon="34.6989389788"><ele>163.71</ele><time>2026-08-16T13:14:33Z</time></trkpt><trkpt lat="59.3108062539" lon="34.6989427507"><ele>164.09</ele><time>2026-08-16T13:14:34Z</time></trkpt><trkpt lat="59.3108382728" lon="34.6989269089"><ele>170.18</ele><time>2026-08-16T13:14:52Z</time></trkpt><trkpt lat="59.3108156417" lon="34.6988735162"><ele>169.23</ele><time>2026-08-16T13:15:16Z</time></trkpt><trkpt lat="59.3108306453" lon="34.6989465225"><ele>168.14</ele><time>2026-08-16T13:15:32Z</time></trkpt><trkpt lat="59.3108578026" lon="34.6990238875"><ele>170.28</ele><time>2026-08-16T13:15:54Z</time></trkpt><trkpt lat="59.3108996283" lon="34.6990710776"><ele>170.69</ele><time>2026-08-16T13:16:05Z</time></trkpt><trkpt lat="59.3109821901" lon="34.6990845725"><ele>170.10</ele><time>2026-08-16T13:16:16Z</time></trkpt><trkpt lat="59.3111102656" lon="34.6991041861"><ele>167.55</ele><time>2026-08-16T13:16:33Z</time></trkpt><trkpt lat="59.3112069927" lon="34.6990864165"><ele>165.27</ele><time>2026-08-16T13:16:46Z</time></trkpt><trkpt lat="59.3113086652" lon="34.6990989894"><ele>164.06</ele><time>2026-08-16T13:16:56Z</time></trkpt><trkpt lat="59.3114571087" lon="34.6991358697"><ele>162.25</ele><time>2026-08-16T13:17:14Z</time></trkpt><trkpt lat="59.3115439452" lon="34.6991382167"><ele>162.20</ele><time>2026-08-16T13:17:24Z</time></trkpt><trkpt lat="59.3116449472" lon="34.6992342733"><ele>161.25</ele><time>2026-08-16T13:17:37Z</time></trkpt><trkpt lat="59.3117214739" lon="34.6993049327"><ele>159.22</ele><time>2026-08-16T13:17:51Z</time></trkpt><trkpt lat="59.3118698336" lon="34.6994959563"><ele>157.64</ele><time>2026-08-16T13:18:06Z</time></trkpt><trkpt lat="59.3120337836" lon="34.6995220240"><ele>157.95</ele><time>2026-08-16T13:18:20Z</time></trkpt><trkpt lat="59.3121942971" lon="34.6994944476"><ele>158.70</ele><time>2026-08-16T13:18:35Z</time></trkpt><trkpt lat="59.3123195227" lon="34.6995363571"><ele>158.10</ele><time>2026-08-16T13:18:49Z</time></trkpt><trkpt lat="59.3124304153" lon="34.6995522827"><ele>158.57</ele><time>2026-08-16T13:19:02Z</time></trkpt><trkpt lat="59.3125148211" lon="34.6995856427"><ele>158.07</ele><time>2026-08-16T13:19:12Z</time></trkpt><trkpt lat="59.3125869893" lon="34.6995826252"><ele>158.84</ele><time>2026-08-16T13:19:24Z</time></trkpt><trkpt lat="59.3127222732" lon="34.6996079385"><ele>163.63</ele><time>2026-08-16T13:19:39Z</time></trkpt><trkpt lat="59.3127290625" lon="34.6995864809"><ele>167.30</ele><time>2026-08-16T13:20:01Z</time></trkpt><trkpt lat="59.3127517775" lon="34.6997438092"><ele>174.14</ele><time>2026-08-16T13:20:28Z</time></trkpt><trkpt lat="59.3128465768" lon="34.6997934300"><ele>174.22</ele><time>2026-08-16T13:20:44Z</time></trkpt><trkpt lat="59.3129314017" lon="34.7000177298"><ele>173.28</ele><time>2026-08-16T13:21:01Z</time></trkpt><trkpt lat="59.3129436392" lon="34.6999970265"><ele>173.78</ele><time>2026-08-16T13:21:16Z</time></trkpt><trkpt lat="59.3128855526" lon="34.6998401172"><ele>173.64</ele><time>2026-08-16T13:21:37Z</time></trkpt><trkpt lat="59.3127757497" lon="34.6996224392"><ele>173.68</ele><time>2026-08-16T13:21:56Z</time></trkpt><trkpt lat="59.3126187567" lon="34.6995730698"><ele>172.31</ele><time>2026-08-16T13:22:16Z</time></trkpt><trkpt lat="59.3124623504" lon="34.6995370276"><ele>170.01</ele><time>2026-08-16T13:22:32Z</time></trkpt><trkpt lat="59.3124247994" lon="34.6995345131"><ele>169.70</ele><time>2026-08-16T13:22:34Z</time></trkpt><trkpt lat="59.3123320956" lon="34.6995131392"><ele>168.81</ele><time>2026-08-16T13:22:44Z</time></trkpt><trkpt lat="59.3122343626" lon="34.6994854789"><ele>167.87</ele><time>2026-08-16T13:22:54Z</time></trkpt><trkpt lat="59.3120736815" lon="34.6994949505"><ele>166.12</ele><time>2026-08-16T13:23:09Z</time></trkpt><trkpt lat="59.3120555766" lon="34.6994937770"><ele>165.84</ele><time>2026-08-16T13:23:11Z</time></trkpt><trkpt lat="59.3119008467" lon="34.6994894184"><ele>164.49</ele><time>2026-08-16T13:23:29Z</time></trkpt><trkpt lat="59.3118586857" lon="34.6994571481"><ele>164.26</ele><time>2026-08-16T13:23:33Z</time></trkpt><trkpt lat="59.3117957376" lon="34.6992873307"><ele>166.10</ele><time>2026-08-16T13:23:55Z</time></trkpt><trkpt lat="59.3117752019" lon="34.6993071120"><ele>168.54</ele><time>2026-08-16T13:24:11Z</time></trkpt><trkpt lat="59.3117304426" lon="34.6993248817"><ele>170.60</ele><time>2026-08-16T13:24:34Z</time></trkpt><trkpt lat="59.3116272613" lon="34.6992122289"><ele>170.27</ele><time>2026-08-16T13:24:49Z</time></trkpt><trkpt lat="59.3115894590" lon="34.6991294995"><ele>170.55</ele><time>2026-08-16T13:24:59Z</time></trkpt><trkpt lat="59.3115952425" lon="34.6990140807"><ele>171.67</ele><time>2026-08-16T13:25:14Z</time></trkpt><trkpt lat="59.3115904648" lon="34.6988040302"><ele>171.31</ele><time>2026-08-16T13:25:28Z</time></trkpt><trkpt lat="59.3115685880" lon="34.6985616256"><ele>170.58</ele><time>2026-08-16T13:25:41Z</time></trkpt><trkpt lat="59.3115389161" lon="34.6984700952"><ele>170.31</ele><time>2026-08-16T13:25:46Z</time></trkpt><trkpt lat="59.3114934862" lon="34.6982404310"><ele>168.67</ele><time>2026-08-16T13:26:01Z</time></trkpt><trkpt lat="59.3115216494" lon="34.6979901474"><ele>167.31</ele><time>2026-08-16T13:26:16Z</time></trkpt><trkpt lat="59.3115768023" lon="34.6977210883"><ele>165.42</ele><time>2026-08-16T13:26:32Z</time></trkpt><trkpt lat="59.3116400857" lon="34.6974353492"><ele>163.49</ele><time>2026-08-16T13:26:49Z</time></trkpt><trkpt lat="59.3116457853" lon="34.6972285677"><ele>162.96</ele><time>2026-08-16T13:27:06Z</time></trkpt><trkpt lat="59.3115999363" lon="34.6970786154"><ele>163.04</ele><time>2026-08-16T13:27:20Z</time></trkpt><trkpt lat="59.3115638942" lon="34.6969648730"><ele>163.00</ele><time>2026-08-16T13:27:33Z</time></trkpt><trkpt lat="59.3115281872" lon="34.6967404056"><ele>162.83</ele><time>2026-08-16T13:27:48Z</time></trkpt><trkpt lat="59.3115149438" lon="34.6966671478"><ele>164.77</ele><time>2026-08-16T13:28:05Z</time></trkpt><trkpt lat="59.3114997726" lon="34.6966692433"><ele>166.71</ele><time>2026-08-16T13:28:26Z</time></trkpt><trkpt lat="59.3115011137" lon="34.6965935547"><ele>168.75</ele><time>2026-08-16T13:28:49Z</time></trkpt><trkpt lat="59.3114928156" lon="34.6964726038"><ele>168.77</ele><time>2026-08-16T13:29:03Z</time></trkpt><trkpt lat="59.3115690071" lon="34.6963842586"><ele>168.81</ele><time>2026-08-16T13:29:18Z</time></trkpt><trkpt lat="59.3116549216" lon="34.6962253377"><ele>169.29</ele><time>2026-08-16T13:29:35Z</time></trkpt><trkpt lat="59.3117443565" lon="34.6960913111"><ele>168.64</ele><time>2026-08-16T13:29:50Z</time></trkpt><trkpt lat="59.3118313607" lon="34.6959569491"><ele>167.99</ele><time>2026-08-16T13:30:05Z</time></trkpt><trkpt lat="59.3118743598" lon="34.6958225872"><ele>167.22</ele><time>2026-08-16T13:30:17Z</time></trkpt><trkpt lat="59.3118679058" lon="34.6957293805"><ele>167.22</ele><time>2026-08-16T13:30:30Z</time></trkpt><trkpt lat="59.3118315283" lon="34.6955654304"><ele>167.37</ele><time>2026-08-16T13:30:43Z</time></trkpt><trkpt lat="59.3118082266" lon="34.6952333394"><ele>166.93</ele><time>2026-08-16T13:31:01Z</time></trkpt><trkpt lat="59.3118139263" lon="34.6950227022"><ele>166.76</ele><time>2026-08-16T13:31:12Z</time></trkpt><trkpt lat="59.3118881900" lon="34.6948311757"><ele>166.85</ele><time>2026-08-16T13:31:27Z</time></trkpt><trkpt lat="59.3119348772" lon="34.6946696565"><ele>166.21</ele><time>2026-08-16T13:31:42Z</time></trkpt><trkpt lat="59.3119407445" lon="34.6946140006"><ele>166.30</ele><time>2026-08-16T13:31:50Z</time></trkpt><trkpt lat="59.3119746074" lon="34.6946547367"><ele>167.45</ele><time>2026-08-16T13:32:17Z</time></trkpt><trkpt lat="59.3120255694" lon="34.6946740989"><ele>171.18</ele><time>2026-08-16T13:32:35Z</time></trkpt><trkpt lat="59.3119959813" lon="34.6946059540"><ele>172.38</ele><time>2026-08-16T13:32:57Z</time></trkpt><trkpt lat="59.3119803071" lon="34.6945285890"><ele>174.24</ele><time>2026-08-16T13:33:10Z</time></trkpt><trkpt lat="59.3119743560" lon="34.6945047844"><ele>175.85</ele><time>2026-08-16T13:33:25Z</time></trkpt><trkpt lat="59.3119274173" lon="34.6943898685"><ele>175.50</ele><time>2026-08-16T13:33:46Z</time></trkpt><trkpt lat="59.3118357193" lon="34.6943962388"><ele>174.89</ele><time>2026-08-16T13:34:00Z</time></trkpt><trkpt lat="59.3117088173" lon="34.6943476237"><ele>173.75</ele><time>2026-08-16T13:34:13Z</time></trkpt><trkpt lat="59.3116312008" lon="34.6944580972"><ele>171.72</ele><time>2026-08-16T13:34:26Z</time></trkpt><trkpt lat="59.3114794884" lon="34.6944725141"><ele>171.25</ele><time>2026-08-16T13:34:42Z</time></trkpt><trkpt lat="59.3113702722" lon="34.6945033595"><ele>170.40</ele><time>2026-08-16T13:34:58Z</time></trkpt><trkpt lat="59.3113599624" lon="34.6945052873"><ele>170.36</ele><time>2026-08-16T13:34:59Z</time></trkpt><trkpt lat="59.3112313002" lon="34.6946616098"><ele>169.52</ele><time>2026-08-16T13:35:15Z</time></trkpt><trkpt lat="59.3111057393" lon="34.6947135776"><ele>167.75</ele><time>2026-08-16T13:35:31Z</time></trkpt><trkpt lat="59.3109490816" lon="34.6947149187"><ele>166.53</ele><time>2026-08-16T13:35:49Z</time></trkpt><trkpt lat="59.3108422123" lon="34.6948243864"><ele>166.51</ele><time>2026-08-16T13:36:04Z</time></trkpt><trkpt lat="59.3107406236" lon="34.6949067805"><ele>166.06</ele><time>2026-08-16T13:36:18Z</time></trkpt><trkpt lat="59.3106258754" lon="34.6949883364"><ele>165.65</ele><time>2026-08-16T13:36:32Z</time></trkpt><trkpt lat="59.3104681280" lon="34.6950579062"><ele>165.23</ele><time>2026-08-16T13:36:49Z</time></trkpt><trkpt lat="59.3104010727" lon="34.6951978840"><ele>164.68</ele><time>2026-08-16T13:37:03Z</time></trkpt><trkpt lat="59.3103418127" lon="34.6952142287"><ele>164.40</ele><time>2026-08-16T13:37:15Z</time></trkpt><trkpt lat="59.3102698121" lon="34.6951089520"><ele>166.63</ele><time>2026-08-16T13:37:38Z</time></trkpt><trkpt lat="59.3102999870" lon="34.6951730736"><ele>169.02</ele><time>2026-08-16T13:37:56Z</time></trkpt><trkpt lat="59.3103140686" lon="34.6952128038"><ele>170.43</ele><time>2026-08-16T13:38:21Z</time></trkpt><trkpt lat="59.3103621807" lon="34.6950387955"><ele>170.00</ele><time>2026-08-16T13:38:33Z</time></trkpt><trkpt lat="59.3104026653" lon="34.6948253084"><ele>169.25</ele><time>2026-08-16T13:38:47Z</time></trkpt><trkpt lat="59.3104260508" lon="34.6945428383"><ele>168.82</ele><time>2026-08-16T13:39:04Z</time></trkpt><trkpt lat="59.3104522862" lon="34.6943498030"><ele>168.74</ele><time>2026-08-16T13:39:18Z</time></trkpt><trkpt lat="59.3104782701" lon="34.6940861084"><ele>168.56</ele><time>2026-08-16T13:39:35Z</time></trkpt><trkpt lat="59.3104801979" lon="34.6938840207"><ele>168.43</ele><time>2026-08-16T13:39:48Z</time></trkpt><trkpt lat="59.3104919326" lon="34.6937526762"><ele>168.20</ele><time>2026-08-16T13:40:00Z</time></trkpt><trkpt lat="59.3105353508" lon="34.6935937554"><ele>167.51</ele><time>2026-08-16T13:40:13Z</time></trkpt><trkpt lat="59.3105278909" lon="34.6934635844"><ele>167.15</ele><time>2026-08-16T13:40:22Z</time></trkpt><trkpt lat="59.3104992248" lon="34.6933519375"><ele>166.62</ele><time>2026-08-16T13:40:31Z</time></trkpt><trkpt lat="59.3105327524" lon="34.6930911765"><ele>166.59</ele><time>2026-08-16T13:40:47Z</time></trkpt><trkpt lat="59.3106282223" lon="34.6929443255"><ele>165.10</ele><time>2026-08-16T13:41:04Z</time></trkpt><trkpt lat="59.3107603211" lon="34.6928822156"><ele>163.75</ele><time>2026-08-16T13:41:20Z</time></trkpt><trkpt lat="59.3108532764" lon="34.6927556489"><ele>162.56</ele><time>2026-08-16T13:41:35Z</time></trkpt><trkpt lat="59.3109363411" lon="34.6926900186"><ele>161.28</ele><time>2026-08-16T13:41:50Z</time></trkpt><trkpt lat="59.3110209983" lon="34.6926678065"><ele>159.87</ele><time>2026-08-16T13:42:07Z</time></trkpt><trkpt lat="59.3110456411" lon="34.6927152481"><ele>164.68</ele><time>2026-08-16T13:42:30Z</time></trkpt><trkpt lat="59.3110233452" lon="34.6926986519"><ele>166.01</ele><time>2026-08-16T13:42:39Z</time></trkpt><trkpt lat="59.3110098504" lon="34.6926290821"><ele>168.61</ele><time>2026-08-16T13:43:00Z</time></trkpt><trkpt lat="59.3110810127" lon="34.6925360430"><ele>169.98</ele><time>2026-08-16T13:43:18Z</time></trkpt><trkpt lat="59.3111926597" lon="34.6924561635"><ele>170.12</ele><time>2026-08-16T13:43:33Z</time></trkpt><trkpt lat="59.3112907279" lon="34.6924051177"><ele>169.56</ele><time>2026-08-16T13:43:45Z</time></trkpt><trkpt lat="59.3114505708" lon="34.6923493780"><ele>167.73</ele><time>2026-08-16T13:44:03Z</time></trkpt><trkpt lat="59.3115306180" lon="34.6923309378"><ele>167.17</ele><time>2026-08-16T13:44:17Z</time></trkpt><trkpt lat="59.3116715178" lon="34.6923243999"><ele>166.61</ele><time>2026-08-16T13:44:32Z</time></trkpt><trkpt lat="59.3118004315" lon="34.6923631243"><ele>165.97</ele><time>2026-08-16T13:44:48Z</time></trkpt><trkpt lat="59.3119055405" lon="34.6924239770"><ele>165.56</ele><time>2026-08-16T13:45:00Z</time></trkpt><trkpt lat="59.3119752780" lon="34.6924610250"><ele>164.60</ele><time>2026-08-16T13:45:13Z</time></trkpt><trkpt lat="59.3120480329" lon="34.6924265753"><ele>163.59</ele><time>2026-08-16T13:45:25Z</time></trkpt><trkpt lat="59.3121337797" lon="34.6921843383"><ele>162.24</ele><time>2026-08-16T13:45:42Z</time></trkpt><trkpt lat="59.3122178502" lon="34.6920284349"><ele>161.07</ele><time>2026-08-16T13:45:59Z</time></trkpt><trkpt lat="59.3122990709" lon="34.6918948274"><ele>158.71</ele><time>2026-08-16T13:46:14Z</time></trkpt><trkpt lat="59.3123539723" lon="34.6918573603"><ele>160.59</ele><time>2026-08-16T13:46:32Z</time></trkpt><trkpt lat="59.3123338558" lon="34.6918234974"><ele>161.24</ele><time>2026-08-16T13:46:34Z</time></trkpt><trkpt lat="59.3122792058" lon="34.6916991938"><ele>164.63</ele><time>2026-08-16T13:46:52Z</time></trkpt><trkpt lat="59.3123339396" lon="34.6918036323"><ele>170.71</ele><time>2026-08-16T13:47:14Z</time></trkpt><trkpt lat="59.3123081233" lon="34.6916669235"><ele>171.85</ele><time>2026-08-16T13:47:35Z</time></trkpt><trkpt lat="59.3122647051" lon="34.6916585416"><ele>172.30</ele><time>2026-08-16T13:47:51Z</time></trkpt><trkpt lat="59.3122973945" lon="34.6915304661"><ele>171.95</ele><time>2026-08-16T13:48:06Z</time></trkpt><trkpt lat="59.3123208638" lon="34.6914906520"><ele>172.32</ele><time>2026-08-16T13:48:22Z</time></trkpt><trkpt lat="59.3122579996" lon="34.6915389318"><ele>172.40</ele><time>2026-08-16T13:48:34Z</time></trkpt><trkpt lat="59.3122282438" lon="34.6915028058"><ele>171.72</ele><time>2026-08-16T13:48:56Z</time></trkpt><trkpt lat="59.3123067822" lon="34.6914914902"><ele>171.97</ele><time>2026-08-16T13:49:19Z</time></trkpt><trkpt lat="59.3123222049" lon="34.6914242674"><ele>174.17</ele><time>2026-08-16T13:49:43Z</time></trkpt><trkpt lat="59.3123204447" lon="34.6914266143"><ele>177.27</ele><time>2026-08-16T13:50:07Z</time></trkpt><trkpt lat="59.3121998291" lon="34.6914795879"><ele>179.84</ele><time>2026-08-16T13:50:33Z</time></trkpt><trkpt lat="59.3121789582" lon="34.6915158816"><ele>182.06</ele><time>2026-08-16T13:50:55Z</time></trkpt><trkpt lat="59.3122384697" lon="34.6915505826"><ele>182.16</ele><time>2026-08-16T13:51:22Z</time></trkpt><trkpt lat="59.3122341949" lon="34.6914790012"><ele>184.03</ele><time>2026-08-16T13:51:49Z</time></trkpt><trkpt lat="59.3122387212" lon="34.6914642490"><ele>182.32</ele><time>2026-08-16T13:52:10Z</time></trkpt><trkpt lat="59.3122212030" lon="34.6914814319"><ele>180.72</ele><time>2026-08-16T13:52:35Z</time></trkpt><trkpt lat="59.3121679779" lon="34.6914703678"><ele>178.42</ele><time>2026-08-16T13:53:00Z</time></trkpt><trkpt lat="59.3121958058" lon="34.6915154625"><ele>178.64</ele><time>2026-08-16T13:53:21Z</time></trkpt><trkpt lat="59.3122299202" lon="34.6915354952"><ele>179.10</ele><time>2026-08-16T13:53:42Z</time></trkpt><trkpt lat="59.3122142460" lon="34.6915367525"><ele>177.96</ele><time>2026-08-16T13:54:00Z</time></trkpt><trkpt lat="59.3122126535" lon="34.6915485710"><ele>178.19</ele><time>2026-08-16T13:54:29Z</time></trkpt><trkpt lat="59.3122686446" lon="34.6915503312"><ele>177.04</ele><time>2026-08-16T13:55:05Z</time></trkpt><trkpt lat="59.3123302516" lon="34.6915657539"><ele>175.35</ele><time>2026-08-16T13:55:29Z</time></trkpt><trkpt lat="59.3122335244" lon="34.6914994530"><ele>177.16</ele><time>2026-08-16T13:55:53Z</time></trkpt><trkpt lat="59.3122054450" lon="34.6915043145"><ele>177.31</ele><time>2026-08-16T13:56:15Z</time></trkpt><trkpt lat="59.3122755177" lon="34.6915345732"><ele>177.51</ele><time>2026-08-16T13:56:41Z</time></trkpt><trkpt lat="59.3122882582" lon="34.6915304661"><ele>174.93</ele><time>2026-08-16T13:57:06Z</time></trkpt><trkpt lat="59.3122219574" lon="34.6915131155"><ele>176.58</ele><time>2026-08-16T13:57:30Z</time></trkpt><trkpt lat="59.3121354561" lon="34.6914543584"><ele>180.82</ele><time>2026-08-16T13:57:54Z</time></trkpt><trkpt lat="59.3121147528" lon="34.6914898138"><ele>180.78</ele><time>2026-08-16T13:58:15Z</time></trkpt><trkpt lat="59.3121331930" lon="34.6914989501"><ele>182.15</ele><time>2026-08-16T13:58:39Z</time></trkpt><trkpt lat="59.3121415749" lon="34.6915225033"><ele>183.11</ele><time>2026-08-16T13:59:01Z</time></trkpt><trkpt lat="59.3121010903" lon="34.6915038116"><ele>185.09</ele><time>2026-08-16T13:59:26Z</time></trkpt><trkpt lat="59.3121887650" lon="34.6915506665"><ele>185.75</ele><time>2026-08-16T13:59:49Z</time></trkpt><trkpt lat="59.3122067023" lon="34.6915865410"><ele>185.53</ele><time>2026-08-16T14:00:13Z</time></trkpt><trkpt lat="59.3122041877" lon="34.6915512532"><ele>182.70</ele><time>2026-08-16T14:00:45Z</time></trkpt><trkpt lat="59.3122139946" lon="34.6915313043"><ele>181.99</ele><time>2026-08-16T14:01:10Z</time></trkpt><trkpt lat="59.3121560756" lon="34.6914553642"><ele>181.25</ele><time>2026-08-16T14:01:34Z</time></trkpt><trkpt lat="59.3121570814" lon="34.6914619021"><ele>180.74</ele><time>2026-08-16T14:01:53Z</time></trkpt><trkpt lat="59.3122238852" lon="34.6914539393"><ele>179.75</ele><time>2026-08-16T14:02:10Z</time></trkpt><trkpt lat="59.3122158386" lon="34.6914329007"><ele>178.24</ele><time>2026-08-16T14:02:33Z</time></trkpt><trkpt lat="59.3122456782" lon="34.6913704555"><ele>177.45</ele><time>2026-08-16T14:02:57Z</time></trkpt><trkpt lat="59.3122554012" lon="34.6913910750"><ele>177.73</ele><time>2026-08-16T14:03:14Z</time></trkpt><trkpt lat="59.3123750947" lon="34.6914536878"><ele>177.66</ele><time>2026-08-16T14:03:32Z</time></trkpt><trkpt lat="59.3124431558" lon="34.6916264389"><ele>176.40</ele><time>2026-08-16T14:03:47Z</time></trkpt><trkpt lat="59.3124636915" lon="34.6918411832"><ele>174.84</ele><time>2026-08-16T14:04:04Z</time></trkpt><trkpt lat="59.3125110492" lon="34.6919453703"><ele>173.26</ele><time>2026-08-16T14:04:17Z</time></trkpt><trkpt lat="59.3125465885" lon="34.6921363100"><ele>172.34</ele><time>2026-08-16T14:04:34Z</time></trkpt><trkpt lat="59.3126468360" lon="34.6922278404"><ele>171.27</ele><time>2026-08-16T14:04:49Z</time></trkpt><trkpt lat="59.3127657752" lon="34.6922394074"><ele>170.18</ele><time>2026-08-16T14:05:04Z</time></trkpt><trkpt lat="59.3128689565" lon="34.6922257449"><ele>169.30</ele><time>2026-08-16T14:05:19Z</time></trkpt><trkpt lat="59.3129925057" lon="34.6921503078"><ele>167.78</ele><time>2026-08-16T14:05:37Z</time></trkpt><trkpt lat="59.3130886462" lon="34.6920713503"><ele>165.63</ele><time>2026-08-16T14:05:53Z</time></trkpt><trkpt lat="59.3132115249" lon="34.6918979287"><ele>163.13</ele><time>2026-08-16T14:06:10Z</time></trkpt><trkpt lat="59.3132720422" lon="34.6918156184"><ele>162.96</ele><time>2026-08-16T14:06:28Z</time></trkpt><trkpt lat="59.3132464774" lon="34.6918651555"><ele>163.98</ele><time>2026-08-16T14:06:46Z</time></trkpt><trkpt lat="59.3132914882" lon="34.6917853598"><ele>165.94</ele><time>2026-08-16T14:07:10Z</time></trkpt><trkpt lat="59.3132946733" lon="34.6917934902"><ele>170.98</ele><time>2026-08-16T14:07:27Z</time></trkpt><trkpt lat="59.3133008759" lon="34.6917058993"><ele>174.95</ele><time>2026-08-16T14:07:50Z</time></trkpt><trkpt lat="59.3132629897" lon="34.6917799953"><ele>174.92</ele><time>2026-08-16T14:08:06Z</time></trkpt><trkpt lat="59.3132106867" lon="34.6917795762"><ele>174.40</ele><time>2026-08-16T14:08:19Z</time></trkpt><trkpt lat="59.3132406101" lon="34.6916342340"><ele>173.25</ele><time>2026-08-16T14:08:35Z</time></trkpt><trkpt lat="59.3131630775" lon="34.6914746426"><ele>171.06</ele><time>2026-08-16T14:08:49Z</time></trkpt><trkpt lat="59.3130425457" lon="34.6912535280"><ele>166.49</ele><time>2026-08-16T14:09:05Z</time></trkpt><trkpt lat="59.3129784241" lon="34.6910769213"><ele>164.62</ele><time>2026-08-16T14:09:21Z</time></trkpt><trkpt lat="59.3129436392" lon="34.6908329241"><ele>160.00</ele><time>2026-08-16T14:09:39Z</time></trkpt><trkpt lat="59.3128674477" lon="34.6907410584"><ele>159.95</ele><time>2026-08-16T14:09:51Z</time></trkpt><trkpt lat="59.3127856404" lon="34.6905771084"><ele>159.29</ele><time>2026-08-16T14:10:07Z</time></trkpt><trkpt lat="59.3127087783" lon="34.6904460154"><ele>159.81</ele><time>2026-08-16T14:10:22Z</time></trkpt><trkpt lat="59.3126420584" lon="34.6902273316"><ele>159.12</ele><time>2026-08-16T14:10:39Z</time></trkpt><trkpt lat="59.3125870731" lon="34.6900529042"><ele>159.42</ele><time>2026-08-16T14:10:53Z</time></trkpt><trkpt lat="59.3125433195" lon="34.6899349708"><ele>159.04</ele><time>2026-08-16T14:11:12Z</time></trkpt><trkpt lat="59.3125201017" lon="34.6899140161"><ele>160.55</ele><time>2026-08-16T14:11:36Z</time></trkpt><trkpt lat="59.3124667089" lon="34.6898862720"><ele>161.10</ele><time>2026-08-16T14:11:59Z</time></trkpt><trkpt lat="59.3124776892" lon="34.6897602081"><ele>161.14</ele><time>2026-08-16T14:12:15Z</time></trkpt><trkpt lat="59.3124869093" lon="34.6896136925"><ele>161.41</ele><time>2026-08-16T14:12:35Z</time></trkpt><trkpt lat="59.3124141544" lon="34.6895443741"><ele>160.10</ele><time>2026-08-16T14:12:48Z</time></trkpt><trkpt lat="59.3122756016" lon="34.6894546039"><ele>159.71</ele><time>2026-08-16T14:13:03Z</time></trkpt><trkpt lat="59.3121782038" lon="34.6895132773"><ele>158.87</ele><time>2026-08-16T14:13:17Z</time></trkpt><trkpt lat="59.3120663054" lon="34.6896674205"><ele>158.00</ele><time>2026-08-16T14:13:33Z</time></trkpt><trkpt lat="59.3119254895" lon="34.6897448692"><ele>156.83</ele><time>2026-08-16T14:13:47Z</time></trkpt><trkpt lat="59.3117710110" lon="34.6896794066"><ele>156.64</ele><time>2026-08-16T14:14:03Z</time></trkpt><trkpt lat="59.3116267584" lon="34.6895318851"><ele>156.06</ele><time>2026-08-16T14:14:19Z</time></trkpt><trkpt lat="59.3115213141" lon="34.6894574538"><ele>155.75</ele><time>2026-08-16T14:14:33Z</time></trkpt><trkpt lat="59.3113780674" lon="34.6894764807"><ele>154.63</ele><time>2026-08-16T14:14:51Z</time></trkpt><trkpt lat="59.3112211581" lon="34.6893824358"><ele>153.72</ele><time>2026-08-16T14:15:08Z</time></trkpt><trkpt lat="59.3111060746" lon="34.6893510874"><ele>152.41</ele><time>2026-08-16T14:15:23Z</time></trkpt><trkpt lat="59.3110057432" lon="34.6893723775"><ele>152.32</ele><time>2026-08-16T14:15:37Z</time></trkpt><trkpt lat="59.3109200802" lon="34.6893240139"><ele>151.86</ele><time>2026-08-16T14:15:53Z</time></trkpt><trkpt lat="59.3108157255" lon="34.6891819406"><ele>151.12</ele><time>2026-08-16T14:16:08Z</time></trkpt><trkpt lat="59.3107463233" lon="34.6889990475"><ele>150.81</ele><time>2026-08-16T14:16:22Z</time></trkpt><trkpt lat="59.3107400369" lon="34.6889172401"><ele>150.64</ele><time>2026-08-16T14:16:26Z</time></trkpt><trkpt lat="59.3108047452" lon="34.6887764242"><ele>148.61</ele><time>2026-08-16T14:16:41Z</time></trkpt><trkpt lat="59.3109081779" lon="34.6886089537"><ele>148.68</ele><time>2026-08-16T14:16:57Z</time></trkpt><trkpt lat="59.3109575473" lon="34.6885755099"><ele>149.24</ele><time>2026-08-16T14:17:03Z</time></trkpt><trkpt lat="59.3110400252" lon="34.6883072890"><ele>150.66</ele><time>2026-08-16T14:17:18Z</time></trkpt><trkpt lat="59.3110813480" lon="34.6881129127"><ele>152.08</ele><time>2026-08-16T14:17:33Z</time></trkpt><trkpt lat="59.3111084215" lon="34.6879436821"><ele>152.24</ele><time>2026-08-16T14:17:46Z</time></trkpt><trkpt lat="59.3111173064" lon="34.6877440251"><ele>152.18</ele><time>2026-08-16T14:17:55Z</time></trkpt><trkpt lat="59.3110730499" lon="34.6874899697"><ele>152.77</ele><time>2026-08-16T14:18:06Z</time></trkpt><trkpt lat="59.3111115228" lon="34.6872542705"><ele>152.60</ele><time>2026-08-16T14:18:17Z</time></trkpt><trkpt lat="59.3111006264" lon="34.6870986186"><ele>151.93</ele><time>2026-08-16T14:18:25Z</time></trkpt><trkpt lat="59.3111113552" lon="34.6869746502"><ele>151.05</ele><time>2026-08-16T14:18:30Z</time></trkpt><trkpt lat="59.3111270294" lon="34.6868185792"><ele>150.91</ele><time>2026-08-16T14:18:37Z</time></trkpt><trkpt lat="59.3111572880" lon="34.6867342573"><ele>150.61</ele><time>2026-08-16T14:18:42Z</time></trkpt><trkpt lat="59.3111702800" lon="34.6865989733"><ele>150.39</ele><time>2026-08-16T14:18:47Z</time></trkpt><trkpt lat="59.3111688551" lon="34.6862740070"><ele>149.07</ele><time>2026-08-16T14:19:00Z</time></trkpt><trkpt lat="59.3111682683" lon="34.6862486936"><ele>148.98</ele><time>2026-08-16T14:19:01Z</time></trkpt><trkpt lat="59.3111701962" lon="34.6861811355"><ele>148.71</ele><time>2026-08-16T14:19:04Z</time></trkpt><trkpt lat="59.3110998720" lon="34.6860140841"><ele>149.22</ele><time>2026-08-16T14:19:13Z</time></trkpt><trkpt lat="59.3110117782" lon="34.6857638843"><ele>148.66</ele><time>2026-08-16T14:19:25Z</time></trkpt><trkpt lat="59.3109924998" lon="34.6856170334"><ele>148.84</ele><time>2026-08-16T14:19:31Z</time></trkpt><trkpt lat="59.3109733053" lon="34.6854598727"><ele>147.73</ele><time>2026-08-16T14:19:41Z</time></trkpt><trkpt lat="59.3109814357" lon="34.6851489879"><ele>147.90</ele><time>2026-08-16T14:19:56Z</time></trkpt><trkpt lat="59.3109317310" lon="34.6848298889"><ele>148.10</ele><time>2026-08-16T14:20:12Z</time></trkpt><trkpt lat="59.3109469861" lon="34.6845738217"><ele>146.97</ele><time>2026-08-16T14:20:28Z</time></trkpt><trkpt lat="59.3109328207" lon="34.6843344346"><ele>146.64</ele><time>2026-08-16T14:20:44Z</time></trkpt><trkpt lat="59.3109734729" lon="34.6840204485"><ele>145.95</ele><time>2026-08-16T14:21:00Z</time></trkpt><trkpt lat="59.3109916616" lon="34.6837265790"><ele>146.24</ele><time>2026-08-16T14:21:15Z</time></trkpt><trkpt lat="59.3110017199" lon="34.6836817358"><ele>146.31</ele><time>2026-08-16T14:21:18Z</time></trkpt><trkpt lat="59.3110270333" lon="34.6835635509"><ele>145.39</ele><time>2026-08-16T14:21:24Z</time></trkpt><trkpt lat="59.3110339902" lon="34.6834509820"><ele>145.05</ele><time>2026-08-16T14:21:29Z</time></trkpt><trkpt lat="59.3110716250" lon="34.6831883769"><ele>146.19</ele><time>2026-08-16T14:21:43Z</time></trkpt><trkpt lat="59.3110890593" lon="34.6829364169"><ele>148.04</ele><time>2026-08-16T14:21:55Z</time></trkpt><trkpt lat="59.3111149594" lon="34.6827831119"><ele>149.72</ele><time>2026-08-16T14:22:02Z</time></trkpt><trkpt lat="59.3111634906" lon="34.6825957764"><ele>149.92</ele><time>2026-08-16T14:22:13Z</time></trkpt><trkpt lat="59.3112130277" lon="34.6824286412"><ele>149.35</ele><time>2026-08-16T14:22:23Z</time></trkpt><trkpt lat="59.3112302944" lon="34.6823074389"><ele>147.27</ele><time>2026-08-16T14:22:31Z</time></trkpt><trkpt lat="59.3112432864" lon="34.6822674572"><ele>146.90</ele><time>2026-08-16T14:22:42Z</time></trkpt><trkpt lat="59.3112432864" lon="34.6822580695"><ele>150.12</ele><time>2026-08-16T14:22:56Z</time></trkpt><trkpt lat="59.3112655822" lon="34.6823111270"><ele>151.76</ele><time>2026-08-16T14:23:07Z</time></trkpt><trkpt lat="59.3113012891" lon="34.6822084486"><ele>152.84</ele><time>2026-08-16T14:23:16Z</time></trkpt><trkpt lat="59.3113913108" lon="34.6819579974"><ele>150.07</ele><time>2026-08-16T14:23:30Z</time></trkpt><trkpt lat="59.3114410155" lon="34.6817219630"><ele>147.95</ele><time>2026-08-16T14:23:42Z</time></trkpt><trkpt lat="59.3114447035" lon="34.6816293430"><ele>146.97</ele><time>2026-08-16T14:23:45Z</time></trkpt><trkpt lat="59.3115293607" lon="34.6814325359"><ele>146.91</ele><time>2026-08-16T14:23:58Z</time></trkpt><trkpt lat="59.3115374912" lon="34.6814102400"><ele>147.10</ele><time>2026-08-16T14:23:59Z</time></trkpt><trkpt lat="59.3115919735" lon="34.6813190449"><ele>147.09</ele><time>2026-08-16T14:24:05Z</time></trkpt><trkpt lat="59.3116924725" lon="34.6810519975"><ele>145.49</ele><time>2026-08-16T14:24:18Z</time></trkpt><trkpt lat="59.3117149360" lon="34.6808209922"><ele>143.50</ele><time>2026-08-16T14:24:28Z</time></trkpt><trkpt lat="59.3117591925" lon="34.6805298049"><ele>144.06</ele><time>2026-08-16T14:24:43Z</time></trkpt><trkpt lat="59.3118406646" lon="34.6802771743"><ele>143.34</ele><time>2026-08-16T14:24:59Z</time></trkpt><trkpt lat="59.3118523154" lon="34.6800930239"><ele>142.50</ele><time>2026-08-16T14:25:10Z</time></trkpt><trkpt lat="59.3118716776" lon="34.6797613520"><ele>142.55</ele><time>2026-08-16T14:25:26Z</time></trkpt><trkpt lat="59.3118753657" lon="34.6795026865"><ele>144.25</ele><time>2026-08-16T14:25:38Z</time></trkpt><trkpt lat="59.3118580990" lon="34.6794320270"><ele>144.87</ele><time>2026-08-16T14:25:41Z</time></trkpt><trkpt lat="59.3118275050" lon="34.6791898739"><ele>147.14</ele><time>2026-08-16T14:25:49Z</time></trkpt><trkpt lat="59.3118376471" lon="34.6790554281"><ele>148.59</ele><time>2026-08-16T14:25:55Z</time></trkpt><trkpt lat="59.3118296843" lon="34.6788687631"><ele>150.77</ele><time>2026-08-16T14:26:07Z</time></trkpt><trkpt lat="59.3118483759" lon="34.6785864606"><ele>152.13</ele><time>2026-08-16T14:26:22Z</time></trkpt><trkpt lat="59.3119266629" lon="34.6783281304"><ele>151.00</ele><time>2026-08-16T14:26:35Z</time></trkpt><trkpt lat="59.3119542394" lon="34.6779972129"><ele>148.60</ele><time>2026-08-16T14:26:51Z</time></trkpt><trkpt lat="59.3120042793" lon="34.6776680555"><ele>147.17</ele><time>2026-08-16T14:27:07Z</time></trkpt><trkpt lat="59.3120311853" lon="34.6773588471"><ele>143.96</ele><time>2026-08-16T14:27:23Z</time></trkpt><trkpt lat="59.3120334484" lon="34.6773324441"><ele>143.77</ele><time>2026-08-16T14:27:24Z</time></trkpt><trkpt lat="59.3120627012" lon="34.6769759618"><ele>143.63</ele><time>2026-08-16T14:27:39Z</time></trkpt><trkpt lat="59.3120954745" lon="34.6768007800"><ele>142.57</ele><time>2026-08-16T14:27:49Z</time></trkpt><trkpt lat="59.3121018447" lon="34.6767491475"><ele>141.93</ele><time>2026-08-16T14:27:51Z</time></trkpt><trkpt lat="59.3121766951" lon="34.6764241811"><ele>138.16</ele><time>2026-08-16T14:28:05Z</time></trkpt><trkpt lat="59.3122415710" lon="34.6762027312"><ele>136.38</ele><time>2026-08-16T14:28:15Z</time></trkpt><trkpt lat="59.3122718297" lon="34.6759770904"><ele>138.03</ele><time>2026-08-16T14:28:31Z</time></trkpt><trkpt lat="59.3122359551" lon="34.6758703887"><ele>144.66</ele><time>2026-08-16T14:28:44Z</time></trkpt><trkpt lat="59.3121812213" lon="34.6757874917"><ele>146.54</ele><time>2026-08-16T14:29:00Z</time></trkpt><trkpt lat="59.3122346979" lon="34.6758216899"><ele>151.43</ele><time>2026-08-16T14:29:18Z</time></trkpt><trkpt lat="59.3122508749" lon="34.6758399624"><ele>151.57</ele><time>2026-08-16T14:29:20Z</time></trkpt><trkpt lat="59.3122749310" lon="34.6758739091"><ele>152.24</ele><time>2026-08-16T14:29:23Z</time></trkpt><trkpt lat="59.3124031741" lon="34.6759226080"><ele>151.89</ele><time>2026-08-16T14:29:37Z</time></trkpt><trkpt lat="59.3124351092" lon="34.6759139746"><ele>151.83</ele><time>2026-08-16T14:29:40Z</time></trkpt><trkpt lat="59.3125514500" lon="34.6758349333"><ele>148.31</ele><time>2026-08-16T14:29:53Z</time></trkpt><trkpt lat="59.3126812018" lon="34.6757813729"><ele>145.23</ele><time>2026-08-16T14:30:07Z</time></trkpt><trkpt lat="59.3127649371" lon="34.6757159103"><ele>143.13</ele><time>2026-08-16T14:30:18Z</time></trkpt><trkpt lat="59.3129442260" lon="34.6756662056"><ele>139.81</ele><time>2026-08-16T14:30:36Z</time></trkpt><trkpt lat="59.3129832856" lon="34.6756553091"><ele>140.46</ele><time>2026-08-16T14:30:39Z</time></trkpt><trkpt lat="59.3130500894" lon="34.6756258048"><ele>146.40</ele><time>2026-08-16T14:30:55Z</time></trkpt><trkpt lat="59.3131285440" lon="34.6756740846"><ele>149.62</ele><time>2026-08-16T14:31:08Z</time></trkpt><trkpt lat="59.3132077530" lon="34.6756731626"><ele>153.55</ele><time>2026-08-16T14:31:25Z</time></trkpt><trkpt lat="59.3132423703" lon="34.6756952908"><ele>156.76</ele><time>2026-08-16T14:31:46Z</time></trkpt><trkpt lat="59.3133623153" lon="34.6756951232"><ele>157.02</ele><time>2026-08-16T14:32:03Z</time></trkpt><trkpt lat="59.3134349864" lon="34.6755808778"><ele>156.32</ele><time>2026-08-16T14:32:18Z</time></trkpt><trkpt lat="59.3135246728" lon="34.6755761839"><ele>156.90</ele><time>2026-08-16T14:32:32Z</time></trkpt><trkpt lat="59.3135876209" lon="34.6754229628"><ele>156.58</ele><time>2026-08-16T14:32:47Z</time></trkpt><trkpt lat="59.3136629742" lon="34.6752420813"><ele>155.24</ele><time>2026-08-16T14:33:02Z</time></trkpt><trkpt lat="59.3137624674" lon="34.6750486270"><ele>151.15</ele><time>2026-08-16T14:33:20Z</time></trkpt><trkpt lat="59.3138055503" lon="34.6748228185"><ele>148.07</ele><time>2026-08-16T14:33:35Z</time></trkpt><trkpt lat="59.3138398323" lon="34.6745135263"><ele>145.70</ele><time>2026-08-16T14:33:52Z</time></trkpt><trkpt lat="59.3138151057" lon="34.6743115224"><ele>144.35</ele><time>2026-08-16T14:34:07Z</time></trkpt><trkpt lat="59.3138659839" lon="34.6741378494"><ele>142.23</ele><time>2026-08-16T14:34:23Z</time></trkpt><trkpt lat="59.3139151018" lon="34.6739314869"><ele>140.46</ele><time>2026-08-16T14:34:40Z</time></trkpt><trkpt lat="59.3140156846" lon="34.6737358533"><ele>139.24</ele><time>2026-08-16T14:34:56Z</time></trkpt><trkpt lat="59.3140517268" lon="34.6736503579"><ele>139.05</ele><time>2026-08-16T14:35:07Z</time></trkpt><trkpt lat="59.3141607754" lon="34.6737007331"><ele>140.58</ele><time>2026-08-16T14:35:23Z</time></trkpt><trkpt lat="59.3142706621" lon="34.6736875735"><ele>139.26</ele><time>2026-08-16T14:35:37Z</time></trkpt><trkpt lat="59.3143683113" lon="34.6736175846"><ele>139.46</ele><time>2026-08-16T14:35:51Z</time></trkpt><trkpt lat="59.3145202752" lon="34.6734848153"><ele>139.85</ele><time>2026-08-16T14:36:08Z</time></trkpt><trkpt lat="59.3146019150" lon="34.6734476835"><ele>141.30</ele><time>2026-08-16T14:36:21Z</time></trkpt><trkpt lat="59.3146209419" lon="34.6734015830"><ele>142.48</ele><time>2026-08-16T14:36:26Z</time></trkpt><trkpt lat="59.3146925233" lon="34.6734833065"><ele>150.04</ele><time>2026-08-16T14:36:42Z</time></trkpt><trkpt lat="59.3147418089" lon="34.6735023335"><ele>152.56</ele><time>2026-08-16T14:36:57Z</time></trkpt><trkpt lat="59.3148578983" lon="34.6735596657"><ele>152.49</ele><time>2026-08-16T14:37:13Z</time></trkpt><trkpt lat="59.3149714731" lon="34.6736126393"><ele>156.53</ele><time>2026-08-16T14:37:28Z</time></trkpt><trkpt lat="59.3150254525" lon="34.6735489368"><ele>162.79</ele><time>2026-08-16T14:37:51Z</time></trkpt><trkpt lat="59.3150298111" lon="34.6735454164"><ele>163.65</ele><time>2026-08-16T14:38:06Z</time></trkpt><trkpt lat="59.3150410429" lon="34.6735479310"><ele>165.65</ele><time>2026-08-16T14:38:15Z</time></trkpt><trkpt lat="59.3150439765" lon="34.6735581569"><ele>166.73</ele><time>2026-08-16T14:38:23Z</time></trkpt><trkpt lat="59.3150301464" lon="34.6735584922"><ele>166.04</ele><time>2026-08-16T14:38:29Z</time></trkpt><trkpt lat="59.3150385283" lon="34.6735762618"><ele>167.45</ele><time>2026-08-16T14:38:38Z</time></trkpt><trkpt lat="59.3149725627" lon="34.6737319138"><ele>166.54</ele><time>2026-08-16T14:38:56Z</time></trkpt><trkpt lat="59.3149559665" lon="34.6739438921"><ele>163.95</ele><time>2026-08-16T14:39:09Z</time></trkpt><trkpt lat="59.3150044978" lon="34.6741039027"><ele>163.79</ele><time>2026-08-16T14:39:24Z</time></trkpt><trkpt lat="59.3150407076" lon="34.6742697805"><ele>162.94</ele><time>2026-08-16T14:39:39Z</time></trkpt><trkpt lat="59.3151276279" lon="34.6744627319"><ele>161.43</ele><time>2026-08-16T14:39:55Z</time></trkpt><trkpt lat="59.3151631672" lon="34.6747315396"><ele>156.68</ele><time>2026-08-16T14:40:14Z</time></trkpt><trkpt lat="59.3151964433" lon="34.6750737727"><ele>154.67</ele><time>2026-08-16T14:40:31Z</time></trkpt><trkpt lat="59.3152239360" lon="34.6753510460"><ele>155.36</ele><time>2026-08-16T14:40:46Z</time></trkpt><trkpt lat="59.3152339943" lon="34.6755616833"><ele>156.08</ele><time>2026-08-16T14:41:04Z</time></trkpt><trkpt lat="59.3151760753" lon="34.6756579913"><ele>156.49</ele><time>2026-08-16T14:41:17Z</time></trkpt><trkpt lat="59.3151358422" lon="34.6757789422"><ele>156.31</ele><time>2026-08-16T14:41:31Z</time></trkpt><trkpt lat="59.3151135463" lon="34.6760651004"><ele>156.44</ele><time>2026-08-16T14:41:46Z</time></trkpt><trkpt lat="59.3150662724" lon="34.6762799285"><ele>157.40</ele><time>2026-08-16T14:42:00Z</time></trkpt><trkpt lat="59.3150819466" lon="34.6764130332"><ele>158.20</ele><time>2026-08-16T14:42:16Z</time></trkpt><trkpt lat="59.3150207587" lon="34.6764560323"><ele>159.37</ele><time>2026-08-16T14:42:31Z</time></trkpt><trkpt lat="59.3150322419" lon="34.6764411964"><ele>158.69</ele><time>2026-08-16T14:42:52Z</time></trkpt><trkpt lat="59.3150328286" lon="34.6764573734"><ele>159.81</ele><time>2026-08-16T14:43:13Z</time></trkpt><trkpt lat="59.3150148913" lon="34.6764881350"><ele>160.80</ele><time>2026-08-16T14:43:34Z</time></trkpt><trkpt lat="59.3150330801" lon="34.6765806712"><ele>161.56</ele><time>2026-08-16T14:43:49Z</time></trkpt><trkpt lat="59.3149721436" lon="34.6767609660"><ele>161.13</ele><time>2026-08-16T14:44:05Z</time></trkpt><trkpt lat="59.3148981314" lon="34.6770490520"><ele>160.42</ele><time>2026-08-16T14:44:19Z</time></trkpt><trkpt lat="59.3149280548" lon="34.6772857569"><ele>160.08</ele><time>2026-08-16T14:44:33Z</time></trkpt><trkpt lat="59.3149334192" lon="34.6774282493"><ele>160.00</ele><time>2026-08-16T14:44:43Z</time></trkpt><trkpt lat="59.3149169907" lon="34.6775966417"><ele>158.79</ele><time>2026-08-16T14:44:55Z</time></trkpt><trkpt lat="59.3149123807" lon="34.6778439078"><ele>157.30</ele><time>2026-08-16T14:45:11Z</time></trkpt><trkpt lat="59.3148596585" lon="34.6781025734"><ele>154.76</ele><time>2026-08-16T14:45:27Z</time></trkpt><trkpt lat="59.3147898372" lon="34.6782925073"><ele>151.34</ele><time>2026-08-16T14:45:43Z</time></trkpt><trkpt lat="59.3146579061" lon="34.6783034038"><ele>147.90</ele><time>2026-08-16T14:45:56Z</time></trkpt><trkpt lat="59.3145458400" lon="34.6783842053"><ele>146.11</ele><time>2026-08-16T14:46:11Z</time></trkpt><trkpt lat="59.3145461753" lon="34.6784254443"><ele>148.44</ele><time>2026-08-16T14:46:30Z</time></trkpt><trkpt lat="59.3145419843" lon="34.6784266178"><ele>149.92</ele><time>2026-08-16T14:46:46Z</time></trkpt><trkpt lat="59.3145597540" lon="34.6784792561"><ele>152.35</ele><time>2026-08-16T14:46:59Z</time></trkpt><trkpt lat="59.3145902641" lon="34.6785335708"><ele>156.40</ele><time>2026-08-16T14:47:21Z</time></trkpt><trkpt lat="59.3145752605" lon="34.6786454692"><ele>157.13</ele><time>2026-08-16T14:47:34Z</time></trkpt><trkpt lat="59.3144579977" lon="34.6787468903"><ele>155.47</ele><time>2026-08-16T14:47:48Z</time></trkpt><trkpt lat="59.3143994920" lon="34.6788088325"><ele>156.02</ele><time>2026-08-16T14:48:02Z</time></trkpt><trkpt lat="59.3143401481" lon="34.6787768975"><ele>156.32</ele><time>2026-08-16T14:48:15Z</time></trkpt><trkpt lat="59.3142033555" lon="34.6788189746"><ele>154.92</ele><time>2026-08-16T14:48:31Z</time></trkpt><trkpt lat="59.3142161798" lon="34.6790047176"><ele>154.37</ele><time>2026-08-16T14:48:46Z</time></trkpt><trkpt lat="59.3141809758" lon="34.6792282630"><ele>152.43</ele><time>2026-08-16T14:49:01Z</time></trkpt><trkpt lat="59.3140943907" lon="34.6793872677"><ele>151.69</ele><time>2026-08-16T14:49:17Z</time></trkpt><trkpt lat="59.3140329514" lon="34.6795620304"><ele>150.58</ele><time>2026-08-16T14:49:34Z</time></trkpt><trkpt lat="59.3139254954" lon="34.6796872560"><ele>148.20</ele><time>2026-08-16T14:49:48Z</time></trkpt><trkpt lat="59.3138918839" lon="34.6796618588"><ele>149.40</ele><time>2026-08-16T14:50:09Z</time></trkpt><trkpt lat="59.3138967454" lon="34.6797968913"><ele>152.56</ele><time>2026-08-16T14:50:27Z</time></trkpt><trkpt lat="59.3138978351" lon="34.6799867414"><ele>151.82</ele><time>2026-08-16T14:50:49Z</time></trkpt><trkpt lat="59.3138786405" lon="34.6800481807"><ele>155.88</ele><time>2026-08-16T14:51:11Z</time></trkpt><trkpt lat="59.3138787244" lon="34.6800446603"><ele>156.48</ele><time>2026-08-16T14:51:33Z</time></trkpt><trkpt lat="59.3138877768" lon="34.6800620109"><ele>158.11</ele><time>2026-08-16T14:51:53Z</time></trkpt><trkpt lat="59.3138045445" lon="34.6799906809"><ele>156.74</ele><time>2026-08-16T14:52:07Z</time></trkpt><trkpt lat="59.3137531634" lon="34.6800199337"><ele>155.46</ele><time>2026-08-16T14:52:19Z</time></trkpt><trkpt lat="59.3136768043" lon="34.6800161619"><ele>156.55</ele><time>2026-08-16T14:52:32Z</time></trkpt><trkpt lat="59.3135814182" lon="34.6801076084"><ele>155.91</ele><time>2026-08-16T14:52:46Z</time></trkpt><trkpt lat="59.3134663347" lon="34.6800962090"><ele>153.66</ele><time>2026-08-16T14:53:02Z</time></trkpt><trkpt lat="59.3133311346" lon="34.6800968796"><ele>152.21</ele><time>2026-08-16T14:53:18Z</time></trkpt><trkpt lat="59.3132661749" lon="34.6801770106"><ele>151.33</ele><time>2026-08-16T14:53:32Z</time></trkpt><trkpt lat="59.3131383508" lon="34.6802481730"><ele>149.75</ele><time>2026-08-16T14:53:48Z</time></trkpt><trkpt lat="59.3130439706" lon="34.6802971233"><ele>150.94</ele><time>2026-08-16T14:54:04Z</time></trkpt><trkpt lat="59.3129657675" lon="34.6803692915"><ele>152.13</ele><time>2026-08-16T14:54:18Z</time></trkpt><trkpt lat="59.3128989637" lon="34.6803972870"><ele>152.96</ele><time>2026-08-16T14:54:33Z</time></trkpt><trkpt lat="59.3127998896" lon="34.6803020686"><ele>153.25</ele><time>2026-08-16T14:54:48Z</time></trkpt><trkpt lat="59.3127480894" lon="34.6802539565"><ele>152.74</ele><time>2026-08-16T14:55:03Z</time></trkpt><trkpt lat="59.3127165735" lon="34.6801972110"><ele>154.39</ele><time>2026-08-16T14:55:24Z</time></trkpt><trkpt lat="59.3127072696" lon="34.6802184172"><ele>155.60</ele><time>2026-08-16T14:55:42Z</time></trkpt><trkpt lat="59.3127054255" lon="34.6802944411"><ele>158.10</ele><time>2026-08-16T14:56:06Z</time></trkpt><trkpt lat="59.3126997259" lon="34.6801069379"><ele>158.31</ele><time>2026-08-16T14:56:22Z</time></trkpt><trkpt lat="59.3127124663" lon="34.6799196862"><ele>157.61</ele><time>2026-08-16T14:56:36Z</time></trkpt><trkpt lat="59.3127576448" lon="34.6797323506"><ele>155.40</ele><time>2026-08-16T14:56:51Z</time></trkpt><trkpt lat="59.3126952834" lon="34.6795695741"><ele>153.97</ele><time>2026-08-16T14:57:07Z</time></trkpt><trkpt lat="59.3126134761" lon="34.6794974059"><ele>151.68</ele><time>2026-08-16T14:57:20Z</time></trkpt><trkpt lat="59.3125703093" lon="34.6794828214"><ele>150.61</ele><time>2026-08-16T14:57:26Z</time></trkpt><trkpt lat="59.3124983087" lon="34.6794666443"><ele>151.92</ele><time>2026-08-16T14:57:43Z</time></trkpt><trkpt lat="59.3123965524" lon="34.6795134991"><ele>152.15</ele><time>2026-08-16T14:57:56Z</time></trkpt><trkpt lat="59.3122630287" lon="34.6794354636"><ele>150.23</ele><time>2026-08-16T14:58:13Z</time></trkpt><trkpt lat="59.3121888489" lon="34.6793591883"><ele>148.69</ele><time>2026-08-16T14:58:28Z</time></trkpt><trkpt lat="59.3120867573" lon="34.6794156823"><ele>146.96</ele><time>2026-08-16T14:58:46Z</time></trkpt><trkpt lat="59.3120177742" lon="34.6794886887"><ele>148.60</ele><time>2026-08-16T14:59:01Z</time></trkpt><trkpt lat="59.3119262438" lon="34.6794300154"><ele>146.84</ele><time>2026-08-16T14:59:15Z</time></trkpt><trkpt lat="59.3118996732" lon="34.6792252455"><ele>147.07</ele><time>2026-08-16T14:59:29Z</time></trkpt><trkpt lat="59.3118553329" lon="34.6791119222"><ele>148.43</ele><time>2026-08-16T14:59:41Z</time></trkpt><trkpt lat="59.3118094001" lon="34.6790944878"><ele>152.90</ele><time>2026-08-16T14:59:59Z</time></trkpt><trkpt lat="59.3118185364" lon="34.6791507304"><ele>154.38</ele><time>2026-08-16T15:00:14Z</time></trkpt><trkpt lat="59.3118632957" lon="34.6791596990"><ele>156.66</ele><time>2026-08-16T15:00:31Z</time></trkpt><trkpt lat="59.3118388206" lon="34.6791834198"><ele>157.36</ele><time>2026-08-16T15:00:45Z</time></trkpt><trkpt lat="59.3118575960" lon="34.6791827492"><ele>157.92</ele><time>2026-08-16T15:01:01Z</time></trkpt><trkpt lat="59.3118576799" lon="34.6791229025"><ele>158.40</ele><time>2026-08-16T15:01:22Z</time></trkpt><trkpt lat="59.3118523154" lon="34.6791929752"><ele>159.20</ele><time>2026-08-16T15:01:43Z</time></trkpt><trkpt lat="59.3118233979" lon="34.6791208908"><ele>159.01</ele><time>2026-08-16T15:01:57Z</time></trkpt><trkpt lat="59.3118482921" lon="34.6791928075"><ele>160.13</ele><time>2026-08-16T15:02:16Z</time></trkpt><trkpt lat="59.3118645530" lon="34.6792057157"><ele>159.79</ele><time>2026-08-16T15:02:32Z</time></trkpt><trkpt lat="59.3118327018" lon="34.6791747864"><ele>159.15</ele><time>2026-08-16T15:02:49Z</time></trkpt><trkpt lat="59.3118515611" lon="34.6792261675"><ele>159.27</ele><time>2026-08-16T15:03:07Z</time></trkpt><trkpt lat="59.3118295167" lon="34.6791386604"><ele>159.01</ele><time>2026-08-16T15:03:23Z</time></trkpt><trkpt lat="59.3118580151" lon="34.6792376507"><ele>158.70</ele><time>2026-08-16T15:03:44Z</time></trkpt><trkpt lat="59.3118399940" lon="34.6791550890"><ele>158.30</ele><time>2026-08-16T15:04:03Z</time></trkpt><trkpt lat="59.3118580151" lon="34.6793068852"><ele>157.08</ele><time>2026-08-16T15:04:19Z</time></trkpt><trkpt lat="59.3118692469" lon="34.6793977451"><ele>156.55</ele><time>2026-08-16T15:04:29Z</time></trkpt><trkpt lat="59.3118586019" lon="34.6792819910"><ele>156.40</ele><time>2026-08-16T15:04:45Z</time></trkpt><trkpt lat="59.3118525669" lon="34.6792420931"><ele>158.39</ele><time>2026-08-16T15:05:01Z</time></trkpt><trkpt lat="59.3118427601" lon="34.6791794803"><ele>159.32</ele><time>2026-08-16T15:05:19Z</time></trkpt><trkpt lat="59.3118198775" lon="34.6790815797"><ele>159.40</ele><time>2026-08-16T15:05:37Z</time></trkpt><trkpt lat="59.3118492980" lon="34.6791073121"><ele>159.03</ele><time>2026-08-16T15:05:49Z</time></trkpt><trkpt lat="59.3118384015" lon="34.6791197173"><ele>160.34</ele><time>2026-08-16T15:06:05Z</time></trkpt><trkpt lat="59.3118270859" lon="34.6790579427"><ele>160.14</ele><time>2026-08-16T15:06:10Z</time></trkpt><trkpt lat="59.3118349649" lon="34.6788136940"><ele>158.61</ele><time>2026-08-16T15:06:22Z</time></trkpt><trkpt lat="59.3118474539" lon="34.6787064057"><ele>156.71</ele><time>2026-08-16T15:06:29Z</time></trkpt><trkpt lat="59.3118554167" lon="34.6785110235"><ele>151.77</ele><time>2026-08-16T15:06:41Z</time></trkpt><trkpt lat="59.3118981645" lon="34.6783431340"><ele>147.17</ele><time>2026-08-16T15:06:53Z</time></trkpt><trkpt lat="59.3119168561" lon="34.6781848837"><ele>144.86</ele><time>2026-08-16T15:07:01Z</time></trkpt><trkpt lat="59.3119236454" lon="34.6781294793"><ele>144.16</ele><time>2026-08-16T15:07:03Z</time></trkpt><trkpt lat="59.3119771220" lon="34.6778419800"><ele>140.77</ele><time>2026-08-16T15:07:17Z</time></trkpt><trkpt lat="59.3119801395" lon="34.6777961310"><ele>140.31</ele><time>2026-08-16T15:07:19Z</time></trkpt><trkpt lat="59.3120098952" lon="34.6775795426"><ele>136.22</ele><time>2026-08-16T15:07:27Z</time></trkpt><trkpt lat="59.3120469432" lon="34.6773922909"><ele>133.84</ele><time>2026-08-16T15:07:35Z</time></trkpt><trkpt lat="59.3120562471" lon="34.6772105712"><ele>132.03</ele><time>2026-08-16T15:07:44Z</time></trkpt><trkpt lat="59.3120638747" lon="34.6768930648"><ele>130.16</ele><time>2026-08-16T15:07:57Z</time></trkpt><trkpt lat="59.3121293373" lon="34.6766177192"><ele>126.59</ele><time>2026-08-16T15:08:09Z</time></trkpt><trkpt lat="59.3122110609" lon="34.6762480773"><ele>128.35</ele><time>2026-08-16T15:08:24Z</time></trkpt><trkpt lat="59.3121835683" lon="34.6759013180"><ele>132.00</ele><time>2026-08-16T15:08:38Z</time></trkpt><trkpt lat="59.3121223804" lon="34.6758279763"><ele>133.19</ele><time>2026-08-16T15:08:44Z</time></trkpt><trkpt lat="59.3120292574" lon="34.6758597437"><ele>134.08</ele><time>2026-08-16T15:08:55Z</time></trkpt><trkpt lat="59.3120040279" lon="34.6758644376"><ele>133.99</ele><time>2026-08-16T15:08:58Z</time></trkpt><trkpt lat="59.3118244875" lon="34.6758257970"><ele>136.20</ele><time>2026-08-16T15:09:15Z</time></trkpt><trkpt lat="59.3117188755" lon="34.6758755017"><ele>136.07</ele><time>2026-08-16T15:09:25Z</time></trkpt><trkpt lat="59.3116454501" lon="34.6758994740"><ele>135.50</ele><time>2026-08-16T15:09:31Z</time></trkpt><trkpt lat="59.3114968389" lon="34.6759538725"><ele>135.84</ele><time>2026-08-16T15:09:44Z</time></trkpt><trkpt lat="59.3113533407" lon="34.6759605780"><ele>136.28</ele><time>2026-08-16T15:09:56Z</time></trkpt><trkpt lat="59.3112421967" lon="34.6760155633"><ele>135.07</ele><time>2026-08-16T15:10:07Z</time></trkpt><trkpt lat="59.3110626563" lon="34.6759682056"><ele>134.41</ele><time>2026-08-16T15:10:21Z</time></trkpt><trkpt lat="59.3108967785" lon="34.6759656072"><ele>135.05</ele><time>2026-08-16T15:10:34Z</time></trkpt><trkpt lat="59.3108842894" lon="34.6759708878"><ele>135.06</ele><time>2026-08-16T15:10:35Z</time></trkpt><trkpt lat="59.3108234368" lon="34.6759879030"><ele>135.32</ele><time>2026-08-16T15:10:40Z</time></trkpt><trkpt lat="59.3107410427" lon="34.6759470832"><ele>143.29</ele><time>2026-08-16T15:10:51Z</time></trkpt><trkpt lat="59.3107221834" lon="34.6759674512"><ele>149.44</ele><time>2026-08-16T15:11:17Z</time></trkpt><trkpt lat="59.3107024860" lon="34.6758896671"><ele>151.00</ele><time>2026-08-16T15:11:37Z</time></trkpt><trkpt lat="59.3105677050" lon="34.6758715622"><ele>151.57</ele><time>2026-08-16T15:11:49Z</time></trkpt><trkpt lat="59.3104242906" lon="34.6758882422"><ele>150.79</ele><time>2026-08-16T15:12:01Z</time></trkpt><trkpt lat="59.3102505337" lon="34.6758939419"><ele>148.41</ele><time>2026-08-16T15:12:15Z</time></trkpt><trkpt lat="59.3101473525" lon="34.6759746596"><ele>146.44</ele><time>2026-08-16T15:12:25Z</time></trkpt><trkpt lat="59.3100380525" lon="34.6760779247"><ele>143.79</ele><time>2026-08-16T15:12:36Z</time></trkpt><trkpt lat="59.3099322729" lon="34.6761873085"><ele>141.70</ele><time>2026-08-16T15:12:46Z</time></trkpt><trkpt lat="59.3097526487" lon="34.6763608139"><ele>137.62</ele><time>2026-08-16T15:13:04Z</time></trkpt><trkpt lat="59.3096436840" lon="34.6764676832"><ele>137.00</ele><time>2026-08-16T15:13:16Z</time></trkpt><trkpt lat="59.3095289357" lon="34.6765794139"><ele>136.62</ele><time>2026-08-16T15:13:32Z</time></trkpt><trkpt lat="59.3093279377" lon="34.6766872052"><ele>133.91</ele><time>2026-08-16T15:13:52Z</time></trkpt><trkpt lat="59.3091830984" lon="34.6768338885"><ele>131.44</ele><time>2026-08-16T15:14:08Z</time></trkpt><trkpt lat="59.3091043923" lon="34.6772274189"><ele>129.72</ele><time>2026-08-16T15:14:25Z</time></trkpt><trkpt lat="59.3089401908" lon="34.6776441671"><ele>132.49</ele><time>2026-08-16T15:14:40Z</time></trkpt><trkpt lat="59.3088970240" lon="34.6776143275"><ele>138.50</ele><time>2026-08-16T15:15:03Z</time></trkpt><trkpt lat="59.3089018017" lon="34.6776149143"><ele>140.05</ele><time>2026-08-16T15:15:07Z</time></trkpt><trkpt lat="59.3089120276" lon="34.6776051912"><ele>147.51</ele><time>2026-08-16T15:15:25Z</time></trkpt><trkpt lat="59.3089226726" lon="34.6775964741"><ele>150.49</ele><time>2026-08-16T15:15:41Z</time></trkpt><trkpt lat="59.3089113571" lon="34.6776231285"><ele>151.40</ele><time>2026-08-16T15:15:56Z</time></trkpt><trkpt lat="59.3089076690" lon="34.6777014155"><ele>152.72</ele><time>2026-08-16T15:16:09Z</time></trkpt><trkpt lat="59.3088805955" lon="34.6778715681"><ele>153.97</ele><time>2026-08-16T15:16:29Z</time></trkpt><trkpt lat="59.3088749796" lon="34.6779773477"><ele>154.07</ele><time>2026-08-16T15:16:32Z</time></trkpt><trkpt lat="59.3088462297" lon="34.6782135498"><ele>150.96</ele><time>2026-08-16T15:16:45Z</time></trkpt><trkpt lat="59.3087111972" lon="34.6784034837"><ele>147.64</ele><time>2026-08-16T15:17:02Z</time></trkpt><trkpt lat="59.3086057529" lon="34.6785073355"><ele>145.34</ele><time>2026-08-16T15:17:15Z</time></trkpt><trkpt lat="59.3085597362" lon="34.6785429586"><ele>144.82</ele><time>2026-08-16T15:17:19Z</time></trkpt><trkpt lat="59.3084169086" lon="34.6786641609"><ele>141.81</ele><time>2026-08-16T15:17:33Z</time></trkpt><trkpt lat="59.3083475903" lon="34.6787208226"><ele>141.05</ele><time>2026-08-16T15:17:38Z</time></trkpt><trkpt lat="59.3082744163" lon="34.6787684318"><ele>141.09</ele><time>2026-08-16T15:17:44Z</time></trkpt><trkpt lat="59.3082194310" lon="34.6787738800"><ele>140.68</ele><time>2026-08-16T15:17:48Z</time></trkpt><trkpt lat="59.3080241326" lon="34.6788917296"><ele>142.70</ele><time>2026-08-16T15:18:02Z</time></trkpt><trkpt lat="59.3077783752" lon="34.6789215691"><ele>146.44</ele><time>2026-08-16T15:18:20Z</time></trkpt><trkpt lat="59.3076293450" lon="34.6790136863"><ele>147.62</ele><time>2026-08-16T15:18:33Z</time></trkpt><trkpt lat="59.3074796442" lon="34.6791109163"><ele>146.13</ele><time>2026-08-16T15:18:46Z</time></trkpt><trkpt lat="59.3073387444" lon="34.6792359743"><ele>144.21</ele><time>2026-08-16T15:18:59Z</time></trkpt><trkpt lat="59.3072581105" lon="34.6792703401"><ele>145.70</ele><time>2026-08-16T15:19:09Z</time></trkpt><trkpt lat="59.3072402570" lon="34.6792980004"><ele>149.25</ele><time>2026-08-16T15:19:27Z</time></trkpt><trkpt lat="59.3072391674" lon="34.6792964917"><ele>151.82</ele><time>2026-08-16T15:19:41Z</time></trkpt><trkpt lat="59.3072191346" lon="34.6792467032"><ele>151.49</ele><time>2026-08-16T15:20:01Z</time></trkpt><trkpt lat="59.3071273528" lon="34.6792861819"><ele>152.62</ele><time>2026-08-16T15:20:15Z</time></trkpt><trkpt lat="59.3070488982" lon="34.6794453543"><ele>149.75</ele><time>2026-08-16T15:20:29Z</time></trkpt><trkpt lat="59.3069449626" lon="34.6797035169"><ele>148.09</ele><time>2026-08-16T15:20:45Z</time></trkpt><trkpt lat="59.3068008777" lon="34.6799551416"><ele>145.50</ele><time>2026-08-16T15:21:02Z</time></trkpt><trkpt lat="59.3066451419" lon="34.6801376995"><ele>142.81</ele><time>2026-08-16T15:21:21Z</time></trkpt><trkpt lat="59.3064706307" lon="34.6804143861"><ele>140.15</ele><time>2026-08-16T15:21:37Z</time></trkpt><trkpt lat="59.3064523581" lon="34.6804567985"><ele>139.51</ele><time>2026-08-16T15:21:40Z</time></trkpt><trkpt lat="59.3063998036" lon="34.6805420425"><ele>138.83</ele><time>2026-08-16T15:21:44Z</time></trkpt><trkpt lat="59.3063573074" lon="34.6806432121"><ele>138.78</ele><time>2026-08-16T15:21:47Z</time></trkpt><trkpt lat="59.3063156493" lon="34.6807222534"><ele>137.64</ele><time>2026-08-16T15:21:50Z</time></trkpt><trkpt lat="59.3062611669" lon="34.6808012109"><ele>136.71</ele><time>2026-08-16T15:21:55Z</time></trkpt><trkpt lat="59.3062398769" lon="34.6808354929"><ele>136.20</ele><time>2026-08-16T15:21:57Z</time></trkpt><trkpt lat="59.3061511125" lon="34.6810435317"><ele>135.23</ele><time>2026-08-16T15:22:09Z</time></trkpt><trkpt lat="59.3060741667" lon="34.6811643150"><ele>138.09</ele><time>2026-08-16T15:22:19Z</time></trkpt><trkpt lat="59.3060635217" lon="34.6811943222"><ele>138.14</ele><time>2026-08-16T15:22:21Z</time></trkpt><trkpt lat="59.3060117215" lon="34.6813581884"><ele>139.85</ele><time>2026-08-16T15:22:32Z</time></trkpt><trkpt lat="59.3059216999" lon="34.6815016028"><ele>139.98</ele><time>2026-08-16T15:22:44Z</time></trkpt><trkpt lat="59.3059095461" lon="34.6815146785"><ele>141.14</ele><time>2026-08-16T15:22:45Z</time></trkpt><trkpt lat="59.3058721628" lon="34.6816012636"><ele>147.18</ele><time>2026-08-16T15:23:02Z</time></trkpt><trkpt lat="59.3058673851" lon="34.6816238109"><ele>150.12</ele><time>2026-08-16T15:23:18Z</time></trkpt><trkpt lat="59.3058445025" lon="34.6816287562"><ele>153.15</ele><time>2026-08-16T15:23:41Z</time></trkpt><trkpt lat="59.3057481106" lon="34.6817345358"><ele>152.88</ele><time>2026-08-16T15:23:54Z</time></trkpt><trkpt lat="59.3057343643" lon="34.6817544848"><ele>152.79</ele><time>2026-08-16T15:23:56Z</time></trkpt><trkpt lat="59.3056513835" lon="34.6818337776"><ele>152.42</ele><time>2026-08-16T15:24:04Z</time></trkpt><trkpt lat="59.3055361323" lon="34.6819456760"><ele>151.75</ele><time>2026-08-16T15:24:16Z</time></trkpt><trkpt lat="59.3055065442" lon="34.6819585841"><ele>151.61</ele><time>2026-08-16T15:24:19Z</time></trkpt><trkpt lat="59.3054010160" lon="34.6820227895"><ele>151.06</ele><time>2026-08-16T15:24:29Z</time></trkpt><trkpt lat="59.3052149378" lon="34.6820988134"><ele>151.21</ele><time>2026-08-16T15:24:41Z</time></trkpt><trkpt lat="59.3050509878" lon="34.6821922716"><ele>147.98</ele><time>2026-08-16T15:24:55Z</time></trkpt><trkpt lat="59.3049675878" lon="34.6824098658"><ele>144.67</ele><time>2026-08-16T15:25:08Z</time></trkpt><trkpt lat="59.3048025481" lon="34.6826778352"><ele>140.46</ele><time>2026-08-16T15:25:26Z</time></trkpt><trkpt lat="59.3046414480" lon="34.6828450542"><ele>138.91</ele><time>2026-08-16T15:25:38Z</time></trkpt><trkpt lat="59.3045880552" lon="34.6828697808"><ele>139.36</ele><time>2026-08-16T15:25:42Z</time></trkpt><trkpt lat="59.3044265360" lon="34.6829270292"><ele>141.77</ele><time>2026-08-16T15:25:54Z</time></trkpt><trkpt lat="59.3043018132" lon="34.6830256842"><ele>143.70</ele><time>2026-08-16T15:26:06Z</time></trkpt><trkpt lat="59.3041723967" lon="34.6831710264"><ele>143.75</ele><time>2026-08-16T15:26:21Z</time></trkpt><trkpt lat="59.3040633481" lon="34.6832871158"><ele>142.66</ele><time>2026-08-16T15:26:34Z</time></trkpt><trkpt lat="59.3040221930" lon="34.6833608765"><ele>142.47</ele><time>2026-08-16T15:26:40Z</time></trkpt><trkpt lat="59.3039705604" lon="34.6834865212"><ele>145.16</ele><time>2026-08-16T15:26:55Z</time></trkpt><trkpt lat="59.3039727397" lon="34.6834905446"><ele>148.71</ele><time>2026-08-16T15:27:14Z</time></trkpt><trkpt lat="59.3039887492" lon="34.6834904607"><ele>151.15</ele><time>2026-08-16T15:27:34Z</time></trkpt><trkpt lat="59.3039447442" lon="34.6836685762"><ele>152.88</ele><time>2026-08-16T15:27:51Z</time></trkpt><trkpt lat="59.3038791139" lon="34.6839218773"><ele>153.29</ele><time>2026-08-16T15:28:07Z</time></trkpt><trkpt lat="59.3038367014" lon="34.6840018407"><ele>153.45</ele><time>2026-08-16T15:28:11Z</time></trkpt><trkpt lat="59.3037305027" lon="34.6841805428"><ele>152.82</ele><time>2026-08-16T15:28:23Z</time></trkpt><trkpt lat="59.3036203645" lon="34.6843893360"><ele>150.19</ele><time>2026-08-16T15:28:36Z</time></trkpt><trkpt lat="59.3035406526" lon="34.6845449880"><ele>146.79</ele><time>2026-08-16T15:28:47Z</time></trkpt><trkpt lat="59.3034219649" lon="34.6847704612"><ele>142.55</ele><time>2026-08-16T15:29:04Z</time></trkpt><trkpt lat="59.3032688275" lon="34.6851538494"><ele>137.85</ele><time>2026-08-16T15:29:22Z</time></trkpt><trkpt lat="59.3031824939" lon="34.6853141952"><ele>135.54</ele><time>2026-08-16T15:29:32Z</time></trkpt><trkpt lat="59.3030835036" lon="34.6854785644"><ele>138.35</ele><time>2026-08-16T15:29:51Z</time></trkpt><trkpt lat="59.3029695936" lon="34.6856402513"><ele>142.66</ele><time>2026-08-16T15:30:05Z</time></trkpt><trkpt lat="59.3030032050" lon="34.6857308596"><ele>151.72</ele><time>2026-08-16T15:30:29Z</time></trkpt><trkpt lat="59.3029993493" lon="34.6857142635"><ele>153.28</ele><time>2026-08-16T15:30:41Z</time></trkpt><trkpt lat="59.3029765505" lon="34.6856890339"><ele>154.35</ele><time>2026-08-16T15:30:59Z</time></trkpt><trkpt lat="59.3029592000" lon="34.6856734436"><ele>154.59</ele><time>2026-08-16T15:31:10Z</time></trkpt><trkpt lat="59.3028677534" lon="34.6858223062"><ele>154.29</ele><time>2026-08-16T15:31:23Z</time></trkpt><trkpt lat="59.3027871195" lon="34.6859424189"><ele>153.18</ele><time>2026-08-16T15:31:33Z</time></trkpt><trkpt lat="59.3026653305" lon="34.6861904394"><ele>151.31</ele><time>2026-08-16T15:31:48Z</time></trkpt><trkpt lat="59.3025124446" lon="34.6864579897"><ele>148.46</ele><time>2026-08-16T15:32:06Z</time></trkpt><trkpt lat="59.3024683557" lon="34.6867173258"><ele>144.46</ele><time>2026-08-16T15:32:20Z</time></trkpt><trkpt lat="59.3024206627" lon="34.6866511926"><ele>143.90</ele><time>2026-08-16T15:32:26Z</time></trkpt><trkpt lat="59.3023528531" lon="34.6865810361"><ele>143.34</ele><time>2026-08-16T15:32:33Z</time></trkpt><trkpt lat="59.3022684474" lon="34.6864277311"><ele>142.23</ele><time>2026-08-16T15:32:43Z</time></trkpt><trkpt lat="59.3021801859" lon="34.6862041857"><ele>141.47</ele><time>2026-08-16T15:32:56Z</time></trkpt><trkpt lat="59.3021039944" lon="34.6860210411"><ele>137.92</ele><time>2026-08-16T15:33:08Z</time></trkpt><trkpt lat="59.3020236120" lon="34.6858911216"><ele>137.75</ele><time>2026-08-16T15:33:18Z</time></trkpt><trkpt lat="59.3019647710" lon="34.6857096534"><ele>138.58</ele><time>2026-08-16T15:33:29Z</time></trkpt><trkpt lat="59.3018620089" lon="34.6855323762"><ele>141.38</ele><time>2026-08-16T15:33:42Z</time></trkpt><trkpt lat="59.3017882481" lon="34.6854913887"><ele>143.71</ele><time>2026-08-16T15:33:54Z</time></trkpt><trkpt lat="59.3017129786" lon="34.6854605433"><ele>145.08</ele><time>2026-08-16T15:34:06Z</time></trkpt><trkpt lat="59.3016435765" lon="34.6854612976"><ele>147.54</ele><time>2026-08-16T15:34:23Z</time></trkpt><trkpt lat="59.3016372900" lon="34.6854487248"><ele>150.46</ele><time>2026-08-16T15:34:44Z</time></trkpt><trkpt lat="59.3016462587" lon="34.6854178794"><ele>151.82</ele><time>2026-08-16T15:34:58Z</time></trkpt><trkpt lat="59.3016497791" lon="34.6854180470"><ele>152.47</ele><time>2026-08-16T15:35:21Z</time></trkpt><trkpt lat="59.3016450852" lon="34.6853892971"><ele>154.68</ele><time>2026-08-16T15:35:38Z</time></trkpt><trkpt lat="59.3016452529" lon="34.6853907220"><ele>154.74</ele><time>2026-08-16T15:35:56Z</time></trkpt><trkpt lat="59.3016847316" lon="34.6854066476"><ele>155.34</ele><time>2026-08-16T15:36:16Z</time></trkpt><trkpt lat="59.3017038424" lon="34.6854097489"><ele>155.43</ele><time>2026-08-16T15:36:18Z</time></trkpt><trkpt lat="59.3017643597" lon="34.6854345594"><ele>155.46</ele><time>2026-08-16T15:36:24Z</time></trkpt><trkpt lat="59.3017890025" lon="34.6854716912"><ele>155.54</ele><time>2026-08-16T15:36:27Z</time></trkpt><trkpt lat="59.3018977158" lon="34.6856549196"><ele>154.12</ele><time>2026-08-16T15:36:41Z</time></trkpt><trkpt lat="59.3019618373" lon="34.6858766209"><ele>150.75</ele><time>2026-08-16T15:36:54Z</time></trkpt><trkpt lat="59.3020105362" lon="34.6860382240"><ele>147.34</ele><time>2026-08-16T15:37:04Z</time></trkpt><trkpt lat="59.3020830397" lon="34.6862108074"><ele>143.75</ele><time>2026-08-16T15:37:17Z</time></trkpt><trkpt lat="59.3021391984" lon="34.6863749251"><ele>139.97</ele><time>2026-08-16T15:37:29Z</time></trkpt><trkpt lat="59.3023376819" lon="34.6865434013"><ele>134.41</ele><time>2026-08-16T15:37:47Z</time></trkpt><trkpt lat="59.3023837823" lon="34.6868040785"><ele>133.86</ele><time>2026-08-16T15:38:02Z</time></trkpt><trkpt lat="59.3024194054" lon="34.6870463993"><ele>132.54</ele><time>2026-08-16T15:38:15Z</time></trkpt><trkpt lat="59.3024944235" lon="34.6870268695"><ele>135.71</ele><time>2026-08-16T15:38:36Z</time></trkpt><trkpt lat="59.3025049847" lon="34.6870873868"><ele>139.86</ele><time>2026-08-16T15:38:55Z</time></trkpt><trkpt lat="59.3024906516" lon="34.6870777477"><ele>143.41</ele><time>2026-08-16T15:39:12Z</time></trkpt><trkpt lat="59.3024277873" lon="34.6870977804"><ele>146.30</ele><time>2026-08-16T15:39:30Z</time></trkpt><trkpt lat="59.3023300543" lon="34.6873008739"><ele>147.04</ele><time>2026-08-16T15:39:48Z</time></trkpt><trkpt lat="59.3022109475" lon="34.6876045503"><ele>144.34</ele><time>2026-08-16T15:40:03Z</time></trkpt><trkpt lat="59.3021345884" lon="34.6878855955"><ele>144.49</ele><time>2026-08-16T15:40:18Z</time></trkpt><trkpt lat="59.3021303136" lon="34.6879065502"><ele>144.31</ele><time>2026-08-16T15:40:20Z</time></trkpt><trkpt lat="59.3020716403" lon="34.6880501322"><ele>145.52</ele><time>2026-08-16T15:40:33Z</time></trkpt><trkpt lat="59.3020611629" lon="34.6880258247"><ele>148.01</ele><time>2026-08-16T15:40:52Z</time></trkpt><trkpt lat="59.3020601571" lon="34.6880083065"><ele>149.82</ele><time>2026-08-16T15:41:03Z</time></trkpt><trkpt lat="59.3020532839" lon="34.6880175266"><ele>151.11</ele><time>2026-08-16T15:41:29Z</time></trkpt><trkpt lat="59.3020147271" lon="34.6881605219"><ele>152.05</ele><time>2026-08-16T15:41:45Z</time></trkpt><trkpt lat="59.3020011485" lon="34.6881953906"><ele>152.27</ele><time>2026-08-16T15:41:47Z</time></trkpt><trkpt lat="59.3019257952" lon="34.6884400584"><ele>150.80</ele><time>2026-08-16T15:42:00Z</time></trkpt><trkpt lat="59.3018477596" lon="34.6887430642"><ele>147.25</ele><time>2026-08-16T15:42:15Z</time></trkpt><trkpt lat="59.3018036708" lon="34.6890422981"><ele>145.20</ele><time>2026-08-16T15:42:29Z</time></trkpt><trkpt lat="59.3018038385" lon="34.6890764125"><ele>144.85</ele><time>2026-08-16T15:42:32Z</time></trkpt><trkpt lat="59.3017487694" lon="34.6892429609"><ele>144.53</ele><time>2026-08-16T15:42:41Z</time></trkpt><trkpt lat="59.3017386273" lon="34.6892685257"><ele>144.48</ele><time>2026-08-16T15:42:43Z</time></trkpt><trkpt lat="59.3016918562" lon="34.6894888859"><ele>144.80</ele><time>2026-08-16T15:42:56Z</time></trkpt><trkpt lat="59.3016405590" lon="34.6896044724"><ele>145.08</ele><time>2026-08-16T15:43:03Z</time></trkpt><trkpt lat="59.3016291596" lon="34.6897241659"><ele>145.41</ele><time>2026-08-16T15:43:08Z</time></trkpt><trkpt lat="59.3015551474" lon="34.6899669059"><ele>145.62</ele><time>2026-08-16T15:43:20Z</time></trkpt><trkpt lat="59.3014709093" lon="34.6902897768"><ele>143.36</ele><time>2026-08-16T15:43:37Z</time></trkpt><trkpt lat="59.3014412373" lon="34.6904893499"><ele>141.49</ele><time>2026-08-16T15:43:53Z</time></trkpt><trkpt lat="59.3014164269" lon="34.6905342769"><ele>145.39</ele><time>2026-08-16T15:44:15Z</time></trkpt><trkpt lat="59.3014472723" lon="34.6905564051"><ele>148.37</ele><time>2026-08-16T15:44:30Z</time></trkpt><trkpt lat="59.3014786206" lon="34.6906265616"><ele>152.02</ele><time>2026-08-16T15:44:51Z</time></trkpt><trkpt lat="59.3015243858" lon="34.6908096224"><ele>152.23</ele><time>2026-08-16T15:45:07Z</time></trkpt><trkpt lat="59.3015849032" lon="34.6910010651"><ele>151.94</ele><time>2026-08-16T15:45:23Z</time></trkpt><trkpt lat="59.3016370386" lon="34.6911132149"><ele>152.11</ele><time>2026-08-16T15:45:38Z</time></trkpt><trkpt lat="59.3016789481" lon="34.6911220998"><ele>153.76</ele><time>2026-08-16T15:45:56Z</time></trkpt><trkpt lat="59.3016557302" lon="34.6911542863"><ele>154.52</ele><time>2026-08-16T15:46:14Z</time></trkpt><trkpt lat="59.3016772717" lon="34.6913075913"><ele>154.69</ele><time>2026-08-16T15:46:28Z</time></trkpt><trkpt lat="59.3017288204" lon="34.6915681008"><ele>153.24</ele><time>2026-08-16T15:46:42Z</time></trkpt><trkpt lat="59.3018049281" lon="34.6917986032"><ele>151.14</ele><time>2026-08-16T15:46:57Z</time></trkpt><trkpt lat="59.3018764257" lon="34.6920228191"><ele>148.04</ele><time>2026-08-16T15:47:11Z</time></trkpt><trkpt lat="59.3019373622" lon="34.6922394074"><ele>144.04</ele><time>2026-08-16T15:47:25Z</time></trkpt><trkpt lat="59.3020013999" lon="34.6923200414"><ele>141.60</ele><time>2026-08-16T15:47:40Z</time></trkpt><trkpt lat="59.3020445667" lon="34.6924386453"><ele>141.14</ele><time>2026-08-16T15:47:55Z</time></trkpt><trkpt lat="59.3021334149" lon="34.6926264837"><ele>142.17</ele><time>2026-08-16T15:48:12Z</time></trkpt><trkpt lat="59.3022054154" lon="34.6927515417"><ele>141.88</ele><time>2026-08-16T15:48:28Z</time></trkpt><trkpt lat="59.3022583053" lon="34.6929503605"><ele>144.39</ele><time>2026-08-16T15:48:46Z</time></trkpt><trkpt lat="59.3022837862" lon="34.6930870693"><ele>145.23</ele><time>2026-08-16T15:48:57Z</time></trkpt><trkpt lat="59.3023610674" lon="34.6932718065"><ele>145.64</ele><time>2026-08-16T15:49:11Z</time></trkpt><trkpt lat="59.3024200760" lon="34.6934896521"><ele>144.82</ele><time>2026-08-16T15:49:29Z</time></trkpt><trkpt lat="59.3025180604" lon="34.6936754789"><ele>143.65</ele><time>2026-08-16T15:49:47Z</time></trkpt><trkpt lat="59.3025862891" lon="34.6938292030"><ele>143.80</ele><time>2026-08-16T15:50:02Z</time></trkpt><trkpt lat="59.3026385084" lon="34.6939134412"><ele>144.76</ele><time>2026-08-16T15:50:14Z</time></trkpt><trkpt lat="59.3026372511" lon="34.6939231642"><ele>145.62</ele><time>2026-08-16T15:50:31Z</time></trkpt><trkpt lat="59.3026504945" lon="34.6939197276"><ele>147.25</ele><time>2026-08-16T15:50:44Z</time></trkpt><trkpt lat="59.3026754726" lon="34.6939630620"><ele>148.27</ele><time>2026-08-16T15:51:00Z</time></trkpt><trkpt lat="59.3026821781" lon="34.6939744614"><ele>148.27</ele><time>2026-08-16T15:51:01Z</time></trkpt><trkpt lat="59.3026976846" lon="34.6940022893"><ele>148.26</ele><time>2026-08-16T15:51:03Z</time></trkpt><trkpt lat="59.3027998600" lon="34.6942365635"><ele>149.79</ele><time>2026-08-16T15:51:18Z</time></trkpt><trkpt lat="59.3028618023" lon="34.6944529843"><ele>150.11</ele><time>2026-08-16T15:51:30Z</time></trkpt><trkpt lat="59.3029146921" lon="34.6945616137"><ele>151.05</ele><time>2026-08-16T15:51:42Z</time></trkpt><trkpt lat="59.3029281870" lon="34.6945409942"><ele>151.80</ele><time>2026-08-16T15:51:56Z</time></trkpt><trkpt lat="59.3029919732" lon="34.6945690736"><ele>152.23</ele><time>2026-08-16T15:52:10Z</time></trkpt><trkpt lat="59.3030944001" lon="34.6946334466"><ele>153.24</ele><time>2026-08-16T15:52:22Z</time></trkpt><trkpt lat="59.3031123374" lon="34.6946814749"><ele>153.21</ele><time>2026-08-16T15:52:25Z</time></trkpt><trkpt lat="59.3032539077" lon="34.6947885118"><ele>152.68</ele><time>2026-08-16T15:52:41Z</time></trkpt><trkpt lat="59.3033366371" lon="34.6948335227"><ele>152.44</ele><time>2026-08-16T15:52:51Z</time></trkpt><trkpt lat="59.3033901975" lon="34.6948337741"><ele>152.80</ele><time>2026-08-16T15:53:01Z</time></trkpt><trkpt lat="59.3034278322" lon="34.6948086284"><ele>153.00</ele><time>2026-08-16T15:53:11Z</time></trkpt><trkpt lat="59.3034262396" lon="34.6948145796"><ele>152.76</ele><time>2026-08-16T15:53:29Z</time></trkpt><trkpt lat="59.3034466915" lon="34.6947884280"><ele>153.60</ele><time>2026-08-16T15:53:44Z</time></trkpt><trkpt lat="59.3034613598" lon="34.6947930381"><ele>154.49</ele><time>2026-08-16T15:54:03Z</time></trkpt><trkpt lat="59.3034675624" lon="34.6947855782"><ele>156.13</ele><time>2026-08-16T15:54:23Z</time></trkpt><trkpt lat="59.3034684006" lon="34.6947916131"><ele>157.01</ele><time>2026-08-16T15:54:48Z</time></trkpt><trkpt lat="59.3034867570" lon="34.6947322693"><ele>156.88</ele><time>2026-08-16T15:55:07Z</time></trkpt><trkpt lat="59.3034708314" lon="34.6947481111"><ele>157.25</ele><time>2026-08-16T15:55:25Z</time></trkpt><trkpt lat="59.3034824822" lon="34.6947396453"><ele>157.49</ele><time>2026-08-16T15:55:53Z</time></trkpt><trkpt lat="59.3034569174" lon="34.6947812196"><ele>157.92</ele><time>2026-08-16T15:56:14Z</time></trkpt><trkpt lat="59.3034499604" lon="34.6947961394"><ele>159.29</ele><time>2026-08-16T15:56:35Z</time></trkpt><trkpt lat="59.3034487870" lon="34.6947823092"><ele>159.42</ele><time>2026-08-16T15:56:54Z</time></trkpt><trkpt lat="59.3034385610" lon="34.6947916970"><ele>158.71</ele><time>2026-08-16T15:57:10Z</time></trkpt><trkpt lat="59.3034294248" lon="34.6948001627"><ele>157.21</ele><time>2026-08-16T15:57:28Z</time></trkpt><trkpt lat="59.3034138344" lon="34.6948339418"><ele>156.61</ele><time>2026-08-16T15:57:42Z</time></trkpt><trkpt lat="59.3034095597" lon="34.6948476043"><ele>156.24</ele><time>2026-08-16T15:58:04Z</time></trkpt><trkpt lat="59.3034074642" lon="34.6948502865"><ele>156.14</ele><time>2026-08-16T15:58:30Z</time></trkpt><trkpt lat="59.3034015130" lon="34.6948541421"><ele>155.83</ele><time>2026-08-16T15:58:56Z</time></trkpt><trkpt lat="59.3034108169" lon="34.6948178485"><ele>155.37</ele><time>2026-08-16T15:59:18Z</time></trkpt><trkpt lat="59.3034138344" lon="34.6947802976"><ele>155.07</ele><time>2026-08-16T15:59:44Z</time></trkpt><trkpt lat="59.3034095597" lon="34.6948029287"><ele>155.09</ele><time>2026-08-16T16:00:10Z</time></trkpt><trkpt lat="59.3034137506" lon="34.6948097181"><ele>154.96</ele><time>2026-08-16T16:00:37Z</time></trkpt><trkpt lat="59.3034059554" lon="34.6948333550"><ele>154.47</ele><time>2026-08-16T16:01:01Z</time></trkpt><trkpt lat="59.3034181930" lon="34.6947973967"><ele>154.49</ele><time>2026-08-16T16:01:23Z</time></trkpt><trkpt lat="59.3034233060" lon="34.6948067006"><ele>154.44</ele><time>2026-08-16T16:01:29Z</time></trkpt><trkpt lat="59.3033984955" lon="34.6948357858"><ele>153.34</ele><time>2026-08-16T16:02:02Z</time></trkpt><trkpt lat="59.3034092244" lon="34.6948274039"><ele>153.76</ele><time>2026-08-16T16:02:24Z</time></trkpt><trkpt lat="59.3034077995" lon="34.6948244702"><ele>154.39</ele><time>2026-08-16T16:02:49Z</time></trkpt><trkpt lat="59.3034174386" lon="34.6948346961"><ele>154.99</ele><time>2026-08-16T16:03:07Z</time></trkpt><trkpt lat="59.3034225516" lon="34.6948241349"><ele>154.57</ele><time>2026-08-16T16:03:26Z</time></trkpt><trkpt lat="59.3034311850" lon="34.6948412340"><ele>154.16</ele><time>2026-08-16T16:03:41Z</time></trkpt><trkpt lat="59.3035132438" lon="34.6948968060"><ele>153.93</ele><time>2026-08-16T16:03:55Z</time></trkpt><trkpt lat="59.3036271539" lon="34.6948609315"><ele>153.27</ele><time>2026-08-16T16:04:14Z</time></trkpt><trkpt lat="59.3036955502" lon="34.6948570758"><ele>152.85</ele><time>2026-08-16T16:04:23Z</time></trkpt><trkpt lat="59.3038345221" lon="34.6950894222"><ele>151.51</ele><time>2026-08-16T16:04:41Z</time></trkpt><trkpt lat="59.3039402179" lon="34.6953024063"><ele>150.30</ele><time>2026-08-16T16:04:55Z</time></trkpt><trkpt lat="59.3040308263" lon="34.6955009736"><ele>149.20</ele><time>2026-08-16T16:05:09Z</time></trkpt><trkpt lat="59.3041049223" lon="34.6956608165"><ele>149.59</ele><time>2026-08-16T16:05:20Z</time></trkpt><trkpt lat="59.3041703012" lon="34.6957566217"><ele>150.17</ele><time>2026-08-16T16:05:28Z</time></trkpt><trkpt lat="59.3042387813" lon="34.6959360782"><ele>150.23</ele><time>2026-08-16T16:05:40Z</time></trkpt><trkpt lat="59.3042431399" lon="34.6959540155"><ele>150.15</ele><time>2026-08-16T16:05:41Z</time></trkpt><trkpt lat="59.3042548746" lon="34.6960359067"><ele>149.51</ele><time>2026-08-16T16:05:45Z</time></trkpt><trkpt lat="59.3042246159" lon="34.6962659899"><ele>147.83</ele><time>2026-08-16T16:05:56Z</time></trkpt><trkpt lat="59.3041769229" lon="34.6965192072"><ele>147.71</ele><time>2026-08-16T16:06:09Z</time></trkpt><trkpt lat="59.3041838799" lon="34.6967696585"><ele>147.79</ele><time>2026-08-16T16:06:21Z</time></trkpt><trkpt lat="59.3041728158" lon="34.6969338600"><ele>147.39</ele><time>2026-08-16T16:06:34Z</time></trkpt><trkpt lat="59.3041630089" lon="34.6969687287"><ele>150.52</ele><time>2026-08-16T16:06:55Z</time></trkpt><trkpt lat="59.3041674513" lon="34.6969808824"><ele>152.23</ele><time>2026-08-16T16:07:15Z</time></trkpt><trkpt lat="59.3041629251" lon="34.6970778611"><ele>151.96</ele><time>2026-08-16T16:07:39Z</time></trkpt><trkpt lat="59.3041550461" lon="34.6971810423"><ele>151.84</ele><time>2026-08-16T16:07:45Z</time></trkpt><trkpt lat="59.3041405454" lon="34.6973488480"><ele>151.18</ele><time>2026-08-16T16:07:59Z</time></trkpt><trkpt lat="59.3041459098" lon="34.6973602474"><ele>151.35</ele><time>2026-08-16T16:08:16Z</time></trkpt><trkpt lat="59.3041507713" lon="34.6973387897"><ele>151.30</ele><time>2026-08-16T16:08:36Z</time></trkpt><trkpt lat="59.3041682895" lon="34.6972594969"><ele>151.71</ele><time>2026-08-16T16:08:41Z</time></trkpt><trkpt lat="59.3042023201" lon="34.6971751750"><ele>152.60</ele><time>2026-08-16T16:08:52Z</time></trkpt><trkpt lat="59.3042646814" lon="34.6971709002"><ele>152.85</ele><time>2026-08-16T16:09:03Z</time></trkpt><trkpt lat="59.3043310661" lon="34.6971742529"><ele>153.05</ele><time>2026-08-16T16:09:16Z</time></trkpt><trkpt lat="59.3044032343" lon="34.6971175913"><ele>152.93</ele><time>2026-08-16T16:09:31Z</time></trkpt><trkpt lat="59.3045173120" lon="34.6970724966"><ele>151.82</ele><time>2026-08-16T16:09:47Z</time></trkpt><trkpt lat="59.3045885582" lon="34.6970986482"><ele>151.49</ele><time>2026-08-16T16:09:57Z</time></trkpt><trkpt lat="59.3046725448" lon="34.6971879154"><ele>149.36</ele><time>2026-08-16T16:10:11Z</time></trkpt><trkpt lat="59.3046936672" lon="34.6971866582"><ele>148.77</ele><time>2026-08-16T16:10:15Z</time></trkpt><trkpt lat="59.3048061524" lon="34.6973060165"><ele>149.57</ele><time>2026-08-16T16:10:33Z</time></trkpt><trkpt lat="59.3049184699" lon="34.6974636801"><ele>148.34</ele><time>2026-08-16T16:10:51Z</time></trkpt><trkpt lat="59.3050313741" lon="34.6975204255"><ele>147.47</ele><time>2026-08-16T16:11:05Z</time></trkpt><trkpt lat="59.3051194679" lon="34.6975499298"><ele>148.29</ele><time>2026-08-16T16:11:19Z</time></trkpt><trkpt lat="59.3051371537" lon="34.6975616645"><ele>149.84</ele><time>2026-08-16T16:11:35Z</time></trkpt><trkpt lat="59.3051349744" lon="34.6975173242"><ele>152.79</ele><time>2026-08-16T16:11:56Z</time></trkpt><trkpt lat="59.3051159475" lon="34.6974956151"><ele>159.08</ele><time>2026-08-16T16:12:21Z</time></trkpt><trkpt lat="59.3050100002" lon="34.6974868141"><ele>160.60</ele><time>2026-08-16T16:12:38Z</time></trkpt><trkpt lat="59.3049186375" lon="34.6974154003"><ele>160.10</ele><time>2026-08-16T16:12:54Z</time></trkpt><trkpt lat="59.3048157077" lon="34.6972741652"><ele>158.84</ele><time>2026-08-16T16:13:11Z</time></trkpt><trkpt lat="59.3047339842" lon="34.6971496101"><ele>157.83</ele><time>2026-08-16T16:13:25Z</time></trkpt><trkpt lat="59.3046608940" lon="34.6970807947"><ele>157.02</ele><time>2026-08-16T16:13:39Z</time></trkpt><trkpt lat="59.3045736384" lon="34.6970565710"><ele>156.55</ele><time>2026-08-16T16:13:50Z</time></trkpt><trkpt lat="59.3045065831" lon="34.6970685571"><ele>155.96</ele><time>2026-08-16T16:14:04Z</time></trkpt><trkpt lat="59.3044836167" lon="34.6970629413"><ele>156.22</ele><time>2026-08-16T16:14:07Z</time></trkpt><trkpt lat="59.3044111133" lon="34.6970082913"><ele>156.76</ele><time>2026-08-16T16:14:22Z</time></trkpt><trkpt lat="59.3043417949" lon="34.6969774459"><ele>156.28</ele><time>2026-08-16T16:14:35Z</time></trkpt><trkpt lat="59.3042626698" lon="34.6969346143"><ele>155.92</ele><time>2026-08-16T16:14:48Z</time></trkpt><trkpt lat="59.3042024039" lon="34.6969678067"><ele>155.58</ele><time>2026-08-16T16:15:02Z</time></trkpt><trkpt lat="59.3041887414" lon="34.6969817206"><ele>155.55</ele><time>2026-08-16T16:15:17Z</time></trkpt><trkpt lat="59.3042077683" lon="34.6969956346"><ele>155.98</ele><time>2026-08-16T16:15:37Z</time></trkpt><trkpt lat="59.3042107020" lon="34.6971030906"><ele>156.61</ele><time>2026-08-16T16:15:55Z</time></trkpt><trkpt lat="59.3042019010" lon="34.6971404739"><ele>156.67</ele><time>2026-08-16T16:15:57Z</time></trkpt><trkpt lat="59.3041955307" lon="34.6971821319"><ele>156.57</ele><time>2026-08-16T16:15:59Z</time></trkpt><trkpt lat="59.3041604105" lon="34.6973076928"><ele>155.77</ele><time>2026-08-16T16:16:05Z</time></trkpt><trkpt lat="59.3041024916" lon="34.6975698788"><ele>153.55</ele><time>2026-08-16T16:16:18Z</time></trkpt><trkpt lat="59.3040557206" lon="34.6978331544"><ele>153.24</ele><time>2026-08-16T16:16:31Z</time></trkpt><trkpt lat="59.3040233664" lon="34.6980898920"><ele>152.34</ele><time>2026-08-16T16:16:44Z</time></trkpt><trkpt lat="59.3039999809" lon="34.6983583644"><ele>150.42</ele><time>2026-08-16T16:16:57Z</time></trkpt><trkpt lat="59.3039644416" lon="34.6986116655"><ele>149.63</ele><time>2026-08-16T16:17:09Z</time></trkpt><trkpt lat="59.3039525393" lon="34.6987008490"><ele>149.20</ele><time>2026-08-16T16:17:13Z</time></trkpt><trkpt lat="59.3039128091" lon="34.6990424953"><ele>148.12</ele><time>2026-08-16T16:17:29Z</time></trkpt><trkpt lat="59.3038784433" lon="34.6992854029"><ele>148.84</ele><time>2026-08-16T16:17:42Z</time></trkpt><trkpt lat="59.3038217817" lon="34.6995229460"><ele>149.14</ele><time>2026-08-16T16:17:55Z</time></trkpt><trkpt lat="59.3037755974" lon="34.6997309849"><ele>148.60</ele><time>2026-08-16T16:18:06Z</time></trkpt><trkpt lat="59.3037731666" lon="34.6997519396"><ele>148.54</ele><time>2026-08-16T16:18:07Z</time></trkpt><trkpt lat="59.3037384655" lon="34.7001059912"><ele>147.80</ele><time>2026-08-16T16:18:23Z</time></trkpt><trkpt lat="59.3037020881" lon="34.7003458813"><ele>147.73</ele><time>2026-08-16T16:18:35Z</time></trkpt><trkpt lat="59.3036551494" lon="34.7006321233"><ele>149.26</ele><time>2026-08-16T16:18:49Z</time></trkpt><trkpt lat="59.3036133237" lon="34.7008620389"><ele>150.50</ele><time>2026-08-16T16:19:01Z</time></trkpt><trkpt lat="59.3035512976" lon="34.7010944691"><ele>151.17</ele><time>2026-08-16T16:19:14Z</time></trkpt><trkpt lat="59.3035133276" lon="34.7013271507"><ele>150.41</ele><time>2026-08-16T16:19:27Z</time></trkpt><trkpt lat="59.3034474459" lon="34.7015442420"><ele>148.30</ele><time>2026-08-16T16:19:39Z</time></trkpt><trkpt lat="59.3034136668" lon="34.7016724851"><ele>147.09</ele><time>2026-08-16T16:19:45Z</time></trkpt><trkpt lat="59.3033685721" lon="34.7018719744"><ele>148.32</ele><time>2026-08-16T16:19:57Z</time></trkpt><trkpt lat="59.3033596873" lon="34.7018999700"><ele>150.61</ele><time>2026-08-16T16:20:15Z</time></trkpt><trkpt lat="59.3033673987" lon="34.7018921748"><ele>151.96</ele><time>2026-08-16T16:20:33Z</time></trkpt><trkpt lat="59.3033631239" lon="34.7019153927"><ele>151.96</ele><time>2026-08-16T16:20:38Z</time></trkpt><trkpt lat="59.3033513054" lon="34.7019715514"><ele>151.89</ele><time>2026-08-16T16:20:41Z</time></trkpt><trkpt lat="59.3033295963" lon="34.7020984534"><ele>151.51</ele><time>2026-08-16T16:20:47Z</time></trkpt><trkpt lat="59.3032665644" lon="34.7023420315"><ele>150.90</ele><time>2026-08-16T16:20:59Z</time></trkpt><trkpt lat="59.3031881936" lon="34.7025929857"><ele>150.08</ele><time>2026-08-16T16:21:12Z</time></trkpt><trkpt lat="59.3031328730" lon="34.7028265893"><ele>150.08</ele><time>2026-08-16T16:21:25Z</time></trkpt><trkpt lat="59.3030936457" lon="34.7029993404"><ele>149.41</ele><time>2026-08-16T16:21:35Z</time></trkpt><trkpt lat="59.3030741159" lon="34.7031851672"><ele>149.58</ele><time>2026-08-16T16:21:44Z</time></trkpt><trkpt lat="59.3030721880" lon="34.7034065332"><ele>147.93</ele><time>2026-08-16T16:21:56Z</time></trkpt><trkpt lat="59.3030042946" lon="34.7036278993"><ele>146.92</ele><time>2026-08-16T16:22:07Z</time></trkpt><trkpt lat="59.3028809968" lon="34.7040557954"><ele>145.26</ele><time>2026-08-16T16:22:28Z</time></trkpt><trkpt lat="59.3028281070" lon="34.7043230943"><ele>147.75</ele><time>2026-08-16T16:22:42Z</time></trkpt><trkpt lat="59.3028176297" lon="34.7043676861"><ele>149.89</ele><time>2026-08-16T16:23:00Z</time></trkpt><trkpt lat="59.3027858622" lon="34.7043732181"><ele>152.20</ele><time>2026-08-16T16:23:17Z</time></trkpt><trkpt lat="59.3027702719" lon="34.7044703644"><ele>154.54</ele><time>2026-08-16T16:23:38Z</time></trkpt><trkpt lat="59.3027156219" lon="34.7048422694"><ele>155.17</ele><time>2026-08-16T16:23:58Z</time></trkpt><trkpt lat="59.3026457168" lon="34.7051694151"><ele>155.99</ele><time>2026-08-16T16:24:15Z</time></trkpt><trkpt lat="59.3025673460" lon="34.7054368816"><ele>155.88</ele><time>2026-08-16T16:24:32Z</time></trkpt><trkpt lat="59.3024801742" lon="34.7056470998"><ele>154.07</ele><time>2026-08-16T16:24:47Z</time></trkpt><trkpt lat="59.3024737202" lon="34.7056821361"><ele>154.00</ele><time>2026-08-16T16:24:50Z</time></trkpt><trkpt lat="59.3023465667" lon="34.7059408017"><ele>152.64</ele><time>2026-08-16T16:25:09Z</time></trkpt><trkpt lat="59.3022753205" lon="34.7060849704"><ele>151.09</ele><time>2026-08-16T16:25:22Z</time></trkpt><trkpt lat="59.3021656852" lon="34.7062894050"><ele>149.39</ele><time>2026-08-16T16:25:31Z</time></trkpt><trkpt lat="59.3020916730" lon="34.7064158879"><ele>148.30</ele><time>2026-08-16T16:25:39Z</time></trkpt><trkpt lat="59.3020590674" lon="34.7064329870"><ele>147.98</ele><time>2026-08-16T16:25:42Z</time></trkpt><trkpt lat="59.3019780144" lon="34.7064945102"><ele>148.66</ele><time>2026-08-16T16:25:49Z</time></trkpt><trkpt lat="59.3019618373" lon="34.7065044846"><ele>149.74</ele><time>2026-08-16T16:26:09Z</time></trkpt><trkpt lat="59.3019154016" lon="34.7065209970"><ele>153.66</ele><time>2026-08-16T16:26:40Z</time></trkpt><trkpt lat="59.3018121365" lon="34.7067571152"><ele>155.45</ele><time>2026-08-16T16:26:58Z</time></trkpt><trkpt lat="59.3017831352" lon="34.7068652418"><ele>155.29</ele><time>2026-08-16T16:27:05Z</time></trkpt><trkpt lat="59.3017765135" lon="34.7071195487"><ele>152.92</ele><time>2026-08-16T16:27:18Z</time></trkpt><trkpt lat="59.3017357774" lon="34.7072703391"><ele>151.81</ele><time>2026-08-16T16:27:25Z</time></trkpt><trkpt lat="59.3017068598" lon="34.7073762864"><ele>151.21</ele><time>2026-08-16T16:27:30Z</time></trkpt><trkpt lat="59.3017003220" lon="34.7074517235"><ele>150.97</ele><time>2026-08-16T16:27:34Z</time></trkpt><trkpt lat="59.3016778585" lon="34.7076500393"><ele>152.02</ele><time>2026-08-16T16:27:56Z</time></trkpt><trkpt lat="59.3016564008" lon="34.7076885123"><ele>153.08</ele><time>2026-08-16T16:28:17Z</time></trkpt><trkpt lat="59.3016686384" lon="34.7077480238"><ele>151.17</ele><time>2026-08-16T16:28:35Z</time></trkpt><trkpt lat="59.3016666267" lon="34.7078455053"><ele>150.74</ele><time>2026-08-16T16:28:40Z</time></trkpt><trkpt lat="59.3016079534" lon="34.7082858905"><ele>149.69</ele><time>2026-08-16T16:29:00Z</time></trkpt><trkpt lat="59.3015785329" lon="34.7085226793"><ele>148.58</ele><time>2026-08-16T16:29:12Z</time></trkpt><trkpt lat="59.3015678879" lon="34.7086148802"><ele>147.81</ele><time>2026-08-16T16:29:16Z</time></trkpt><trkpt lat="59.3015383836" lon="34.7087846976"><ele>145.08</ele><time>2026-08-16T16:29:26Z</time></trkpt><trkpt lat="59.3014683109" lon="34.7092263401"><ele>140.07</ele><time>2026-08-16T16:29:47Z</time></trkpt><trkpt lat="59.3014279939" lon="34.7094700858"><ele>137.96</ele><time>2026-08-16T16:29:59Z</time></trkpt><trkpt lat="59.3013961427" lon="34.7097590938"><ele>137.68</ele><time>2026-08-16T16:30:14Z</time></trkpt><trkpt lat="59.3013475277" lon="34.7099937871"><ele>137.30</ele><time>2026-08-16T16:30:25Z</time></trkpt><trkpt lat="59.3011955637" lon="34.7105072625"><ele>138.89</ele><time>2026-08-16T16:30:48Z</time></trkpt><trkpt lat="59.3011166062" lon="34.7106791753"><ele>142.85</ele><time>2026-08-16T16:31:03Z</time></trkpt><trkpt lat="59.3011579290" lon="34.7106657643"><ele>149.66</ele><time>2026-08-16T16:31:27Z</time></trkpt><trkpt lat="59.3010965735" lon="34.7106856294"><ele>150.93</ele><time>2026-08-16T16:31:46Z</time></trkpt><trkpt lat="59.3010202143" lon="34.7108760662"><ele>152.55</ele><time>2026-08-16T16:32:03Z</time></trkpt><trkpt lat="59.3009078968" lon="34.7111629788"><ele>152.45</ele><time>2026-08-16T16:32:18Z</time></trkpt><trkpt lat="59.3008533306" lon="34.7114599496"><ele>153.38</ele><time>2026-08-16T16:32:32Z</time></trkpt><trkpt lat="59.3008354772" lon="34.7116873506"><ele>153.03</ele><time>2026-08-16T16:32:43Z</time></trkpt><trkpt lat="59.3008357286" lon="34.7117542382"><ele>153.11</ele><time>2026-08-16T16:32:47Z</time></trkpt><trkpt lat="59.3008795660" lon="34.7120769415"><ele>155.57</ele><time>2026-08-16T16:33:07Z</time></trkpt><trkpt lat="59.3009805679" lon="34.7123512812"><ele>158.81</ele><time>2026-08-16T16:33:23Z</time></trkpt><trkpt lat="59.3011215515" lon="34.7125345934"><ele>157.61</ele><time>2026-08-16T16:33:40Z</time></trkpt><trkpt lat="59.3012822326" lon="34.7126669437"><ele>155.76</ele><time>2026-08-16T16:33:58Z</time></trkpt><trkpt lat="59.3013944663" lon="34.7126664408"><ele>154.72</ele><time>2026-08-16T16:34:08Z</time></trkpt><trkpt lat="59.3015924469" lon="34.7126679495"><ele>151.77</ele><time>2026-08-16T16:34:25Z</time></trkpt><trkpt lat="59.3017308321" lon="34.7126946039"><ele>150.24</ele><time>2026-08-16T16:34:38Z</time></trkpt><trkpt lat="59.3019181676" lon="34.7127269581"><ele>149.27</ele><time>2026-08-16T16:34:53Z</time></trkpt><trkpt lat="59.3020181637" lon="34.7126893234"><ele>152.45</ele><time>2026-08-16T16:35:05Z</time></trkpt><trkpt lat="59.3020328321" lon="34.7126980405"><ele>155.14</ele><time>2026-08-16T16:35:26Z</time></trkpt><trkpt lat="59.3020329997" lon="34.7127010580"><ele>158.16</ele><time>2026-08-16T16:35:29Z</time></trkpt><trkpt lat="59.3021154776" lon="34.7127786744"><ele>164.68</ele><time>2026-08-16T16:35:53Z</time></trkpt><trkpt lat="59.3021762464" lon="34.7127914988"><ele>164.32</ele><time>2026-08-16T16:36:00Z</time></trkpt><trkpt lat="59.3023913261" lon="34.7128369287"><ele>164.03</ele><time>2026-08-16T16:36:19Z</time></trkpt><trkpt lat="59.3025491573" lon="34.7128878068"><ele>163.64</ele><time>2026-08-16T16:36:32Z</time></trkpt><trkpt lat="59.3027840182" lon="34.7128837835"><ele>162.64</ele><time>2026-08-16T16:36:52Z</time></trkpt><trkpt lat="59.3028163724" lon="34.7128842026"><ele>162.44</ele><time>2026-08-16T16:36:55Z</time></trkpt><trkpt lat="59.3029107526" lon="34.7129075881"><ele>161.71</ele><time>2026-08-16T16:37:04Z</time></trkpt><trkpt lat="59.3030102458" lon="34.7129490785"><ele>160.79</ele><time>2026-08-16T16:37:13Z</time></trkpt><trkpt lat="59.3031092361" lon="34.7128787544"><ele>160.32</ele><time>2026-08-16T16:37:28Z</time></trkpt><trkpt lat="59.3031089846" lon="34.7128672712"><ele>162.77</ele><time>2026-08-16T16:37:49Z</time></trkpt><trkpt lat="59.3031185400" lon="34.7128596436"><ele>163.92</ele><time>2026-08-16T16:37:59Z</time></trkpt><trkpt lat="59.3031660654" lon="34.7129124496"><ele>165.07</ele><time>2026-08-16T16:38:17Z</time></trkpt><trkpt lat="59.3032739405" lon="34.7129024751"><ele>164.66</ele><time>2026-08-16T16:38:27Z</time></trkpt><trkpt lat="59.3033156823" lon="34.7128780000"><ele>164.41</ele><time>2026-08-16T16:38:30Z</time></trkpt><trkpt lat="59.3035696540" lon="34.7128592245"><ele>161.91</ele><time>2026-08-16T16:38:51Z</time></trkpt><trkpt lat="59.3037108053" lon="34.7128738090"><ele>160.03</ele><time>2026-08-16T16:39:04Z</time></trkpt><trkpt lat="59.3038259726" lon="34.7129613999"><ele>157.57</ele><time>2026-08-16T16:39:17Z</time></trkpt><trkpt lat="59.3039042596" lon="34.7130190674"><ele>155.71</ele><time>2026-08-16T16:39:25Z</time></trkpt><trkpt lat="59.3039697222" lon="34.7130916547"><ele>153.73</ele><time>2026-08-16T16:39:34Z</time></trkpt><trkpt lat="59.3040822074" lon="34.7130763158"><ele>151.31</ele><time>2026-08-16T16:39:47Z</time></trkpt><trkpt lat="59.3041441496" lon="34.7130418662"><ele>149.62</ele><time>2026-08-16T16:39:54Z</time></trkpt><trkpt lat="59.3041604944" lon="34.7130380943"><ele>149.23</ele><time>2026-08-16T16:39:56Z</time></trkpt><trkpt lat="59.3041817844" lon="34.7130416986"><ele>148.92</ele><time>2026-08-16T16:39:58Z</time></trkpt><trkpt lat="59.3041941896" lon="34.7130156308"><ele>148.51</ele><time>2026-08-16T16:40:00Z</time></trkpt><trkpt lat="59.3043387774" lon="34.7129197419"><ele>145.40</ele><time>2026-08-16T16:40:15Z</time></trkpt><trkpt lat="59.3044241890" lon="34.7128252778"><ele>143.33</ele><time>2026-08-16T16:40:25Z</time></trkpt><trkpt lat="59.3046391010" lon="34.7127010580"><ele>138.09</ele><time>2026-08-16T16:40:46Z</time></trkpt><trkpt lat="59.3048387580" lon="34.7126438934"><ele>136.90</ele><time>2026-08-16T16:41:04Z</time></trkpt><trkpt lat="59.3049190566" lon="34.7126236092"><ele>135.22</ele><time>2026-08-16T16:41:14Z</time></trkpt><trkpt lat="59.3049707729" lon="34.7126186639"><ele>133.28</ele><time>2026-08-16T16:41:21Z</time></trkpt><trkpt lat="59.3050553463" lon="34.7125568893"><ele>131.06</ele><time>2026-08-16T16:41:30Z</time></trkpt><trkpt lat="59.3051229045" lon="34.7125200927"><ele>130.07</ele><time>2026-08-16T16:41:36Z</time></trkpt><trkpt lat="59.3052249961" lon="34.7124797758"><ele>130.09</ele><time>2026-08-16T16:41:42Z</time></trkpt><trkpt lat="59.3054815661" lon="34.7125837952"><ele>142.68</ele><time>2026-08-16T16:41:56Z</time></trkpt><trkpt lat="59.3055792991" lon="34.7125839628"><ele>145.66</ele><time>2026-08-16T16:42:06Z</time></trkpt><trkpt lat="59.3056019302" lon="34.7125846334"><ele>146.06</ele><time>2026-08-16T16:42:08Z</time></trkpt><trkpt lat="59.3058253918" lon="34.7125991341"><ele>152.83</ele><time>2026-08-16T16:42:27Z</time></trkpt><trkpt lat="59.3060463388" lon="34.7126117069"><ele>154.83</ele><time>2026-08-16T16:42:43Z</time></trkpt><trkpt lat="59.3061878253" lon="34.7126450669"><ele>154.65</ele><time>2026-08-16T16:42:58Z</time></trkpt><trkpt lat="59.3063802738" lon="34.7126967832"><ele>165.24</ele><time>2026-08-16T16:43:11Z</time></trkpt><trkpt lat="59.3064127117" lon="34.7127038240"><ele>167.70</ele><time>2026-08-16T16:43:13Z</time></trkpt><trkpt lat="59.3066054955" lon="34.7127177380"><ele>175.65</ele><time>2026-08-16T16:43:25Z</time></trkpt><trkpt lat="59.3068194855" lon="34.7127345856"><ele>182.40</ele><time>2026-08-16T16:43:36Z</time></trkpt><trkpt lat="59.3069800828" lon="34.7127477452"><ele>189.71</ele><time>2026-08-16T16:43:47Z</time></trkpt><trkpt lat="59.3070954178" lon="34.7127344180"><ele>183.62</ele><time>2026-08-16T16:44:00Z</time></trkpt><trkpt lat="59.3072426040" lon="34.7127562948"><ele>184.60</ele><time>2026-08-16T16:44:12Z</time></trkpt><trkpt lat="59.3073407561" lon="34.7127452306"><ele>184.09</ele><time>2026-08-16T16:44:24Z</time></trkpt><trkpt lat="59.3074874394" lon="34.7127826139"><ele>183.42</ele><time>2026-08-16T16:44:41Z</time></trkpt><trkpt lat="59.3076029420" lon="34.7127788421"><ele>182.72</ele><time>2026-08-16T16:44:54Z</time></trkpt><trkpt lat="59.3076596037" lon="34.7127768304"><ele>183.04</ele><time>2026-08-16T16:45:00Z</time></trkpt><trkpt lat="59.3078499567" lon="34.7127637547"><ele>183.34</ele><time>2026-08-16T16:45:15Z</time></trkpt><trkpt lat="59.3080284912" lon="34.7127857991"><ele>184.53</ele><time>2026-08-16T16:45:28Z</time></trkpt><trkpt lat="59.3081779405" lon="34.7128058318"><ele>184.52</ele><time>2026-08-16T16:45:40Z</time></trkpt><trkpt lat="59.3082853127" lon="34.7128063347"><ele>185.28</ele><time>2026-08-16T16:45:48Z</time></trkpt><trkpt lat="59.3083447404" lon="34.7128208354"><ele>185.29</ele><time>2026-08-16T16:45:53Z</time></trkpt><trkpt lat="59.3084378634" lon="34.7128225118"><ele>185.43</ele><time>2026-08-16T16:45:59Z</time></trkpt><trkpt lat="59.3086162303" lon="34.7128431313"><ele>184.23</ele><time>2026-08-16T16:46:12Z</time></trkpt><trkpt lat="59.3087647576" lon="34.7128853761"><ele>184.64</ele><time>2026-08-16T16:46:27Z</time></trkpt><trkpt lat="59.3088985328" lon="34.7129080072"><ele>183.91</ele><time>2026-08-16T16:46:39Z</time></trkpt><trkpt lat="59.3090566155" lon="34.7128854599"><ele>183.55</ele><time>2026-08-16T16:46:52Z</time></trkpt><trkpt lat="59.3092378322" lon="34.7128984518"><ele>181.21</ele><time>2026-08-16T16:47:05Z</time></trkpt><trkpt lat="59.3094176240" lon="34.7129181493"><ele>180.44</ele><time>2026-08-16T16:47:18Z</time></trkpt><trkpt lat="59.3096212205" lon="34.7129497491"><ele>180.16</ele><time>2026-08-16T16:47:34Z</time></trkpt><trkpt lat="59.3097844161" lon="34.7129684407"><ele>180.99</ele><time>2026-08-16T16:47:47Z</time></trkpt><trkpt lat="59.3099413253" lon="34.7130163852"><ele>180.83</ele><time>2026-08-16T16:48:01Z</time></trkpt><trkpt lat="59.3101198599" lon="34.7130423691"><ele>181.53</ele><time>2026-08-16T16:48:15Z</time></trkpt><trkpt lat="59.3102911860" lon="34.7130716220"><ele>181.96</ele><time>2026-08-16T16:48:29Z</time></trkpt><trkpt lat="59.3104474247" lon="34.7130867094"><ele>182.73</ele><time>2026-08-16T16:48:43Z</time></trkpt><trkpt lat="59.3106485903" lon="34.7130958457"><ele>181.82</ele><time>2026-08-16T16:48:57Z</time></trkpt><trkpt lat="59.3107873946" lon="34.7130966000"><ele>178.97</ele><time>2026-08-16T16:49:09Z</time></trkpt><trkpt lat="59.3109859619" lon="34.7130750585"><ele>178.27</ele><time>2026-08-16T16:49:24Z</time></trkpt><trkpt lat="59.3111484870" lon="34.7130458057"><ele>173.32</ele><time>2026-08-16T16:49:37Z</time></trkpt><trkpt lat="59.3112847768" lon="34.7130266111"><ele>171.25</ele><time>2026-08-16T16:49:48Z</time></trkpt><trkpt lat="59.3114289455" lon="34.7129915748"><ele>171.35</ele><time>2026-08-16T16:49:59Z</time></trkpt><trkpt lat="59.3116038758" lon="34.7129303031"><ele>171.12</ele><time>2026-08-16T16:50:13Z</time></trkpt><trkpt lat="59.3117705919" lon="34.7129097674"><ele>169.89</ele><time>2026-08-16T16:50:26Z</time></trkpt><trkpt lat="59.3119244836" lon="34.7128888965"><ele>167.69</ele><time>2026-08-16T16:50:39Z</time></trkpt><trkpt lat="59.3120958097" lon="34.7128623258"><ele>165.16</ele><time>2026-08-16T16:50:54Z</time></trkpt><trkpt lat="59.3122559879" lon="34.7128108609"><ele>167.35</ele><time>2026-08-16T16:51:06Z</time></trkpt><trkpt lat="59.3123621028" lon="34.7127996292"><ele>165.73</ele><time>2026-08-16T16:51:15Z</time></trkpt><trkpt lat="59.3125506118" lon="34.7127536964"><ele>167.80</ele><time>2026-08-16T16:51:29Z</time></trkpt><trkpt lat="59.3127346784" lon="34.7127080988"><ele>169.48</ele><time>2026-08-16T16:51:43Z</time></trkpt><trkpt lat="59.3128780928" lon="34.7126856353"><ele>170.03</ele><time>2026-08-16T16:51:54Z</time></trkpt><trkpt lat="59.3130472396" lon="34.7126274649"><ele>172.07</ele><time>2026-08-16T16:52:08Z</time></trkpt><trkpt lat="59.3132024724" lon="34.7125806939"><ele>177.85</ele><time>2026-08-16T16:52:20Z</time></trkpt><trkpt lat="59.3133183941" lon="34.7125309054"><ele>181.25</ele><time>2026-08-16T16:52:34Z</time></trkpt><trkpt lat="59.3132725451" lon="34.7125671152"><ele>174.91</ele><time>2026-08-16T16:52:52Z</time></trkpt><trkpt lat="59.3132457230" lon="34.7125647683"><ele>173.76</ele><time>2026-08-16T16:53:02Z</time></trkpt></trkseg></trk></gpx>